[[{"header":{"parameterUnit":"m.s-1","parameterCategory":1,"la1":30.6,"la2":29.2853,"lo1":-89.7004,"lo2":-87.6739,"dy":0.0162,"dx":0.0183,"nx":112,"ny":82,"refTime":"2023-07-16T00:00:00:Z","depth":0,"parameterNumber":2,"parameterNumberName":"U-component_of_WINDS"},"data":[0.0,0.0,0.0,0.0,0.0,0.0,0.0,0.0,0.0,0.0,0.0,0.0,0.0,0.0,0.0,0.0,0.0,0.0,0.0,0.0,0.0,0.0,0.0,0.0,0.0,0.0,0.0,0.0,0.0,0.0,0.0,0.0,0.0,0.0,0.0,0.0,0.0,0.0,0.0,0.0,0.0,0.0,0.0,0.0,0.0,0.0,0.0,0.0,0.0,0.0,0.0,0.0,0.0,0.0,0.0,0.0,0.0,0.0,0.0,0.0,0.0,0.0,0.0,0.0,0.0,0.0,0.0,0.0,0.0,0.0,0.0,0.0,0.0,0.0,0.0,0.0,0.0,0.0,0.0,0.0,0.0,0.0,0.0,0.0,0.0,0.0,0.0,0.0,0.0,0.0,2.1837,2.1604,2.1042,2.0733,2.0839,2.1042,2.1065,2.0911,0.0,0.0,0.0,0.0,0.0,0.0,0.0,0.0,0.0,0.0,0.0,0.0,0.0,0.0,0.0,0.0,0.0,0.0,0.0,0.0,0.0,0.0,0.0,0.0,0.0,0.0,0.0,0.0,0.0,0.0,0.0,0.0,0.0,0.0,0.0,0.0,0.0,0.0,0.0,0.0,0.0,0.0,0.0,0.0,0.0,0.0,0.0,0.0,0.0,0.0,0.0,0.0,0.0,0.0,0.0,0.0,0.0,0.0,0.0,0.0,0.0,0.0,0.0,0.0,0.0,0.0,0.0,0.0,0.0,0.0,0.0,0.0,0.0,0.0,0.0,0.0,0.0,0.0,0.0,0.0,0.0,0.0,0.0,0.0,0.0,0.0,0.0,0.0,0.0,0.0,0.0,0.0,0.0,0.0,0.0,0.0,0.0,0.0,0.0,0.0,0.0,0.0,0.0,0.0,2.2003,2.1135,2.0658,2.054,2.0733,2.0733,2.0825,2.0911,0.0,0.0,0.0,0.0,0.0,0.0,0.0,0.0,0.0,0.0,0.0,0.0,0.0,0.0,0.0,0.0,0.0,0.0,0.0,0.0,0.0,0.0,0.0,0.0,0.0,0.0,0.0,0.0,0.0,0.0,0.0,0.0,0.0,0.0,0.0,0.0,0.0,0.0,0.0,0.0,0.0,0.0,0.0,0.0,0.0,0.0,0.0,0.0,0.0,0.0,0.0,0.0,0.0,0.0,0.0,0.0,0.0,0.0,0.0,0.0,0.0,0.0,0.0,0.0,0.0,0.0,0.0,0.0,0.0,0.0,0.0,0.0,0.0,0.0,0.0,0.0,0.0,0.0,0.0,0.0,0.0,0.0,0.0,0.0,0.0,0.0,0.0,0.0,0.0,0.0,0.0,0.0,0.0,0.0,0.0,0.0,0.0,0.0,0.0,0.0,0.0,0.0,0.0,2.1758,2.1273,2.0571,2.0324,2.027,2.0388,2.0593,2.0812,2.1125,2.0606,0.0,0.0,0.0,0.0,0.0,0.0,0.0,0.0,0.0,0.0,0.0,0.0,0.0,0.0,0.0,0.0,0.0,0.0,0.0,0.0,0.0,0.0,0.0,0.0,0.0,0.0,0.0,0.0,0.0,0.0,0.0,0.0,0.0,0.0,0.0,0.0,0.0,0.0,0.0,0.0,0.0,0.0,0.0,0.0,0.0,0.0,0.0,0.0,0.0,0.0,0.0,0.0,0.0,0.0,0.0,0.0,0.0,0.0,0.0,0.0,0.0,0.0,0.0,0.0,0.0,0.0,0.0,0.0,0.0,0.0,0.0,0.0,0.0,0.0,0.0,0.0,0.0,0.0,0.0,0.0,0.0,0.0,0.0,0.0,0.0,0.0,0.0,0.0,0.0,0.0,0.0,0.0,0.0,0.0,0.0,0.0,0.0,0.0,0.0,0.0,0.0,0.0,2.121,2.0635,2.0172,2.0064,2.0064,2.0107,2.0453,2.0914,2.14,2.0673,0.0,0.0,0.0,0.0,0.0,0.0,0.0,0.0,0.0,0.0,0.0,0.0,0.0,0.0,0.0,0.0,0.0,0.0,0.0,0.0,0.0,0.0,0.0,0.0,0.0,0.0,0.0,0.0,0.0,0.0,0.0,0.0,0.0,0.0,0.0,0.0,0.0,0.0,0.0,0.0,0.0,0.0,0.0,0.0,0.0,0.0,0.0,0.0,0.0,0.0,0.0,0.0,0.0,0.0,0.0,0.0,0.0,0.0,0.0,0.0,0.0,0.0,0.0,0.0,0.0,0.0,0.0,0.0,0.0,0.0,0.0,0.0,0.0,0.0,0.0,0.0,0.0,0.0,0.0,0.0,0.0,0.0,0.0,0.0,0.0,0.0,0.0,0.0,0.0,0.0,0.0,0.0,0.0,0.0,0.0,0.0,0.0,0.0,0.0,0.0,0.0,0.0,2.1083,2.0506,2.0172,1.9987,1.9987,2.0107,2.0453,2.0914,2.14,2.1073,0.0,0.0,0.0,0.0,0.0,0.0,0.0,0.0,0.0,0.0,0.0,0.0,0.0,0.0,0.0,0.0,0.0,0.0,0.0,0.0,0.0,0.0,0.0,0.0,0.0,0.0,0.0,0.0,0.0,0.0,0.0,0.0,0.0,0.0,0.0,0.0,0.0,0.0,0.0,0.0,0.0,0.0,0.0,0.0,0.0,0.0,0.0,0.0,0.0,0.0,0.0,0.0,0.0,0.0,0.0,0.0,0.0,0.0,0.0,0.0,0.0,0.0,0.0,0.0,0.0,0.0,0.0,0.0,0.0,0.0,0.0,0.0,0.0,0.0,0.0,0.0,0.0,0.0,0.0,0.0,0.0,0.0,0.0,0.0,0.0,0.0,0.0,0.0,0.0,0.0,0.0,0.0,0.0,0.0,0.0,0.0,0.0,0.0,0.0,0.0,0.0,0.0,2.0839,2.0324,1.9857,1.9736,1.9736,1.9791,2.0205,2.0658,2.1083,0.0,0.0,0.0,0.0,0.0,0.0,0.0,0.0,0.0,0.0,0.0,0.0,0.0,0.0,0.0,0.0,0.0,0.0,0.0,0.0,0.0,0.0,0.0,0.0,0.0,0.0,0.0,0.0,0.0,0.0,0.0,0.0,0.0,0.0,0.0,0.0,0.0,0.0,0.0,0.0,0.0,0.0,0.0,0.0,0.0,0.0,0.0,0.0,0.0,0.0,0.0,0.0,0.0,0.0,0.0,0.0,0.0,0.0,0.0,0.0,0.0,0.0,0.0,0.0,0.0,0.0,0.0,0.0,0.0,0.0,0.0,0.0,0.0,0.0,0.0,0.0,0.0,0.0,0.0,0.0,0.0,0.0,0.0,0.0,0.0,0.0,0.0,0.0,0.0,0.0,0.0,0.0,0.0,0.0,0.0,0.0,0.0,0.0,0.0,0.0,0.0,0.0,2.1181,2.0646,2.0194,1.9884,1.9772,1.9772,1.9839,2.0237,2.062,2.0903,0.0,0.0,0.0,0.0,0.0,0.0,0.0,0.0,0.0,0.0,0.0,0.0,0.0,0.0,0.0,0.0,0.0,0.0,0.0,0.0,0.0,0.0,0.0,0.0,0.0,0.0,0.0,0.0,0.0,0.0,0.0,0.0,0.0,0.0,0.0,0.0,0.0,0.0,0.0,0.0,0.0,0.0,0.0,0.0,0.0,0.0,0.0,0.0,0.0,0.0,0.0,0.0,0.0,0.0,0.0,0.0,0.0,0.0,0.0,0.0,0.0,0.0,0.0,0.0,0.0,0.0,0.0,0.0,0.0,0.0,0.0,0.0,0.0,0.0,0.0,0.0,0.0,0.0,0.0,0.0,0.0,0.0,0.0,0.0,0.0,0.0,0.0,0.0,0.0,0.0,0.0,0.0,0.0,0.0,0.0,0.0,0.0,0.0,0.0,0.0,0.0,0.0,2.1164,2.056,2.0161,2.0264,2.0112,2.0044,2.026,2.0579,2.0831,0.0,0.0,0.0,0.0,0.0,0.0,0.0,0.0,0.0,0.0,0.0,0.0,0.0,0.0,0.0,0.0,0.0,0.0,0.0,0.0,0.0,0.0,0.0,0.0,0.0,0.0,0.0,0.0,0.0,0.0,0.0,0.0,0.0,0.0,0.0,0.0,0.0,0.0,0.0,0.0,0.0,0.0,0.0,0.0,0.0,0.0,0.0,0.0,0.0,0.0,0.0,0.0,0.0,0.0,0.0,0.0,0.0,0.0,0.0,0.0,0.0,0.0,0.0,0.0,0.0,0.0,0.0,0.0,0.0,0.0,0.0,0.0,0.0,0.0,0.0,0.0,0.0,0.0,0.0,0.0,0.0,0.0,0.0,0.0,0.0,0.0,0.0,0.0,0.0,0.0,0.0,0.0,0.0,0.0,0.0,0.0,0.0,0.0,0.0,0.0,0.0,0.0,0.0,2.0962,2.0377,2.0051,2.0264,2.0044,2.0031,2.0555,2.0796,2.0881,2.0853,0.0,0.0,0.0,0.0,0.0,0.0,0.0,0.0,0.0,0.0,0.0,0.0,0.0,0.0,0.0,0.0,0.0,0.0,0.0,0.0,0.0,0.0,0.0,0.0,0.0,0.0,0.0,0.0,0.0,0.0,0.0,0.0,0.0,0.0,0.0,0.0,0.0,0.0,0.0,0.0,0.0,0.0,0.0,0.0,0.0,0.0,0.0,0.0,0.0,0.0,0.0,0.0,0.0,0.0,0.0,0.0,0.0,0.0,0.0,0.0,0.0,0.0,0.0,0.0,0.0,0.0,0.0,0.0,0.0,0.0,0.0,0.0,0.0,0.0,0.0,0.0,0.0,0.0,0.0,0.0,0.0,0.0,0.0,0.0,0.0,0.0,0.0,0.0,0.0,0.0,0.0,0.0,0.0,0.0,0.0,0.0,0.0,0.0,0.0,0.0,0.0,0.0,2.0794,2.0424,2.0197,2.0461,2.0404,2.0481,2.0957,2.1071,2.1083,2.095,0.0,0.0,0.0,0.0,0.0,0.0,0.0,0.0,0.0,0.0,0.0,0.0,0.0,0.0,0.0,0.0,0.0,0.0,0.0,0.0,0.0,0.0,0.0,0.0,0.0,0.0,0.0,0.0,0.0,0.0,0.0,0.0,0.0,0.0,0.0,0.0,0.0,0.0,0.0,0.0,0.0,0.0,0.0,0.0,0.0,0.0,0.0,0.0,0.0,0.0,0.0,0.0,0.0,0.0,0.0,0.0,0.0,0.0,0.0,0.0,0.0,0.0,0.0,0.0,0.0,0.0,0.0,0.0,0.0,0.0,0.0,0.0,0.0,0.0,0.0,0.0,0.0,0.0,0.0,0.0,0.0,0.0,0.0,0.0,0.0,0.0,0.0,0.0,0.0,0.0,0.0,0.0,0.0,0.0,0.0,0.0,0.0,0.0,0.0,0.0,0.0,0.0,2.0638,2.0499,2.0488,2.0715,2.0938,2.1135,2.1387,2.1397,2.1344,2.1165,0.0,0.0,0.0,0.0,0.0,0.0,0.0,0.0,0.0,0.0,0.0,0.0,0.0,0.0,0.0,0.0,0.0,0.0,0.0,0.0,0.0,0.0,0.0,0.0,0.0,0.0,0.0,0.0,0.0,0.0,0.0,0.0,0.0,0.0,0.0,0.0,0.0,0.0,0.0,0.0,0.0,0.0,0.0,0.0,0.0,0.0,0.0,0.0,0.0,0.0,0.0,0.0,0.0,0.0,0.0,0.0,0.0,0.0,0.0,0.0,1.8119,1.8358,0.0,0.0,0.0,0.0,0.0,0.0,0.0,0.0,0.0,0.0,0.0,0.0,0.0,0.0,0.0,0.0,0.0,0.0,0.0,0.0,0.0,0.0,0.0,0.0,0.0,0.0,0.0,0.0,0.0,0.0,0.0,0.0,0.0,0.0,0.0,0.0,0.0,0.0,0.0,0.0,2.0764,2.0222,2.0188,2.0949,2.0767,2.0822,2.1187,2.1217,2.1165,2.0927,2.0803,0.0,0.0,0.0,0.0,0.0,0.0,0.0,0.0,0.0,0.0,0.0,0.0,0.0,0.0,0.0,0.0,0.0,0.0,0.0,0.0,0.0,0.0,0.0,0.0,0.0,0.0,0.0,0.0,0.0,0.0,0.0,0.0,0.0,0.0,0.0,0.0,0.0,0.0,0.0,0.0,0.0,0.0,0.0,0.0,0.0,0.0,0.0,0.0,0.0,0.0,0.0,0.0,0.0,0.0,0.0,0.0,0.0,0.0,0.0,1.7339,1.7996,0.0,0.0,0.0,0.0,0.0,0.0,0.0,0.0,0.0,0.0,0.0,0.0,0.0,0.0,0.0,0.0,0.0,0.0,0.0,0.0,0.0,0.0,0.0,0.0,0.0,0.0,0.0,0.0,0.0,0.0,0.0,0.0,0.0,0.0,0.0,0.0,0.0,0.0,0.0,0.0,2.04,2.0341,2.037,2.0629,2.0712,2.0781,2.0867,2.0886,2.0864,2.0701,2.0492,0.0,0.0,0.0,0.0,0.0,0.0,0.0,0.0,0.0,0.0,0.0,0.0,0.0,0.0,0.0,0.0,0.0,0.0,0.0,0.0,0.0,0.0,0.0,0.0,0.0,0.0,0.0,0.0,0.0,0.0,0.0,0.0,0.0,0.0,0.0,0.0,0.0,0.0,0.0,0.0,0.0,0.0,0.0,0.0,0.0,0.0,0.0,0.0,0.0,0.0,0.0,0.0,0.0,1.5529,1.5295,1.5146,1.5076,1.5068,1.5146,1.6629,1.7468,1.7832,1.8341,0.0,0.0,0.0,0.0,0.0,0.0,0.0,0.0,0.0,0.0,0.0,0.0,0.0,0.0,0.0,0.0,0.0,0.0,0.0,0.0,0.0,0.0,1.9931,1.9214,1.9295,1.9601,1.9688,0.0,0.0,0.0,0.0,0.0,0.0,0.0,0.0,0.0,0.0,0.0,2.0066,2.0359,2.0487,2.0276,2.0505,2.0634,2.0489,2.0489,2.0489,2.0489,2.0072,1.9878,0.0,0.0,0.0,0.0,0.0,0.0,0.0,0.0,0.0,0.0,0.0,0.0,0.0,0.0,0.0,0.0,0.0,0.0,0.0,0.0,0.0,0.0,0.0,0.0,0.0,0.0,0.0,0.0,0.0,0.0,0.0,0.0,1.8522,1.8385,0.0,0.0,0.0,0.0,0.0,0.0,0.0,0.0,0.0,0.0,0.0,0.0,0.0,1.6203,1.6197,1.581,1.5725,1.5681,1.5359,1.5036,1.4781,1.4608,1.4525,1.4539,1.4958,0.0,1.6185,1.6556,0.0,0.0,0.0,0.0,0.0,0.0,0.0,0.0,0.0,0.0,0.0,0.0,0.0,0.0,0.0,0.0,0.0,0.0,0.0,0.0,0.0,0.0,1.9456,1.8854,1.8766,1.8806,1.8585,1.8929,1.9333,1.9243,1.9262,1.9511,0.0,0.0,0.0,0.0,0.0,0.0,2.0068,1.9928,1.9916,2.0217,2.0148,2.002,2.002,2.002,2.002,2.002,1.9972,1.9934,1.9934,2.012,0.0,0.0,0.0,0.0,0.0,0.0,0.0,0.0,0.0,0.0,0.0,0.0,0.0,0.0,0.0,0.0,0.0,0.0,0.0,0.0,0.0,0.0,0.0,0.0,0.0,0.0,0.0,0.0,0.0,1.7919,1.793,1.8103,1.7642,1.7312,0.0,0.0,0.0,0.0,0.0,0.0,0.0,0.0,0.0,1.6046,1.592,1.561,1.5346,1.5107,1.4935,1.4822,1.4658,1.4495,1.4394,1.4125,1.4038,1.4044,1.4071,1.4167,1.4558,1.5539,1.6036,1.6314,0.0,0.0,0.0,0.0,1.7208,1.7274,1.7318,1.7371,1.749,1.7557,0.0,0.0,0.0,0.0,0.0,0.0,0.0,1.8995,1.8695,1.8727,1.8689,1.818,1.8256,1.8357,1.8112,1.8425,1.8788,1.8871,1.8872,1.8939,1.9451,1.9414,0.0,0.0,0.0,1.938,1.9421,1.9429,1.95,1.9529,1.9478,1.932,1.925,1.924,1.924,1.924,1.924,1.924,1.924,1.9478,1.9464,0.0,0.0,0.0,0.0,0.0,0.0,0.0,0.0,0.0,0.0,0.0,0.0,0.0,0.0,0.0,0.0,0.0,0.0,0.0,0.0,0.0,0.0,0.0,0.0,0.0,0.0,0.0,0.0,1.7339,1.7367,1.7512,1.7062,1.6807,0.0,0.0,0.0,0.0,0.0,0.0,1.5944,1.5872,1.569,1.5375,1.5359,1.5111,1.4684,1.4599,1.4408,1.4096,1.4096,1.4034,1.4069,1.3785,1.3604,1.361,1.3397,1.333,1.3397,1.4546,1.5214,1.5511,1.5372,1.5597,1.5836,1.572,1.5682,1.5713,1.5701,1.5695,1.5777,1.6013,1.6333,1.6616,1.6868,0.0,0.0,0.0,0.0,1.8206,1.8021,1.8108,1.8086,1.7738,1.777,1.7935,1.7766,1.7865,1.8177,1.8672,1.8727,1.8761,1.8979,1.8898,0.0,1.8791,1.8962,1.8979,1.8988,1.9101,1.921,1.9057,1.9057,1.8975,1.883,1.8742,1.8762,1.8762,1.8754,1.8736,1.8833,1.8995,1.912,1.9228,0.0,0.0,0.0,0.0,0.0,0.0,0.0,0.0,0.0,0.0,0.0,0.0,0.0,0.0,0.0,0.0,0.0,0.0,0.0,0.0,0.0,0.0,0.0,0.0,0.0,0.0,0.0,0.0,0.0,1.631,1.6271,0.0,0.0,0.0,0.0,1.6158,1.5777,1.5683,1.6101,1.547,1.5144,1.5144,1.4734,1.4457,1.4496,1.4228,1.4108,1.4224,1.4044,1.3876,1.3888,1.3332,1.3144,1.3156,1.3118,1.3122,1.3199,1.3689,1.3941,1.3916,1.4278,1.4474,1.4487,1.4761,1.485,1.4883,1.4845,1.4953,1.5198,1.5471,1.5979,1.6563,1.684,1.7029,0.0,0.0,1.8013,1.7981,1.7965,1.7994,1.7874,1.7517,1.7414,1.7407,1.7113,1.7098,1.7416,1.8551,1.8759,1.8905,1.9305,0.0,1.9364,1.9364,1.9382,1.9305,1.9153,1.9085,1.9102,1.9102,1.9102,1.9102,1.9102,1.8944,1.8911,1.8911,1.8742,1.8851,1.9124,1.9224,1.9401,1.9791,1.98,0.0,0.0,0.0,0.0,0.0,0.0,0.0,0.0,0.0,0.0,0.0,0.0,0.0,0.0,0.0,0.0,0.0,0.0,0.0,0.0,0.0,0.0,0.0,0.0,0.0,0.0,0.0,0.0,1.6146,1.5936,0.0,1.5763,1.5625,1.5516,1.5479,1.5323,1.5209,1.5235,1.4852,1.4706,1.4706,1.4455,1.4255,1.4097,1.4002,1.396,1.4044,1.3958,1.395,1.4115,1.3744,1.3555,1.3366,1.3166,1.3014,1.2912,1.3115,1.3356,1.3632,1.3536,1.3681,1.378,1.3872,1.378,1.3676,1.3628,1.3647,1.3851,1.4224,1.4578,1.484,1.5377,1.5644,1.5821,1.6448,1.6624,1.6705,1.682,1.6946,1.6868,1.6907,1.7107,1.727,1.7334,1.7576,1.7812,1.8304,1.8097,1.7953,1.8292,1.8292,1.8292,1.8292,1.8292,1.83,1.8213,1.8213,1.83,1.8473,1.8473,1.8473,1.8629,1.8598,1.8608,1.8608,1.8575,1.8558,1.8684,1.8684,1.8752,1.8887,1.8896,1.882,0.0,0.0,0.0,0.0,0.0,0.0,0.0,0.0,0.0,0.0,0.0,0.0,0.0,0.0,0.0,0.0,0.0,0.0,0.0,0.0,0.0,0.0,0.0,0.0,0.0,1.5468,1.5386,1.5571,1.5425,1.5338,1.5379,1.5329,1.531,1.5155,1.5177,1.5063,1.4792,1.4643,1.4493,1.4405,1.4238,1.4113,1.4018,1.3927,1.3964,1.4039,1.4039,1.4129,1.4298,1.4022,1.3835,1.3636,1.3249,1.305,1.2861,1.2861,1.2956,1.3254,1.3067,1.3008,1.3025,1.3025,1.2931,1.2625,1.2697,1.2746,1.2839,1.3316,1.3501,1.3686,1.432,1.4596,1.478,1.542,1.5693,1.5784,1.6154,1.6252,1.6371,1.6584,1.6887,1.715,1.7331,1.7613,1.7822,1.7822,1.7735,1.7691,1.778,1.7869,1.7869,1.7869,1.7869,1.7869,1.7869,1.7869,1.7869,1.8047,1.8128,1.8217,1.8394,1.837,1.8384,1.8472,1.8444,1.8428,1.8638,1.8646,1.8704,1.8828,1.8537,1.8472,1.8376,0.0,0.0,0.0,0.0,0.0,0.0,0.0,0.0,0.0,0.0,0.0,0.0,0.0,0.0,0.0,0.0,0.0,0.0,0.0,0.0,0.0,0.0,0.0,1.4419,1.4622,1.4646,1.4588,1.4911,1.4929,1.4671,1.4942,1.513,1.513,1.5239,1.5143,1.486,1.4687,1.452,1.4263,1.3997,1.4031,1.4192,1.4011,1.4045,1.4298,1.4298,1.4298,1.4298,1.4022,1.3931,1.3835,1.3346,1.3152,1.3061,1.2872,1.2867,1.2861,1.2764,1.2662,1.237,1.2381,1.2191,1.2001,1.2001,1.2196,1.2391,1.2689,1.298,1.3169,1.3738,1.4027,1.4412,1.4975,1.5255,1.554,1.6001,1.6197,1.6305,1.6501,1.6763,1.7044,1.6986,1.7182,1.7276,1.7362,1.7736,1.8102,1.8087,1.8087,1.8087,1.8087,1.8087,0.0,1.8102,1.8102,1.8102,1.8102,1.8102,1.8202,1.8481,1.8344,1.8409,1.8596,1.8521,1.8567,1.9018,1.8945,1.9216,1.9579,1.8962,1.8506,1.8319,0.0,0.0,0.0,0.0,0.0,0.0,0.0,0.0,0.0,0.0,0.0,0.0,0.0,0.0,0.0,0.0,0.0,0.0,0.0,0.0,0.0,1.2865,1.3119,1.3888,1.4101,1.4095,1.3998,1.4208,1.4303,1.4037,1.4304,1.4487,1.4487,1.4641,1.4771,1.4681,1.4611,1.4542,1.4457,1.4272,1.4212,1.4285,1.4189,1.4226,1.4298,1.4298,1.4298,1.4298,1.4202,1.4118,1.3931,1.3738,1.3545,1.3407,1.3309,1.3324,1.3288,1.2969,1.2662,1.2396,1.2521,1.247,1.2156,1.2156,1.2156,1.2258,1.2562,1.2866,1.3068,1.3472,1.378,1.4148,1.4654,1.4894,1.4942,1.5319,1.5698,1.6042,1.6339,1.6711,1.7168,1.7334,1.7366,1.7527,1.7702,1.785,1.7831,1.7579,1.752,1.752,1.752,1.752,1.7601,1.7845,1.7875,1.7978,1.8175,1.8175,1.8172,1.8202,1.838,1.8425,1.8517,1.8597,1.8763,1.8859,1.8867,1.8832,1.8759,1.8664,1.8417,0.0,0.0,0.0,0.0,0.0,0.0,0.0,0.0,0.0,0.0,0.0,0.0,0.0,0.0,0.0,0.0,0.0,0.0,0.0,0.0,0.0,0.0,1.2273,1.2242,1.292,1.3101,1.3278,1.3439,1.3709,1.3856,1.3799,1.416,1.433,1.433,1.4707,1.495,1.4772,1.4926,1.4922,1.4835,1.4607,1.4496,1.4496,1.4516,1.4473,1.4473,1.4588,1.4636,1.4636,1.4636,1.4544,1.4353,1.4248,1.4132,1.3964,1.3758,1.3696,1.3601,0.0,0.0,0.0,0.0,1.2367,1.223,1.2127,1.2024,1.2127,1.2437,1.2746,1.2951,1.3372,1.3685,1.3964,1.4323,1.4483,1.4742,1.498,1.5442,1.5853,1.6163,1.6619,1.6997,1.7251,1.7438,1.7523,1.7694,1.768,0.0,1.7527,1.7677,1.7743,1.7721,1.7735,1.7801,1.7991,1.8021,1.8021,1.823,1.8222,1.8245,1.8346,1.8522,0.0,0.0,0.0,1.8894,1.8894,1.8894,0.0,0.0,0.0,1.8426,1.8221,1.7743,0.0,0.0,1.6302,1.5964,0.0,0.0,0.0,0.0,0.0,0.0,0.0,0.0,0.0,0.0,0.0,0.0,0.0,0.0,0.0,0.0,1.1732,1.1566,1.1732,1.2046,1.2415,1.2979,1.3227,1.3527,1.3713,1.4266,1.4521,1.4521,1.5119,1.5356,1.5083,1.5356,0.0,0.0,0.0,1.4737,1.4737,1.482,1.4763,1.4763,1.4998,1.5107,1.5107,1.5107,1.5107,1.5107,1.4898,1.4712,1.4736,1.4214,1.4048,1.3995,1.3556,1.3323,1.308,1.258,1.2393,1.2412,1.2096,0.0,0.0,1.2511,1.2719,1.2827,1.3349,1.3767,1.3968,1.394,1.4333,1.473,1.5011,1.5322,1.5644,1.6163,1.6485,1.6854,1.7034,1.7272,1.7469,1.7508,1.7509,1.7631,1.7881,1.8134,1.8319,1.8306,1.8313,1.8313,1.835,1.8357,1.8357,1.8357,1.8357,0.0,1.8617,1.8716,1.8814,1.9003,1.9102,1.9102,1.9102,1.9102,1.9102,1.9102,1.8814,1.8511,1.82,1.8016,1.7413,1.66,1.6341,1.5921,0.0,0.0,0.0,0.0,0.0,0.0,0.0,0.0,0.0,0.0,0.0,0.0,0.0,0.0,0.0,1.1613,1.1211,1.091,1.1145,1.1435,1.1772,1.2486,1.2765,1.3076,1.3519,1.3886,1.4142,1.4321,1.4854,1.5172,1.5083,1.5356,1.5445,1.5452,1.539,1.5212,1.5016,1.5283,1.5224,1.5034,1.5083,0.0,1.5107,1.5107,1.5107,1.5107,1.5005,1.5017,1.5,1.4896,1.4815,1.4686,1.3576,1.3254,1.3325,1.3011,1.2921,1.3081,1.3076,1.2974,1.3076,1.3076,1.3296,1.351,1.3618,1.3837,0.0,1.4129,1.4387,1.4648,1.4747,1.5264,1.584,1.595,1.6529,1.7128,1.716,1.737,1.76,1.7806,1.7871,1.8018,1.8289,1.8131,1.8023,1.8296,1.8302,1.8394,1.8657,1.8694,1.8694,1.8694,1.8694,1.8591,1.8427,1.8617,1.8716,1.8814,1.9003,1.9102,1.9102,1.9102,1.9003,1.8814,1.8723,1.8419,1.8016,1.7711,1.7114,1.6419,1.626,1.5833,0.0,0.0,0.0,0.0,0.0,0.0,0.0,0.0,0.0,0.0,0.0,1.1192,1.1192,0.0,1.0789,1.1023,1.0726,1.0598,1.0942,1.1269,1.1568,1.204,1.2453,1.2978,1.3417,1.3753,1.4022,1.4298,1.4688,1.4987,1.5083,1.5356,1.5606,1.5853,1.5804,1.5652,1.57,1.5675,1.5608,1.5517,1.5542,1.5499,1.5499,1.5499,1.5499,1.5499,1.5499,1.5467,1.5475,1.5358,1.5229,1.4928,1.4336,1.4062,1.3997,1.3464,1.3434,1.3532,1.3315,1.3315,1.3315,1.3423,1.3645,1.3753,1.3862,1.4083,1.4277,1.4355,1.4635,1.4824,1.5019,1.5497,1.5909,1.602,1.6542,1.6955,1.7179,1.7378,1.7694,1.7813,1.782,1.7925,1.8142,1.8088,1.8112,1.8511,1.8753,1.8847,1.9016,1.8935,1.8832,1.8832,1.8722,1.8547,1.8607,1.8796,1.9006,1.9006,1.91,1.9201,1.9201,1.9201,1.91,1.9006,1.8905,1.86,1.8178,1.7763,1.7148,1.653,1.6219,1.5634,0.0,0.0,0.0,0.0,0.0,0.0,0.0,1.0653,1.0653,1.0653,1.0653,1.0653,1.0653,1.0491,1.0381,1.0645,1.0504,1.0463,1.091,1.1271,1.1551,1.1723,1.2296,1.2892,1.342,1.3738,1.3925,1.4298,1.4592,1.491,1.5159,1.5441,1.586,1.6346,1.6209,1.6255,1.6403,1.6278,1.6106,1.6002,1.6007,1.5998,1.5891,1.5891,1.5891,1.5891,1.5891,1.5891,1.5885,1.5654,1.5487,1.524,1.5223,1.503,1.4842,1.4213,1.3996,1.4033,1.3816,1.3733,1.3769,1.3993,1.4097,1.4211,1.4435,1.4543,1.4543,1.475,1.5075,1.5292,1.5628,1.5839,1.6156,1.6377,1.6586,1.6902,1.7235,1.7549,1.7762,1.7762,1.7762,1.7875,1.8009,1.8181,1.8337,1.8772,1.8966,1.9168,1.916,1.8959,1.8764,1.8764,1.8534,1.8534,1.8869,1.9182,1.9279,1.9279,1.9279,1.9279,1.9279,1.9279,1.9279,1.9279,1.9078,1.8757,1.8422,1.7898,1.7259,1.673,1.6099,1.5459,0.8352,0.9043,0.9694,1.0386,1.0519,1.0657,0.0,1.1247,1.1247,1.1247,1.1247,1.1247,1.1247,1.0975,1.0803,1.0827,1.074,1.0577,1.0624,1.1268,1.1686,1.1711,1.2115,1.2696,1.342,1.3539,1.3732,1.4298,1.479,1.5191,1.5439,1.5934,1.6353,1.6647,1.6914,1.6965,1.6697,1.6879,1.681,1.628,1.6311,1.6105,1.5891,1.5891,1.5891,1.5891,1.5891,1.5891,1.5891,1.5885,1.5971,1.616,1.5934,1.5893,1.5987,1.5201,1.4961,1.5257,1.5147,1.5288,1.5586,1.5586,1.5586,1.558,1.5586,1.5586,1.5586,1.5698,1.5922,1.6157,1.6157,1.6386,1.661,1.661,1.7055,1.7499,1.7499,1.7949,1.839,1.839,1.839,1.839,1.8397,1.8619,1.8711,1.8492,1.8527,1.852,1.8506,1.8513,1.8429,1.8429,1.8422,1.8534,1.8869,1.9182,1.9279,1.9279,1.9279,1.9279,1.9279,1.9279,1.9279,1.9279,1.9078,1.8757,1.8422,1.7898,1.7259,1.673,1.5879,1.5339,0.9127,0.9607,0.992,1.0486,1.063,1.0649,1.0828,1.0847,1.0847,1.0847,1.0847,1.0847,1.0847,1.0755,1.0755,1.0755,1.0662,1.071,1.0933,1.1407,1.1803,1.2021,1.2518,1.294,1.3431,1.3636,1.399,1.4527,1.4929,1.5243,1.5719,1.6136,1.6467,1.6954,1.7081,1.7228,1.7193,1.7219,1.7067,1.6861,1.6636,1.6418,1.6418,1.6418,1.6418,1.6424,1.6586,1.6693,1.6693,1.6794,1.697,1.7023,1.6924,1.6973,1.6894,1.5882,1.5532,1.5624,1.5624,1.5692,1.5778,1.5778,1.5778,1.5778,1.5778,1.5778,1.589,1.6009,1.6239,1.6357,1.647,1.6588,1.67,1.67,1.7148,1.7595,1.7595,1.804,1.849,1.849,1.849,1.849,1.849,1.8554,1.859,1.8496,1.8706,1.8954,1.8947,1.8749,1.8621,1.8421,1.8644,1.886,1.9191,1.9413,1.9628,1.9835,1.9835,1.9835,1.9835,1.9835,1.9728,1.9628,1.9306,1.9083,1.8644,1.7994,1.736,1.6978,1.5898,1.5281,0.9961,1.0224,1.0405,1.0705,1.0753,1.0767,1.0731,1.0745,1.0745,1.0745,1.0745,1.0745,1.0745,1.0745,1.0745,1.0745,1.0839,1.099,1.134,1.1652,1.2092,1.2452,1.2953,1.3346,1.3539,1.3835,1.4134,1.4789,1.5097,1.5444,1.6106,1.6436,1.677,1.7261,1.7268,1.7368,1.7582,1.7384,1.7279,1.7179,1.6955,1.6842,1.6736,1.6813,1.6844,1.6863,1.7207,1.736,1.7371,1.7528,1.7604,1.7744,1.7755,1.7786,1.7704,1.6786,1.6511,1.6452,1.6452,1.6386,1.6451,1.6451,1.6331,1.6217,1.6217,1.6217,1.6331,1.6564,1.6684,1.6684,1.6911,1.6917,1.6917,1.7037,1.7484,1.7824,1.793,1.8387,1.8731,1.8731,1.8731,1.8731,1.8731,1.8731,1.8771,1.8785,1.9023,1.9229,1.9105,1.8933,1.8769,1.8477,1.8705,1.9023,1.9243,1.9587,1.9916,2.0128,2.0128,2.0237,2.0237,2.0128,2.0026,1.9814,1.947,1.9133,1.8919,1.804,1.7487,1.7277,1.6062,1.5412,1.0631,1.1056,1.1359,1.1308,1.1267,1.122,1.123,1.1175,1.1175,1.1175,1.1175,1.1175,1.1175,1.1175,1.1175,1.1175,1.137,1.157,1.1575,1.2068,1.2462,1.2764,1.3249,1.3545,1.3835,1.3931,1.4231,1.5072,1.5293,1.5838,1.671,1.7038,1.7268,1.7562,1.7569,1.7575,1.7582,1.7582,1.7483,1.7179,1.7179,1.6955,1.6743,1.7016,1.7137,1.715,1.7502,1.754,1.7576,1.7582,1.7736,1.8031,1.7965,1.8125,1.8396,1.8279,1.8109,1.7881,1.7881,1.7943,1.7948,1.7948,1.7701,1.7455,1.7455,1.7455,1.7455,1.7461,1.7461,1.7461,1.7461,1.7461,1.7578,1.7824,1.8169,1.8506,1.8739,1.91,1.9339,1.9339,1.9339,1.9339,1.9339,1.9339,1.9339,1.9345,1.9345,1.9192,1.8566,1.8479,1.8484,1.849,1.8705,1.8919,1.8913,1.9477,1.9814,1.9807,2.0019,2.0237,2.0237,1.9916,1.9814,1.9814,1.925,1.8919,1.8919,1.804,1.7595,1.7582,1.6334,1.5761,1.1261,1.1485,1.1596,1.1722,1.1773,1.1696,1.1473,1.1487,1.1389,1.1194,1.1194,1.1194,1.1194,1.1389,1.1487,1.1487,1.1688,1.1883,1.2078,1.2273,1.2565,1.2953,1.3487,1.3883,1.4184,1.4478,1.4875,1.5338,1.5941,1.6529,1.7016,1.7337,1.7482,1.7582,1.7582,1.7582,1.7582,1.7582,1.7582,1.7483,1.7483,1.7483,1.7567,1.7666,1.7866,1.8067,1.836,1.848,1.8475,1.8658,1.882,1.8964,1.8984,1.8997,1.901,1.901,1.8951,1.8873,1.8397,1.8229,1.8311,1.8311,1.8188,1.8071,1.8071,1.8071,1.8071,1.8071,1.8071,1.8071,1.8071,1.8071,1.8188,1.8188,1.8532,1.8758,1.8881,1.9127,1.9366,1.9366,1.9366,1.9366,1.9366,1.9366,1.9366,1.9366,1.9366,1.9319,1.9178,1.9105,1.9072,1.9072,1.9186,1.9293,1.9514,1.9856,2.0196,2.0415,2.0648,2.0881,2.0881,2.0528,2.0302,2.0083,1.9742,1.9401,1.9179,1.8486,1.8046,1.7868,1.6612,1.5943,1.2026,1.2189,1.2193,1.2139,1.2175,1.2078,1.1785,1.178,1.1688,1.1487,1.1487,1.1487,1.1487,1.1585,1.178,1.178,1.198,1.2273,1.2467,1.2565,1.2889,1.3464,1.3813,1.4149,1.4542,1.5126,1.5557,1.5725,1.6433,1.6983,1.7364,1.7483,1.7582,1.7582,1.7582,1.7582,1.7582,1.7582,1.7582,1.7582,1.7695,1.7856,1.8056,1.8263,1.839,1.8678,1.8951,1.9074,1.9139,1.9307,1.9366,1.9366,1.9366,1.9366,1.9366,1.9366,1.9366,1.9366,1.8894,1.8655,1.8532,1.8532,1.8532,1.8421,1.8421,1.8421,1.8421,1.8421,1.8421,1.8421,1.8421,1.8421,1.8421,1.8532,1.8765,1.8874,1.9004,1.9243,1.9366,1.9366,1.9366,1.9366,1.9366,1.9366,1.9406,1.9506,1.9555,1.9495,1.9366,1.9366,1.9366,1.9366,1.9459,1.9636,1.9746,2.0096,2.0322,2.0547,2.0802,2.0859,2.0859,2.0615,2.0263,2.0155,1.9815,1.9475,1.9243,1.8655,1.821,1.7809,1.6768,1.6212,1.2836,1.2975,1.305,1.2565,1.2467,1.237,1.2078,1.1975,1.198,1.198,1.198,1.198,1.198,1.198,1.1975,1.2078,1.2273,1.2565,1.2764,1.2953,1.343,1.4185,1.4325,1.4536,1.5107,1.5875,1.6342,1.6342,1.6665,1.7094,1.7569,1.7582,1.7582,1.7582,1.7582,1.7582,1.7582,1.7582,1.7582,1.7589,1.7896,1.8056,1.809,1.8657,1.8885,1.8957,1.9212,1.9366,1.9366,1.9366,1.9366,1.9366,1.9366,1.9366,1.9366,1.9366,1.9366,1.9366,1.9366,1.9243,1.8874,1.8874,1.8765,1.8421,1.8421,1.8421,1.8421,1.8421,1.8421,1.8421,1.844,1.844,1.8557,1.892,1.892,1.9043,1.9412,1.9399,1.9392,1.9392,1.9379,1.9372,1.9386,1.9392,1.9486,1.9766,1.9848,1.9685,1.9419,1.9412,1.9412,1.9412,1.9659,1.982,1.982,2.0176,2.0294,2.0294,2.0371,2.0312,2.0298,1.9952,1.9829,1.9815,1.9591,1.9243,1.8874,1.8532,1.8064,1.7479,1.6773,1.6307,1.3233,1.3397,1.3346,1.2953,1.2953,1.2856,1.237,1.2273,1.2273,1.2078,1.198,1.198,1.198,1.2175,1.237,1.2565,1.2759,1.305,1.3249,1.3346,1.3631,1.4185,1.4483,1.4904,1.5585,1.626,1.6733,1.6957,1.7265,1.7508,1.7575,1.7582,1.7582,1.7582,1.7582,1.7582,1.7582,1.7582,1.7582,1.7589,1.7896,1.8163,1.8384,1.8691,1.9085,1.9225,1.9325,1.9366,1.9366,1.9366,1.9366,1.9366,1.9366,1.9366,1.9366,1.9366,1.9366,1.9366,1.9366,1.9366,1.9243,1.9243,1.9243,1.9133,1.9133,1.9133,1.9133,1.9133,1.9133,1.9179,1.9391,1.945,1.9503,1.9834,1.9887,1.9887,2.0013,1.9846,1.9686,1.9686,1.9512,1.9432,1.9653,1.9686,1.9746,2.0026,2.0094,2.0046,2.0027,2.0013,2.0013,2.0013,2.008,2.012,2.012,2.0361,2.0595,2.0595,2.0886,2.0851,2.062,2.0261,2.0048,1.9815,1.9591,1.9243,1.8874,1.8532,1.8064,1.7479,1.6773,1.6307,1.3593,1.3642,1.3636,1.3346,1.3249,1.3249,1.2953,1.2856,1.2856,1.2662,1.2662,1.2662,1.2662,1.2759,1.2958,1.3055,1.3249,1.3346,1.3642,1.3732,1.4054,1.473,1.5105,1.5456,1.6156,1.6647,1.6955,1.7179,1.7483,1.7582,1.7582,1.7582,1.7582,1.7582,1.7582,1.7582,1.7582,1.7582,1.7649,1.7789,1.8096,1.8397,1.8691,1.8931,1.9165,1.9366,1.9366,1.9366,1.9366,1.9366,1.9366,1.9366,1.9366,1.9366,1.9366,1.9366,1.9366,1.9366,1.9366,1.9366,1.9366,1.9366,1.9366,1.9366,1.9366,1.9366,1.9392,1.9519,1.9559,1.9626,1.9913,1.9993,2.0034,2.0194,2.0234,2.0234,2.0234,2.0107,1.9993,1.9993,1.986,1.98,1.996,1.9993,2.0047,2.0322,2.0388,2.0418,2.0608,2.0332,2.0192,2.0241,2.0347,2.0428,2.0428,2.055,2.0666,2.0666,2.0787,2.0636,2.0465,2.0339,2.0084,1.9787,1.967,1.9252,1.8648,1.8532,1.7948,1.7009,1.6655,1.6183,1.3939,1.4004,1.3931,1.3636,1.3539,1.3539,1.3539,1.3539,1.3539,1.3539,1.3539,1.3539,1.3539,1.3539,1.3539,1.3636,1.3636,1.3732,1.4027,1.431,1.4692,1.5431,1.5802,1.6126,1.6679,1.706,1.7173,1.7279,1.7483,1.7582,1.7582,1.7582,1.7582,1.7582,1.7582,1.7582,1.7582,1.7582,1.7736,1.805,1.835,1.8644,1.8931,1.9232,1.9366,1.9366,1.9366,1.9366,1.9366,1.9366,1.9366,1.9366,1.9366,1.9366,1.9366,1.9366,1.9366,1.9366,1.9366,1.9366,1.9366,1.9366,1.9366,1.9366,1.9366,1.9392,1.9472,1.9726,1.9826,1.992,2.0214,2.0294,2.0301,2.0341,2.0347,2.0347,2.0347,2.0314,2.0281,2.0241,2.0234,2.0241,2.0287,2.0294,2.0368,2.0711,2.0745,2.0866,2.1069,2.067,2.0268,2.0368,2.0581,2.0735,2.0735,2.0735,2.0735,2.0735,2.0488,2.0334,2.0294,2.0294,2.0154,1.986,1.982,1.9319,1.8478,1.8434,1.7713,1.6537,1.6537,1.5941,1.4458,1.452,1.4502,1.4208,1.4022,1.3738,1.3539,1.3539,1.3539,1.3539,1.3539,1.3539,1.3539,1.3539,1.3636,1.4106,1.4202,1.4304,1.4796,1.4892,1.519,1.5739,1.591,1.6228,1.7015,1.7179,1.7279,1.7477,1.7582,1.7582,1.7582,1.7582,1.7582,1.7582,1.7582,1.7582,1.7582,1.7582,1.7736,1.805,1.835,1.8644,1.8931,1.9232,1.9366,1.9366,1.9366,1.9366,1.9366,1.9366,1.9366,1.9366,1.9366,1.9366,1.9366,1.9366,1.9366,1.9366,1.9366,1.9366,1.9366,1.9366,1.9366,1.9366,1.9366,1.9533,1.9733,1.9786,1.9973,2.0227,2.0521,2.0601,2.0661,2.0902,2.0955,2.0955,2.0955,2.0768,2.0528,2.0281,2.0234,2.0307,2.0561,2.0601,2.0695,2.0969,2.1009,2.1036,2.1102,2.1049,2.0989,2.0955,2.1002,2.1036,2.1036,2.1036,2.1036,2.1036,2.0989,2.0848,2.0608,2.0601,2.0461,2.0167,1.992,1.9417,1.8765,1.8536,1.7713,1.6537,1.6537,1.5941,1.4273,1.4558,1.4578,1.4477,1.4493,1.4412,1.4214,0.0,0.0,1.3919,1.3919,1.3919,1.3919,1.4016,0.0,1.4496,1.4592,1.479,1.5083,1.5172,1.5422,1.5834,1.6114,1.6577,1.7114,1.7292,1.7483,1.7582,1.7582,1.7582,1.7582,1.7582,1.7582,1.7582,1.7582,1.7582,1.7582,1.7582,1.7816,1.8277,1.8424,1.8724,1.9158,1.9299,1.9366,1.9366,1.9366,1.9366,1.9366,1.9366,1.9366,1.9366,1.9366,1.9366,1.9366,1.9366,1.9366,1.9366,1.9366,1.9366,1.9366,1.9366,1.9366,1.9399,1.9546,1.9686,1.986,2.0167,2.0354,2.0535,2.0828,2.0902,2.0935,2.1076,2.1109,2.1109,2.1109,2.1002,2.0862,2.0715,2.0688,2.0735,2.0875,2.0902,2.0949,2.1089,2.1109,2.1109,2.1109,2.1109,2.1109,2.1109,2.1109,2.1109,2.1109,2.1109,2.1109,2.1109,2.1109,2.1049,2.0909,2.0902,2.0768,2.0468,2.0206,1.9624,1.8841,1.8345,1.7612,1.6537,1.6307,1.5715,1.4276,1.454,1.466,1.466,1.4871,1.4988,1.4696,1.4746,1.4688,1.4496,1.4496,1.4496,1.4496,0.0,1.479,0.0,1.5077,1.5172,1.5274,1.5452,1.5652,1.5934,1.6427,1.6928,1.7224,1.7624,1.7793,1.7793,1.7793,1.7687,1.7582,1.7582,1.7582,1.7582,1.7582,1.7582,1.7582,1.7582,1.7889,1.849,1.849,1.8798,1.9366,1.9366,1.9366,1.9366,1.9366,1.9366,1.9366,1.9366,1.9366,1.9366,1.9366,1.9366,1.9366,1.9366,1.9366,1.9366,1.9366,1.9406,1.9459,1.9459,1.9459,1.9506,1.9733,1.9887,2.0087,2.0548,2.0722,2.0822,2.1049,2.1109,2.1109,2.1109,2.1109,2.1109,2.1109,2.1109,2.1109,2.1109,2.1109,2.1109,2.0982,2.0982,2.0976,2.0963,2.0836,2.0843,2.0829,2.0843,2.0843,2.0843,2.0976,2.1109,2.1109,2.1109,2.1109,2.1109,2.1109,2.1109,2.1109,2.1109,2.1002,2.065,2.0335,1.9834,1.8898,1.8233,1.7493,1.6703,1.6356,1.5638,1.4737,1.4865,1.4907,1.4907,1.4937,1.4961,1.4695,0.0,1.5083,1.4987,1.4987,1.4987,1.4987,1.5083,0.0,0.0,0.0,1.5547,1.5737,1.5737,1.5843,1.6233,1.6738,1.7244,1.7545,1.8047,1.8318,1.8318,1.8318,1.8108,1.7582,1.7582,1.7582,1.7582,1.7582,1.7582,1.7582,1.7582,1.7889,1.849,1.849,1.8798,1.9366,1.9366,1.9366,1.9366,1.9366,1.9366,1.9366,1.9366,1.9366,1.9366,1.9366,1.9366,1.9366,1.9366,1.9366,1.9366,1.9366,1.9539,1.976,1.976,1.976,1.9766,1.9793,2.0174,2.0608,2.0661,2.0869,2.1076,2.1102,2.1109,2.1109,2.1109,2.1109,2.1109,2.1109,2.1109,2.1109,2.1109,2.1109,2.0982,2.0736,2.0609,2.0583,2.0258,2.015,2.0163,2.0125,2.0157,2.0176,2.0176,2.0709,2.1109,2.1109,2.1109,2.1109,2.1109,2.1109,2.1109,2.1109,2.1109,2.0969,2.0569,2.0315,1.9904,1.9225,1.8483,1.7871,1.7234,1.6618,1.5871,1.459,1.4809,1.5034,1.5034,1.5089,1.513,1.4858,0.0,1.501,1.4829,1.4962,1.5083,1.5083,1.5267,1.5356,0.0,0.0,0.0,1.5825,1.5933,1.6075,1.619,1.6752,1.7154,1.7465,1.7872,1.8226,1.8408,1.8422,1.8318,1.8108,1.7905,1.7799,1.7582,1.7582,1.7582,1.7582,1.7582,1.7889,1.849,1.849,1.8798,1.9366,1.9366,1.9495,1.9625,1.9584,1.9591,1.9625,1.9597,1.9597,1.9366,1.9366,1.9366,1.9366,1.9366,1.9366,1.9392,1.9566,1.97,1.9826,2.0,2.018,2.0327,2.0327,2.0488,2.0715,2.0889,2.1022,2.1109,2.1109,2.1109,2.1109,2.1109,2.1109,2.1109,2.1109,2.0982,2.0862,2.0862,2.0609,2.0488,2.0361,2.0361,2.0227,2.0081,2.0055,2.0049,2.0055,2.0075,2.0081,2.0081,2.0348,2.0482,2.0482,2.0482,2.0482,2.0482,2.0482,2.0482,2.0482,2.0482,2.0488,2.0361,1.9992,1.9594,1.9175,1.8322,1.77,1.7302,1.6436,1.5805,1.4398,1.4725,1.5063,1.5155,1.5308,1.5273,1.5007,0.0,1.4989,1.4812,1.4952,1.5145,1.5145,1.5393,1.5635,0.0,0.0,1.5832,1.5832,1.6028,1.6224,1.6224,1.6766,1.7267,1.7577,1.8174,1.8604,1.8923,1.884,1.8736,1.8639,1.8325,1.801,1.7694,1.7687,1.7582,1.7582,1.7582,1.7889,1.849,1.849,1.8798,1.9366,1.9366,1.9495,1.9631,1.97,1.9693,1.9707,1.9707,1.9591,1.9366,1.9366,1.9366,1.9366,1.9366,1.9419,1.9526,1.9726,1.9913,2.0094,2.0301,2.0561,2.0802,2.0802,2.0802,2.0848,2.1049,2.1109,2.1109,2.1109,2.1109,2.1109,2.1109,2.1109,2.1109,2.0982,2.0736,2.0609,2.0482,2.0234,2.0106,1.9979,1.9973,1.9979,1.987,1.9833,1.9814,1.9845,1.9851,1.9851,1.9851,1.9851,1.9851,2.0113,2.0113,2.0106,2.0106,2.0106,2.0106,2.0106,2.0106,2.0106,1.9973,1.9711,1.9357,1.9047,1.8162,1.7691,1.7275,1.6386,1.563,1.4482,1.4741,1.4748,1.5006,1.5326,1.5389,0.0,0.0,1.5239,1.506,1.5204,1.5404,1.5404,1.5638,1.5832,1.5832,1.5832,0.0,1.5832,1.6028,1.6224,1.6224,1.6868,1.7573,1.7888,1.8986,1.9776,2.0078,1.9879,1.9576,1.9279,1.8743,1.8318,1.8016,1.7694,1.7582,1.7582,1.7582,1.7889,1.849,1.849,1.8798,1.9366,1.9366,1.9366,1.9366,1.9366,1.9435,1.9361,1.9448,1.9366,1.9366,1.9366,1.9366,1.9366,1.9366,1.9546,1.98,1.98,2.018,2.0668,2.0668,2.0869,2.1109,2.1109,2.1109,2.1109,2.1109,2.1109,2.1109,2.1109,2.1109,2.1109,2.1109,2.1109,2.0982,2.0736,2.0609,2.0482,2.0234,2.0106,1.9973,1.9705,1.9577,1.945,1.9206,1.9078,1.9078,1.9078,1.9078,1.9078,1.9078,1.9078,1.934,2.001,2.0119,2.0106,2.0106,2.0106,2.0106,2.0106,2.0106,1.9973,1.9577,1.9577,1.9328,1.8571,1.8168,1.7776,1.7523,1.6483,1.5574,1.425,1.458,1.4999,1.509,1.4993,1.4881,1.4803,0.0,1.4751,1.4663,1.4897,1.5104,1.5104,1.5177,1.5237,1.5237,1.5404,1.5624,1.5731,1.6181,1.6501,1.6697,1.7449,1.8052,1.8361,1.9197,1.9747,2.0071,1.9879,1.968,1.9576,1.9063,1.8541,1.8016,1.7694,1.7582,1.7582,1.7582,1.7889,1.849,1.849,1.8798,1.9366,1.9366,1.9495,1.9631,1.9713,1.9707,1.9707,1.9707,1.9591,1.9366,1.9366,1.9366,1.9366,1.9366,1.9553,1.9826,2.0027,2.0347,2.0708,2.0909,2.1036,2.1109,2.1109,2.1109,2.1109,2.1109,2.1109,2.1109,2.1109,2.1109,2.0982,2.0856,2.0736,2.0609,2.0361,2.0094,1.9839,1.9839,1.9584,1.9334,1.9328,1.92,1.92,1.9072,1.9078,1.9078,1.9078,1.9078,1.9078,1.9078,1.9078,1.9206,1.934,1.9468,1.9462,1.9462,1.9462,1.9462,1.9462,1.9462,1.9334,1.92,1.9078,1.8828,1.8571,1.7922,1.7271,1.6494,1.5849,1.5197,0.0,1.4334,1.4755,1.4915,1.4824,0.0,0.0,0.0,0.0,0.0,0.0,0.0,1.4796,1.489,1.4963,1.4963,1.5117,1.5329,1.5518,1.604,1.6649,1.7052,1.7728,1.8297,1.8581,1.9323,1.9884,2.0186,2.012,1.999,1.9879,1.9376,1.8869,1.8338,1.7911,1.7687,1.7582,1.7582,1.7889,1.849,1.849,1.8798,1.9366,1.9366,1.9495,1.9631,1.9597,1.9604,0.0,1.9597,1.9591,1.9366,1.9366,1.9366,1.9379,1.9492,1.9713,2.0007,2.0301,2.0595,2.0869,2.1049,2.1109,2.1109,2.0982,2.0982,2.1109,2.0982,2.0862,2.0862,2.0736,2.0736,2.0609,2.0488,2.0361,2.0361,1.9973,1.9711,1.9577,1.9456,1.92,1.9078,1.9078,1.9078,1.9078,1.9078,1.9078,1.9078,1.9078,1.9078,1.9078,1.9078,1.9078,1.9078,1.9078,1.9078,1.9078,1.9078,1.9078,1.9078,1.9078,1.895,1.895,1.895,1.8565,1.8308,1.8179,1.7405,1.6753,1.5969,1.5724,1.5066,0.0,1.3776,1.4132,1.4538,1.4636,1.4566,0.0,0.0,0.0,0.0,0.0,0.0,0.0,1.4716,1.4903,1.4903,1.4917,1.493,1.5019,1.5742,1.6515,1.7166,1.7786,1.8288,1.859,1.9458,2.0045,2.0392,2.0397,2.0388,2.0078,1.9576,1.9175,1.8876,1.8338,1.7911,1.7582,1.7582,1.7876,1.8464,1.8477,1.8784,1.9339,1.9359,1.9366,1.9366,1.9366,1.9366,1.9366,1.9366,1.9366,1.9366,1.9366,1.9366,1.9406,1.9693,1.9987,2.0274,2.0575,2.0869,2.1109,2.1109,2.1109,2.0982,2.0609,2.0862,2.0982,2.0609,2.0609,2.0482,2.0234,2.0106,2.0106,2.0106,2.0106,1.9979,1.9577,1.9577,1.945,1.9206,1.9078,1.9078,1.9078,1.9078,1.9078,1.9078,1.9078,1.9078,1.9078,1.9078,1.9078,1.9078,1.9078,1.9072,1.9072,1.9078,1.9072,1.9078,1.9072,1.9078,1.9072,1.8693,1.8571,1.8571,1.8173,1.7781,1.7405,1.6758,1.6234,1.5974,1.5593,1.5066,1.1246,0.0,1.3309,1.3569,1.3908,1.425,0.0,0.0,0.0,0.0,0.0,0.0,0.0,0.0,1.4025,1.4025,1.4389,1.471,1.4872,1.5784,1.6528,1.6692,1.736,1.8033,1.8567,1.9024,1.9521,2.0353,2.0078,1.9936,2.0071,1.9576,1.9175,1.8876,1.8764,1.8443,1.7911,1.7687,1.7769,1.8156,1.8384,1.8677,1.9038,1.9265,1.9366,1.9366,1.9366,1.9366,1.9366,1.9366,1.9366,1.9366,1.9366,1.9366,1.9406,1.9693,1.9987,2.0274,2.0575,2.0869,2.1109,2.0862,2.0736,2.0609,2.0361,2.0482,2.0609,2.0361,2.0234,2.0234,2.0106,2.0106,1.9979,1.9839,1.9711,1.9584,1.9328,1.92,1.92,1.9072,1.9078,1.9078,1.9078,1.9078,1.9078,1.9078,1.9078,1.9078,1.9078,1.9078,1.9078,1.9078,1.8822,1.8699,1.8699,1.895,1.895,1.8699,1.8699,1.8565,1.8296,1.8168,1.8168,1.8168,1.7787,1.7271,1.6758,1.6364,1.5979,1.5593,1.4936,1.4408,0.9823,1.1101,1.2363,1.2706,1.3072,1.3309,0.0,0.0,0.0,0.0,0.0,0.0,0.0,0.0,0.0,1.3568,1.3867,1.4276,1.4829,1.5527,1.6063,1.6303,1.7057,1.7594,1.7961,1.8499,1.9024,1.9493,1.9629,1.958,1.9638,1.9598,1.9376,1.9071,1.8974,1.866,1.8016,1.7911,1.7849,1.805,1.835,1.8644,1.8931,1.9232,1.9366,1.9366,1.9366,1.9366,1.9366,1.9366,1.9366,1.9366,1.9366,1.9366,1.9419,1.9846,2.01,2.0294,2.0604,2.0604,2.0609,2.0482,2.0354,2.0354,1.9973,1.9973,2.0094,1.9973,1.9845,1.9845,1.9717,1.959,1.959,1.9456,1.9322,1.9328,1.92,1.9078,1.9078,1.9078,1.9078,1.9078,1.9078,1.9078,1.9078,1.9078,1.9078,1.9078,1.9078,1.895,1.8822,1.8822,1.8565,1.8308,1.8308,1.8431,1.8553,1.8291,1.8308,1.8185,1.8045,1.7787,1.7653,1.7518,1.7271,1.6888,1.6499,1.5979,1.5588,1.5202,1.467,1.4146,0.8775,0.9891,1.1158,1.1854,1.2141,1.2394,0.0,0.0,0.0,0.0,0.0,0.0,0.0,1.3281,0.0,1.3313,1.3483,1.39,1.4575,1.4953,1.5342,1.593,1.66,1.7088,1.7232,1.7968,1.8441,1.8487,1.9026,1.929,1.9171,1.9353,1.9428,1.9272,1.8966,1.8548,1.8016,1.8016,1.8047,1.7983,1.8277,1.8577,1.8865,1.9152,1.9312,1.9366,1.9366,1.9366,1.9366,1.9366,1.9366,1.9366,1.9366,1.9366,1.9432,1.99,2.0113,2.007,2.0407,2.0354,2.0106,1.9979,1.9979,1.9973,1.9584,1.9577,1.9577,1.9577,1.9577,1.945,1.92,1.9078,1.9078,1.9078,1.9078,1.9078,1.9078,1.9078,1.9078,1.9078,1.9078,1.9078,1.9078,1.9078,1.9078,1.9078,1.9078,1.9078,1.9078,1.8828,1.8571,1.8571,1.8173,1.7922,1.7961,1.7967,1.7838,1.7838,1.7944,1.7927,1.7804,1.754,1.7141,1.6872,1.6623,1.6369,1.6374,1.5729,1.5332,1.48,1.4534,1.4015,0.8403,0.8827,0.9376,1.0584,1.1435,1.2018,0.0,0.0,0.0,0.0,0.0,0.0,0.0,1.2813,1.3137,1.3137,1.3307,1.3496,1.3619,1.405,1.4601,1.5087,1.5643,1.6295,1.6951,1.7211,1.753,1.817,1.8193,1.84,1.9149,1.884,1.8693,1.8966,1.8646,1.8325,1.8016,1.8016,1.8044,1.7986,1.8077,1.827,1.8564,1.8897,1.9172,1.9366,1.9366,1.9366,1.9366,1.9366,1.9366,1.9366,1.9366,1.9243,1.9069,1.9539,1.9626,1.9459,2.0035,2.0106,2.0106,1.9711,1.9705,1.9577,1.9328,1.92,1.92,1.92,1.92,1.92,1.9072,1.9078,1.9078,1.9078,1.9078,1.9078,1.9078,1.9078,1.9078,1.9078,1.9078,1.9078,1.9078,1.9078,1.9078,1.9078,1.9078,1.895,1.8699,1.8571,1.8437,1.8168,1.7787,1.7612,1.7949,1.7714,1.7489,1.7299,1.7418,1.726,1.6758,1.6629,1.6499,1.6099,1.6099,1.5979,1.5593,1.5598,1.5197,1.4408,1.4141,1.3752,0.8102,0.8403,0.8727,0.9673,1.0396,1.099,1.1292,0.0,0.0,0.0,0.0,0.0,0.0,0.0,1.2632,1.3033,1.3137,1.3307,1.3398,1.3726,1.4089,1.4558,1.5021,1.5597,1.6082,1.6393,1.6732,1.7056,1.733,1.7656,1.805,1.8095,1.8249,1.8391,1.845,1.8318,1.822,1.8122,1.7911,1.7799,1.7903,1.8203,1.8504,1.8785,1.9063,1.9366,1.9366,1.9249,1.914,1.9127,1.901,1.8894,1.8894,1.8771,1.8719,1.9292,1.935,1.9293,1.9701,1.9717,1.959,1.9328,1.9328,1.9328,1.92,1.9078,1.9078,1.9078,1.9078,1.9078,1.9078,1.9078,1.9078,1.9078,1.9078,1.9078,1.9078,1.9078,1.9078,1.9078,1.9078,1.9078,1.9078,1.9078,1.9078,1.9078,1.895,1.8828,1.8571,1.8314,1.7922,1.7781,1.7521,1.7385,1.7351,1.7358,1.7283,1.723,1.7102,1.6833,1.6379,1.6357,1.6231,1.5974,1.5849,1.5593,1.5468,1.5332,1.48,1.4141,1.401,1.3617,0.8025,0.8178,0.8479,0.9094,0.0,1.0046,1.0622,0.0,0.0,0.0,0.0,0.0,0.0,1.191,1.214,1.2766,1.2802,1.2887,1.3058,1.3238,1.3485,1.391,1.4324,1.4782,1.5216,1.5629,1.5906,1.6001,1.6416,1.678,1.6947,1.7292,1.7618,1.7661,1.7881,1.7928,1.7996,1.7799,1.7694,1.7694,1.7822,1.8103,1.843,1.8678,1.8975,1.9127,1.9256,1.914,1.8784,1.8771,1.8648,1.8421,1.8421,1.8342,1.8456,1.8879,1.9006,1.908,1.9283,1.9273,1.9078,1.895,1.895,1.895,1.8816,1.8816,1.8816,1.8816,1.8816,1.8944,1.9072,1.9078,1.9078,1.9078,1.9078,1.9078,1.9078,1.9078,1.9078,1.9078,1.9078,1.9078,1.9078,1.9078,1.895,1.895,1.8693,1.8437,1.8314,1.7843,1.7618,1.7488,1.7451,1.7214,1.6861,1.6943,1.702,1.7021,1.6788,1.6571,1.6297,1.617,1.61,1.5788,1.5487,1.5332,1.5332,1.4936,1.4534,1.3875,1.3879,1.349,0.8025,0.8102,0.8255,0.887,0.0,0.0,1.0165,1.0396,0.0,1.057,0.0,0.0,0.0,1.1695,1.202,1.2037,1.2037,1.2037,1.2123,1.2141,1.2418,1.3182,1.335,1.3743,1.4638,1.4783,1.4968,1.5432,1.5458,1.578,1.6357,1.6208,1.6281,1.6839,1.6549,1.6573,1.6836,1.6836,1.716,1.8016,1.7714,1.7822,1.8101,1.8333,1.8492,1.8512,1.8797,1.8803,1.8421,1.8421,1.8421,1.8421,1.8421,1.8345,1.8344,1.8135,1.8356,1.8686,1.8704,1.8873,1.9078,1.8699,1.8705,1.8571,1.8168,1.8033,1.8033,1.8033,1.8033,1.8296,1.8944,1.9078,1.9078,1.9078,1.9078,1.9078,1.9078,1.9078,1.9078,1.9078,1.9078,1.9078,1.9078,1.8822,1.8705,1.8705,1.8302,1.791,1.7658,1.7729,1.7736,1.7483,1.7299,1.712,1.7057,1.6847,1.6676,1.6787,1.6922,1.6768,1.6079,1.5953,1.5633,1.521,1.503,1.4931,1.4931,1.4539,1.4272,1.3875,1.3625,1.3235,0.8025,0.8102,0.8259,0.887,0.0,0.0,0.0,0.9992,1.0143,1.0293,1.0371,0.0,1.1049,1.1533,1.1871,1.1957,1.2043,1.2043,1.2043,1.2043,1.2169,1.269,1.2869,1.3193,1.3738,1.4011,1.4292,1.4478,1.458,1.4821,1.5023,1.5291,1.5562,1.5948,1.6228,1.645,1.673,1.673,1.6842,1.716,1.7047,1.7242,1.7476,1.7646,1.7857,1.8131,1.8323,1.8219,1.8194,1.8194,1.796,1.7491,1.7244,1.7185,1.7179,1.7212,1.7398,1.7591,1.776,1.7982,1.8197,1.807,1.8175,1.8173,1.8039,1.8033,1.8033,1.8033,1.8033,1.8033,1.8296,1.8425,1.8425,1.8425,1.8425,1.8425,1.8425,1.8425,1.8425,1.8425,1.8425,1.8425,1.8425,1.8302,1.8173,1.8173,1.7916,1.7714,1.774,1.7708,1.7564,1.7315,1.6994,1.6663,1.6742,1.6554,1.6457,1.6452,1.6525,1.638,1.6023,1.5958,1.5638,1.5238,1.5158,1.5059,1.4931,1.4539,1.4272,1.3875,1.3494,1.3104,0.8025,0.8178,0.8331,0.0,0.0,0.0,0.0,0.9544,0.9771,0.9916,0.9981,1.0153,1.0562,1.0966,1.1348,1.1591,1.1602,1.1602,1.1602,1.1602,1.1695,1.1938,1.2174,1.2503,1.2841,1.3278,1.3619,1.3619,1.3913,1.401,1.401,1.4376,1.4733,1.5077,1.5475,1.5842,1.6199,1.6205,1.6205,1.6205,1.6311,1.6536,1.7073,1.7151,1.736,1.7547,1.7817,1.7812,1.7732,1.7695,1.7379,1.6785,1.6537,1.6537,1.656,1.6726,1.684,1.6931,1.7114,1.7394,1.7674,1.7542,1.7712,1.7781,1.7781,1.7647,1.7647,1.7647,1.7647,1.7647,1.7647,1.7776,1.8033,1.8033,1.8033,1.8033,1.8033,1.8033,1.8033,1.8033,1.8033,1.8033,1.8033,1.791,1.7781,1.7781,1.7596,1.7582,1.7741,1.7502,1.7286,1.7107,1.6708,1.6578,1.6583,1.632,1.6183,1.6183,1.6183,1.6178,1.6028,1.5971,1.5725,1.5437,1.5231,1.51,1.4899,1.4367,1.4072,1.3752,1.3363,1.284,0.803,0.8255,0.8475,0.0,0.0,0.0,0.8946,0.9175,0.9322,0.9322,0.9498,0.98,0.9953,1.0171,1.0388,1.0692,1.0727,1.0727,1.0727,1.0727,1.0727,1.0954,1.1177,1.1487,1.2083,1.2518,1.2856,1.305,1.3346,1.3443,1.3443,1.3443,1.3768,1.4265,1.4282,1.4521,1.5035,1.5041,1.5041,1.5041,1.5369,1.5897,1.673,1.7086,1.7013,1.6775,1.7387,1.745,1.7111,1.7032,1.6779,1.6537,1.6537,1.6537,1.6537,1.6537,1.6691,1.6903,1.6903,1.724,1.7668,1.7284,1.7324,1.74,1.7136,1.7001,1.7001,1.7001,1.7001,1.7001,1.7001,1.7518,1.8033,1.8033,1.8033,1.8033,1.8033,1.8033,1.8033,1.8033,1.8033,1.8033,1.8033,1.7781,1.7535,1.7535,1.7484,1.7383,1.7383,1.7386,1.7338,1.671,1.6729,1.6593,1.6183,1.6183,1.6183,1.6183,1.6183,1.6183,1.6183,1.5975,1.5862,1.5857,1.5247,1.4914,1.4718,1.3906,1.3544,1.3371,1.2972,1.2572,0.7949,0.8178,0.0,0.8627,0.0,0.0,0.0,0.8941,0.0,0.0,0.9498,0.98,0.9953,1.0171,1.0388,1.0692,1.0727,1.0727,1.0727,1.0727,1.0753,1.0824,1.1076,1.1333,1.1492,1.1944,1.2273,1.237,1.237,1.2565,1.2759,1.2958,1.3276,1.3953,1.4174,1.4521,1.5035,1.5041,1.5041,1.5041,1.5148,1.5351,1.5861,1.6099,1.6342,1.6411,1.6767,1.6863,1.6754,1.6446,1.6318,1.62,1.5952,1.5833,1.5833,1.5833,1.5877,1.5937,1.5937,1.626,1.6664,1.6539,1.681,1.7136,1.7001,1.7001,1.7001,1.7001,1.7001,1.7001,1.7001,1.7136,1.726,1.726,1.726,1.726,1.726,1.726,1.726,1.726,1.726,1.726,1.726,1.726,1.7196,1.7375,1.7461,1.7363,1.7418,1.7164,1.6942,1.6725,1.6457,1.632,1.6183,1.6183,1.6183,1.6183,1.6183,1.6183,1.6183,1.6122,1.5878,1.5454,1.5256,1.4986,1.452,1.3972,1.3739,1.3557,1.2885,1.2422,0.7718,0.8025,0.0,0.8551,0.8627,0.8703,0.8703,0.0,0.0,0.0,0.9192,0.9375,0.9685,0.9848,1.0031,1.0331,1.0381,1.0381,1.0381,1.0381,1.0381,1.0381,1.0765,1.1032,1.1032,1.1522,1.1883,1.1883,1.198,1.2078,1.2273,1.237,1.2777,1.355,1.3771,1.4112,1.4719,1.4724,1.4724,1.4724,1.4826,1.4928,1.5137,1.5559,1.5885,1.6041,1.6339,1.6533,1.6553,1.625,1.5968,1.5844,1.572,1.5601,1.5601,1.5601,1.5601,1.5601,1.5601,1.5914,1.6312,1.6312,1.663,1.7001,1.7001,1.7136,1.7136,1.7136,1.7265,1.7389,1.7389,1.7265,1.7136,1.7001,1.7001,1.7001,1.7001,1.7001,1.7001,1.7001,1.7001,1.7001,1.7001,1.7001,1.7087,1.734,1.7401,1.7386,1.7477,1.6937,1.6593,1.6452,1.632,1.6183,1.6183,1.6183,1.6183,1.6183,1.6183,1.6183,1.6183,1.6183,1.5981,1.5434,1.5294,1.4915,1.4307,1.3892,1.3659,1.3477,1.293,1.2469,0.7407,0.0,0.0,0.8403,0.8551,0.0,0.8703,0.8703,0.8703,0.8703,0.8703,0.8826,0.9247,0.9322,0.946,0.9885,1.0038,1.0038,1.0038,1.0038,1.0038,1.0038,1.0319,1.0575,1.0575,1.1139,1.1585,1.1585,1.178,1.198,1.198,1.198,1.2282,1.3049,1.3064,1.3498,1.4186,1.4196,1.4196,1.4196,1.4396,1.4515,1.4548,1.5131,1.5452,1.5636,1.6022,1.6304,1.6537,1.62,1.5963,1.5601,1.5601,1.5601,1.5601,1.5601,1.5601,1.5601,1.5601,1.5914,1.6312,1.6312,1.663,1.7007,1.7007,1.7271,1.7535,1.7535,1.7781,1.8033,1.8033,1.7781,1.74,1.7136,1.7007,1.7001,1.7001,1.7001,1.7001,1.7001,1.7001,1.7001,1.7001,1.7001,1.7098,1.7367,1.7402,1.7498,1.7283,1.688,1.6593,1.6183,1.6183,1.6183,1.6183,1.6183,1.6183,1.6183,1.6183,1.6183,1.6183,1.6183,1.6037,1.5607,1.519,1.4677,1.4216,1.3805,1.3575,1.3396,1.298,1.2559,0.0,0.7484,0.0,0.0,0.8551,0.8703,0.8703,0.8703,0.8703,0.8703,0.8703,0.8826,0.9247,0.9322,0.946,0.9885,1.0038,1.0038,1.0038,1.0038,1.0038,1.0038,1.0319,1.0575,1.0575,1.1044,1.1292,1.1292,1.1296,1.1487,1.1683,1.1688,1.2083,1.3049,1.3064,1.3498,1.4186,1.4196,1.4196,1.4196,1.4299,1.4299,1.431,1.4826,1.5464,1.6186,1.6186,1.6418,1.6903,1.6318,1.6087,1.5963,1.572,1.5601,1.5601,1.5601,1.5601,1.5601,1.5601,1.5914,1.6312,1.6312,1.663,1.7007,1.7271,1.74,1.7529,1.7781,1.7905,1.8033,1.8033,1.7905,1.7781,1.7529,1.7136,1.7001,1.7001,1.7001,1.7001,1.7001,1.7001,1.7001,1.7001,1.7001,1.7152,1.7583,1.7501,1.7393,1.7303,1.6744,1.632,1.6183,1.6183,1.6183,1.6183,1.6183,1.6183,1.6183,1.6183,1.6183,1.6183,1.6183,1.59,1.519,1.5048,1.46,1.3985,1.3847,1.3758,1.3583,1.2882,1.253,0.0,0.0,0.0,0.825,0.0,0.8551,0.8703,0.8703,0.8703,0.8703,0.8703,0.8826,0.9247,0.9322,0.946,0.9885,1.0038,1.0038,1.0038,1.0038,1.0038,1.0038,1.0319,1.0575,1.0575,1.0953,1.1194,1.1194,1.1292,1.1487,1.1585,1.1683,1.2183,1.3049,1.3064,1.3498,1.4186,1.4196,1.4196,1.4196,1.4196,1.431,1.4434,1.4954,1.5637,1.6251,1.6368,1.665,1.6903,1.6431,1.62,1.6087,1.5963,1.572,1.5601,1.5601,1.5601,1.5601,1.5601,1.5914,1.6312,1.6312,1.663,1.7007,1.74,1.7658,1.7787,1.8173,1.8431,1.8553,1.8553,1.8431,1.8173,1.805,1.7658,1.7136,1.7001,1.7001,1.7001,1.7001,1.7001,1.7001,1.7001,1.7195,1.7432,1.768,1.7436,1.7308,1.7298,1.6603,1.6183,1.6183,1.6183,1.6183,1.6183,1.6183,1.6183,1.6183,1.6183,1.6183,1.6183,1.6037,1.5612,1.5052,1.5048,1.4621,1.39,1.39,1.3855,1.3766,1.3055,1.2581,0.0,0.0,0.7411,0.8097,0.8327,0.0,0.8627,0.8703,0.8703,0.878,0.8703,0.8826,0.9247,0.9322,0.946,0.9885,1.0038,1.0038,1.0038,1.0038,1.0038,1.0038,1.0319,1.0575,1.0662,1.1048,1.1292,1.1292,1.1585,1.1683,1.1683,1.1883,1.2386,1.3049,1.3064,1.3498,1.4186,1.4196,1.4196,1.4196,1.4299,1.4423,1.4678,1.5238,1.5806,1.6298,1.6521,1.689,1.702,1.6779,1.6431,1.6205,1.62,1.5957,1.572,1.572,1.5601,1.5607,1.5645,1.5946,1.6323,1.6361,1.6662,1.7007,1.74,1.7787,1.8039,1.8442,1.8822,1.9078,1.9078,1.895,1.8699,1.8571,1.8185,1.7529,1.7136,1.7007,1.7001,1.7001,1.7001,1.7001,1.7001,1.7367,1.7663,1.768,1.7511,1.7388,1.7283,1.6739,1.633,1.6183,1.6183,1.6183,1.6183,1.6183,1.6183,1.6183,1.6183,1.6183,1.6183,1.5749,1.5465,1.5052,1.4906,1.4621,1.39,1.39,1.39,1.39,1.3182,1.2753,0.0,0.0,0.7484,0.0,0.8021,0.8403,0.0,0.8551,0.878,0.8941,0.8784,0.8826,0.9247,0.9322,0.946,0.9885,1.0038,1.0038,1.0038,1.0038,1.0038,1.0038,1.0319,1.0667,1.0944,1.1336,1.1683,1.1883,1.1883,1.198,1.198,1.1975,1.2386,1.3049,1.3064,1.3498,1.4186,1.4196,1.4196,1.4196,1.4396,1.4741,1.4922,1.581,1.6205,1.636,1.6815,1.7237,1.7367,1.702,1.6903,1.6908,1.6543,1.6312,1.6081,1.6081,1.5844,1.5628,1.5833,1.6081,1.6344,1.6549,1.6791,1.7007,1.74,1.7787,1.8039,1.8442,1.8822,1.9078,1.9078,1.9078,1.895,1.8699,1.8571,1.8314,1.7529,1.7265,1.7001,1.7001,1.7001,1.7001,1.7001,1.7238,1.7448,1.7657,1.7548,1.7436,1.7273,1.69,1.6486,1.6183,1.6183,1.6183,1.6183,1.6183,1.6183,1.6183,1.6183,1.6183,1.6183,1.5749,1.5465,1.5052,1.4763,1.4332,1.39,1.39,1.39,1.39,1.3182,1.2753,0.555,0.6402,0.7099,0.0,0.7868,0.8255,0.8403,0.8632,0.8865,0.8946,0.911,0.9365,0.9604,0.9658,0.9883,1.0312,1.0299,1.0207,1.0207,1.0207,1.0207,1.0207,1.0675,1.1032,1.1124,1.1527,1.1878,1.198,1.2175,1.2175,1.2175,1.249,1.2815,1.3265,1.3392,1.383,1.4396,1.4396,1.4509,1.4617,1.4724,1.5075,1.557,1.6081,1.6392,1.6533,1.7098,1.7376,1.7479,1.7367,1.7138,1.702,1.6785,1.6543,1.6312,1.62,1.5963,1.5877,1.5991,1.6108,1.635,1.6587,1.6818,1.713,1.7653,1.791,1.8168,1.8693,1.895,1.9078,1.9078,1.9078,1.9072,1.895,1.8699,1.8571,1.8185,1.7658,1.7271,1.7007,1.7001,1.7001,1.7001,1.7234,1.7462,1.75,1.737,1.7256,1.7248,1.688,1.6481,1.633,1.6183,1.6183,1.6183,1.6183,1.6183,1.6183,1.6183,1.6042,1.5891,1.547,1.5044,1.4763,1.4621,1.4332,1.39,1.39,1.39,1.39,1.3325,1.3039,0.0,0.0,0.6641,0.7176,0.7638,0.8025,0.0,0.8637,0.8946,0.9022,0.9498,0.9953,1.0196,1.0121,1.0201,1.0666,1.0554,1.0381,1.0381,1.0381,1.04,1.046,1.098,1.1328,1.1487,1.1844,1.2175,1.2273,1.2467,1.2565,1.2662,1.3078,1.3418,1.3669,1.3909,1.4256,1.4713,1.4713,1.4821,1.5041,1.5166,1.5523,1.6,1.636,1.6619,1.6898,1.7376,1.7485,1.7485,1.7485,1.7367,1.7138,1.7138,1.6897,1.6543,1.6436,1.6318,1.6244,1.6178,1.6279,1.6485,1.6657,1.6995,1.7265,1.7781,1.8039,1.8296,1.8822,1.9078,1.9078,1.9078,1.9078,1.9078,1.9078,1.895,1.8699,1.8442,1.7922,1.74,1.7007,1.7001,1.7001,1.7001,1.7147,1.7287,1.7422,1.7325,1.7189,1.7184,1.6917,1.6501,1.632,1.633,1.6183,1.6178,1.6178,1.6183,1.6183,1.6042,1.5895,1.5607,1.5186,1.4763,1.4479,1.4336,1.4189,1.39,1.39,1.39,1.39,1.3468,1.3182,0.0,0.5631,0.0,0.6563,0.7099,0.7638,0.8025,0.8403,0.8856,0.917,0.9802,1.0426,1.0836,1.0568,1.0373,1.0692,1.0727,1.0641,1.0641,1.0641,1.0722,1.0944,1.1167,1.1487,1.2,1.2234,1.2565,1.305,1.305,1.3147,1.3443,1.3675,1.4025,1.427,1.4539,1.4796,1.4928,1.4934,1.5035,1.5041,1.5606,1.597,1.6353,1.6845,1.7224,1.7461,1.7473,1.7485,1.7485,1.7485,1.7479,1.7485,1.7485,1.725,1.7026,1.6903,1.6785,1.6487,1.673,1.6786,1.675,1.6968,1.726,1.7529,1.7529,1.805,1.8571,1.8571,1.8822,1.9078,1.9078,1.9078,1.9078,1.9078,1.9078,1.8822,1.7793,1.7535,1.74,1.7007,1.7001,1.7001,1.7001,1.7007,1.7141,1.7422,1.7331,1.7358,1.7217,1.7235,1.6864,1.6136,1.633,1.633,1.5886,1.6032,1.6183,1.6183,1.5891,1.5607,1.5607,1.4901,1.4479,1.4479,1.4189,1.39,1.39,1.39,1.39,1.39,1.3468,1.3325,0.0,0.0,0.0,0.6335,0.6872,0.7411,0.7791,0.8394,0.9003,0.9246,1.0078,1.0776,1.0945,1.1073,1.1231,1.1477,1.1424,1.1332,1.1332,1.1332,1.1424,1.1671,1.1994,1.2417,1.2758,1.3008,1.3152,1.3346,1.3346,1.3443,1.3443,1.3928,1.4185,1.4276,1.4693,1.5062,1.5369,1.547,1.5571,1.5571,1.5797,1.6103,1.6557,1.6745,1.703,1.7485,1.7485,1.7485,1.7485,1.7485,1.7485,1.7485,1.7485,1.7485,1.725,1.702,1.7008,1.7074,1.7054,1.7275,1.7462,1.7541,1.7781,1.791,1.8179,1.8442,1.8699,1.8828,1.895,1.9078,1.9078,1.9078,1.9078,1.9078,1.9078,1.895,1.8308,1.7787,1.7512,1.7383,1.713,1.7001,1.7001,1.7001,1.7007,1.7141,1.7141,1.7141,1.7141,1.6949,1.6881,1.6584,1.6407,1.6183,1.6053,1.5909,1.5923,1.5971,1.57,1.5339,1.5181,1.4763,1.4332,1.4189,1.3904,1.39,1.39,1.39,1.39,1.39,1.3757,1.3615,0.4693,0.0,0.0,0.0,0.649,0.7026,0.7484,0.8169,0.878,0.9165,1.0147,1.0961,1.1042,1.1552,1.1916,1.2015,1.186,1.1768,1.1768,1.1835,1.2074,1.2327,1.2666,1.3003,1.3259,1.3437,1.3539,1.3642,1.3642,1.3636,1.3727,1.4407,1.4867,1.5142,1.5388,1.5678,1.5897,1.6105,1.6205,1.6205,1.6236,1.6439,1.6796,1.6992,1.7372,1.7701,1.7707,1.7713,1.7485,1.7485,1.7485,1.7485,1.7485,1.7485,1.7485,1.7256,1.7298,1.7558,1.7457,1.7587,1.7834,1.7953,1.8039,1.8302,1.8571,1.8699,1.8822,1.9078,1.9078,1.9078,1.9078,1.9078,1.9078,1.9078,1.9078,1.9078,1.8822,1.8302,1.7776,1.7523,1.7271,1.7141,1.7007,1.7001,1.7001,1.7001,1.7001,1.7001,1.7001,1.6933,1.6838,1.6665,1.6491,1.6226,1.5957,1.5928,1.5786,1.5834,1.5326,1.4992,1.4846,1.4429,1.4007,1.3725,1.3721,1.3721,1.3721,1.3843,1.39,1.39,1.39,1.3725,0.0,0.0,0.0,0.5479,0.5948,0.6416,0.7026,0.7642,0.8255,0.8851,0.9901,1.0794,1.1203,1.185,1.2272,1.2037,1.2043,1.2043,1.2043,1.2254,1.2506,1.2842,1.3095,1.3348,1.3516,1.3539,1.3642,1.3931,1.3931,1.4022,1.4298,1.5097,1.5844,1.6711,1.673,1.673,1.673,1.673,1.673,1.673,1.6925,1.7077,1.7109,1.7704,1.794,1.8027,1.8254,1.804,1.7485,1.7485,1.7485,1.7485,1.7485,1.7485,1.7485,1.7485,1.7648,1.7913,1.7818,1.7948,1.8207,1.8081,1.8302,1.8571,1.8571,1.8822,1.9078,1.9078,1.9078,1.9078,1.9078,1.9078,1.9078,1.9078,1.9078,1.9078,1.9078,1.8822,1.8448,1.7686,1.7557,1.7422,1.7007,1.7007,1.7001,1.7001,1.7001,1.7001,1.7001,1.7001,1.6866,1.6581,1.6614,1.6476,1.5895,1.5967,1.5918,1.563,1.4928,1.4446,1.4455,1.3779,1.3372,1.3372,1.3372,1.3372,1.3372,1.3717,1.3888,1.3888,1.3888,1.3653,0.4233,0.0,0.0,0.0,0.0,0.0,0.6563,0.7253,0.7868,0.8475,0.9311,1.0195,1.0767,1.1299,1.1815,1.2254,1.2454,1.254,1.254,1.2772,1.3046,1.358,1.3841,1.4202,1.4573,1.47,1.47,1.4796,1.4796,1.479,1.4885,1.5505,1.6055,1.6711,1.673,1.673,1.673,1.673,1.673,1.673,1.6755,1.6887,1.7125,1.7238,1.7556,1.7946,1.8091,1.8161,1.8181,1.8181,1.8181,1.8181,1.8181,1.8181,1.8188,1.796,1.8015,1.8286,1.8197,1.8333,1.8596,1.8732,1.8816,1.895,1.895,1.9078,1.9078,1.9078,1.9078,1.9078,1.9078,1.9078,1.9078,1.9078,1.9078,1.9078,1.9078,1.9078,1.8816,1.8413,1.7922,1.7422,1.7383,1.713,1.7001,1.7001,1.7001,1.7001,1.7001,1.7001,1.7001,1.6866,1.6713,1.6393,1.6009,1.5746,1.561,1.5332,1.4833,1.4585,1.4446,1.4053,1.3646,1.3372,1.3372,1.3372,1.3372,1.347,1.3518,1.3518,1.3518,1.349,0.4386,0.4295,0.4363,0.4706,0.0,0.0,0.5941,0.6637,0.733,0.7868,0.8636,0.937,1.0147,1.068,1.1199,1.1843,1.2207,1.2528,1.279,1.3218,1.3613,1.3948,1.4408,1.4716,1.507,1.5083,1.5083,1.5083,1.5083,1.5281,1.5615,1.5937,1.6369,1.7035,1.7047,1.7047,1.7047,1.7047,1.7047,1.7047,1.7047,1.7166,1.7292,1.7416,1.7636,1.8,1.8294,1.8503,1.8603,1.8726,1.8655,1.8421,1.8421,1.8421,1.8421,1.8194,1.837,1.8526,1.8435,1.858,1.8848,1.8988,1.9078,1.9078,1.9078,1.9078,1.9078,1.9078,1.9078,1.9078,1.9078,1.9078,1.9078,1.9078,1.9078,1.9078,1.9078,1.9078,1.8938,1.8652,1.8296,1.7804,1.7512,1.7389,1.7136,1.7007,1.7001,1.7001,1.7001,1.7001,1.7001,1.7001,1.6861,1.6462,1.6068,1.5844,1.5473,1.5071,1.4781,1.4498,1.4477,1.3953,1.3558,1.3419,1.3284,1.3149,1.3149,1.3299,1.3372,1.3372,1.3372,1.3331,0.4587,0.4401,0.4216,0.4351,0.4636,0.0,0.5246,0.5864,0.6637,0.7253,0.784,0.8514,0.9404,0.9917,1.046,1.1149,1.1601,1.2186,1.2881,1.3504,1.3935,1.4218,1.4701,1.514,1.5172,1.5178,1.5178,1.5178,1.5274,1.5616,1.6393,1.6426,1.6784,1.7562,1.7582,1.7582,1.7582,1.7582,1.7582,1.7582,1.7582,1.7687,1.7595,1.7949,1.8037,1.8099,1.8698,1.8971,1.9051,1.932,1.91,1.8538,1.8538,1.8538,1.8538,1.8421,1.8574,1.8822,1.8744,1.8896,1.9043,1.9066,1.9054,1.9078,1.9078,1.9078,1.9078,1.9078,1.9078,1.9078,1.9078,1.9078,1.9078,1.9078,1.9078,1.9078,1.9078,1.9078,1.9066,1.8652,1.8682,1.8437,1.7641,1.7523,1.74,1.7007,1.7001,1.7001,1.7001,1.7001,1.7001,1.7001,1.7001,1.6726,1.6033,1.5944,1.5714,1.4931,1.4656,1.439,1.4403,1.3757,1.3498,1.3371,1.2972,1.2836,1.2836,1.3157,1.3311,1.3311,1.3311,1.3222,0.4592,0.4421,0.4316,0.4219,0.4277,0.0,0.4948,0.5318,0.5786,0.6637,0.6968,0.7496,0.851,0.89,0.9367,1.046,1.0926,1.1499,1.2448,1.3157,1.3711,1.4199,1.4707,1.5197,1.5615,1.5642,1.5743,1.594,1.6218,1.6477,1.6887,1.692,1.7191,1.7562,1.7582,1.7582,1.7582,1.7582,1.7582,1.7582,1.7786,1.7905,1.7939,1.8183,1.8506,1.8716,1.8898,1.9133,1.959,1.9652,1.9482,1.9249,1.9249,1.9249,1.9133,1.8881,1.8797,1.8888,1.8816,1.8732,1.876,1.9031,1.9145,1.9078,1.9078,1.9078,1.9078,1.9078,1.9078,1.9078,1.9078,1.9078,1.9078,1.9078,1.9078,1.9078,1.9078,1.9078,1.9072,1.9066,1.8822,1.8442,1.8033,1.7653,1.74,1.7007,1.7001,1.7001,1.7001,1.7001,1.7001,1.7001,1.7001,1.6726,1.6033,1.5944,1.5714,1.4931,1.48,1.4665,1.4403,1.401,1.3621,1.3371,1.2972,1.2836,1.2836,1.2909,1.2942,1.2942,1.2942,1.2921,0.5134,0.4864,0.4587,0.432,0.4378,0.0,0.0,0.5106,0.5511,0.6154,0.6551,0.6976,0.7704,0.8115,0.8602,0.9536,1.0066,1.0722,1.1585,1.2673,1.3598,1.4186,1.454,1.5009,1.5585,1.5712,1.5967,1.6393,1.6494,1.6696,1.7057,1.723,1.742,1.7763,1.7928,1.8003,1.8003,1.8003,1.8003,1.8003,1.8101,1.8213,1.822,1.8318,1.8534,1.8653,1.8816,1.9125,1.9591,1.9745,1.9763,1.9822,1.9707,1.9482,1.9366,1.9243,1.912,1.916,1.9101,1.9056,1.8974,1.8877,1.9025,1.9126,1.8879,1.8969,1.9078,1.9078,1.9078,1.9078,1.9078,1.9078,1.9078,1.9078,1.9078,1.9078,1.9078,1.9078,1.9078,1.9078,1.8828,1.8437,1.8039,1.7781,1.74,1.7007,1.7001,1.7001,1.7001,1.7001,1.7001,1.7001,1.7001,1.6732,1.6053,1.5954,1.5714,1.4931,1.4931,1.48,1.467,1.4141,1.3617,1.3104,1.2836,1.2836,1.2836,1.2836,1.2836,1.2836,1.2836,1.2836,0.5782,0.541,0.4952,0.4671,0.4648,0.4727,0.0,0.0,0.0,0.5868,0.6204,0.6619,0.7116,0.7498,0.7947,0.8704,0.9293,0.9946,1.0722,1.193,1.3049,1.3899,1.4281,1.4714,1.5192,1.5647,1.6061,1.6476,1.6648,1.6809,1.7022,1.7436,1.7753,1.796,1.8261,1.8422,1.8422,1.8422,1.8422,1.8422,1.8429,1.852,1.8506,1.8541,1.8534,1.861,1.8855,1.9191,1.9502,1.975,1.9963,2.0308,2.0019,1.9707,1.9591,1.9591,1.9482,1.9515,1.9404,1.9404,1.925,1.8859,1.8871,1.8969,1.8732,1.8794,1.9,1.9,1.9036,1.895,1.895,1.895,1.8944,1.895,1.895,1.9078,1.9078,1.9078,1.9078,1.9078,1.8693,1.8437,1.8039,1.7781,1.74,1.7007,1.7001,1.7001,1.7001,1.7001,1.7001,1.7001,1.7001,1.6737,1.6078,1.5964,1.5714,1.4931,1.4931,1.4931,1.4931,1.4272,1.3486,1.2836,1.2836,1.2836,1.2836,1.2836,1.2836,1.2836,1.2836,1.2836,0.6413,0.5965,0.5497,0.5208,0.5013,0.4903,0.5055,0.0,0.5199,0.5624,0.0,0.604,0.6619,0.0,0.0,0.8203,0.8702,0.934,1.0294,1.0921,1.1793,1.3167,1.3843,1.433,1.4701,1.5609,1.6141,1.6169,1.6793,1.729,1.7327,1.7647,1.786,1.796,1.8261,1.8422,1.8422,1.8422,1.8422,1.8422,1.8653,1.8869,1.8869,1.9071,1.9175,1.9168,1.9272,1.9484,1.9713,1.975,2.0012,2.0252,2.0287,2.027,2.0162,2.0162,2.0046,1.9707,1.9741,1.9579,1.9212,1.8873,1.8592,1.8336,1.8336,1.8523,1.8728,1.8728,1.8649,1.8699,1.8699,1.8431,1.8168,1.8571,1.8699,1.8699,1.9078,1.9078,1.895,1.8699,1.8302,1.8039,1.8033,1.7781,1.74,1.7007,1.7001,1.7001,1.7001,1.7001,1.7001,1.7001,1.7001,1.6737,1.6078,1.5979,1.5729,1.4931,1.4931,1.4931,1.4931,1.4272,1.3486,1.2836,1.2836,1.2836,1.2836,1.2836,1.2836,1.2836,1.2836,1.2836,0.7231,0.6789,0.6242,0.6011,0.5739,0.564,0.5673,0.5662,0.5748,0.6007,0.0,0.0,0.0,0.0,0.0,0.0,0.8333,0.8815,0.9777,1.0294,1.1105,1.2602,1.3133,1.3678,1.45,1.5232,1.584,1.6296,1.6621,1.7015,1.7334,1.7652,1.7891,1.7923,1.8412,1.8678,1.8678,1.8858,1.8959,1.8959,1.9071,1.9175,1.9175,1.9279,1.9279,1.9279,1.9279,1.9462,1.9762,1.9762,1.9924,2.0236,2.0255,2.0302,2.027,2.027,2.0162,2.0046,1.9815,1.9665,1.9449,1.9022,1.8564,1.8331,1.8368,1.8372,1.8487,1.8644,1.8506,1.8371,1.8536,1.8302,1.8033,1.8168,1.8302,1.8302,1.8699,1.8828,1.8828,1.8571,1.8302,1.7905,1.7781,1.7394,1.7136,1.7007,1.7001,1.7001,1.7001,1.7001,1.7001,1.7001,1.6882,1.6488,1.6094,1.5844,1.5458,1.4931,1.4931,1.4791,1.4381,1.4002,1.3486,1.2836,1.2836,1.2836,1.2836,1.2836,1.2836,1.2836,1.2836,1.2836,0.8204,0.7676,0.7058,0.6874,0.6612,0.6349,0.626,0.626,0.6349,0.6343,0.6612,0.0,0.0,0.0,0.7404,0.794,0.0,0.8552,0.9428,0.9864,1.0636,1.1929,1.2443,1.3126,1.421,1.4832,1.5363,1.6041,1.6309,1.6692,1.7101,1.7494,1.7816,1.7816,1.8364,1.8701,1.8789,1.9023,1.9184,1.9279,1.9279,1.9279,1.9279,1.9279,1.9279,1.9279,1.9279,1.9411,1.963,1.963,1.982,2.0106,2.0106,2.0221,2.026,2.0345,2.043,2.0385,2.0155,1.9924,1.9618,1.9004,1.8608,1.8301,1.8258,1.8246,1.8221,1.8408,1.831,1.8087,1.8285,1.7993,1.7776,1.7781,1.791,1.8045,1.8442,1.8571,1.8571,1.8437,1.8173,1.791,1.74,1.7136,1.7001,1.7001,1.7001,1.7001,1.7001,1.7001,1.7001,1.7001,1.6753,1.6369,1.5969,1.5709,1.5323,1.4931,1.4931,1.466,1.3984,1.3866,1.3486,1.2836,1.2836,1.2836,1.2836,1.2836,1.2836,1.2836,1.2836,1.2836,0.9262,0.8556,0.7764,0.7764,0.7408,0.7054,0.6792,0.6792,0.6704,0.6432,0.6612,0.6881,0.7054,0.7316,0.7665,0.8109,0.8201,0.0,0.0,0.9519,1.0033,1.1241,1.21,1.2966,1.3659,1.4276,1.4717,1.4964,1.588,1.6507,1.6514,1.7385,1.7816,1.7816,1.8145,1.8467,1.8789,1.8803,1.8964,1.9279,1.9279,1.9279,1.9279,1.9279,1.9279,1.9279,1.9279,1.9279,1.9294,1.9294,1.9484,1.9777,1.9777,1.9981,2.0194,2.0618,2.0699,2.0716,2.0716,2.004,1.9243,1.9004,1.8551,1.7985,1.7991,1.7933,1.7889,1.7895,1.7778,1.7668,1.7674,1.7346,1.7136,1.74,1.7529,1.7664,1.8442,1.8571,1.8442,1.8039,1.8033,1.7776,1.713,1.7007,1.7001,1.7001,1.7001,1.7001,1.7001,1.7001,1.7001,1.7001,1.6753,1.6369,1.5969,1.5719,1.5332,1.4936,1.4931,1.4543,1.3897,1.3884,1.3486,1.2836,1.2836,1.2836,1.2836,1.2836,1.2836,1.2836,1.2836,1.2836,0.9781,0.9253,0.8732,0.856,0.8201,0.7845,0.776,0.7588,0.7499,0.7411,0.7499,0.7588,0.7588,0.7676,0.7848,0.8113,0.8372,0.8636,0.0,0.9864,1.0463,1.1068,1.2015,1.279,1.3052,1.3651,1.4223,1.4683,1.5311,1.5878,1.6485,1.6977,1.7375,1.769,1.8015,1.8334,1.8641,1.9077,1.9363,1.9475,1.9678,1.9783,1.9776,1.9613,1.9606,1.9576,1.9376,1.9279,1.9279,1.9279,1.9345,1.944,1.944,1.9638,1.9989,2.0523,2.0674,2.0677,2.0544,2.004,1.9584,1.9113,1.8648,1.8194,1.8083,1.7793,1.7654,1.7823,1.7514,1.7205,1.7382,1.7107,1.678,1.6908,1.7027,1.7356,1.7833,1.7926,1.7926,1.7788,1.7794,1.759,1.7103,1.7001,1.7001,1.7001,1.7001,1.7001,1.7001,1.7001,1.6877,1.6753,1.6364,1.5974,1.5724,1.5328,1.5066,1.4931,1.4931,1.4539,1.3884,1.3906,1.3515,1.2836,1.2836,1.2836,1.2836,1.2836,1.2836,1.2836,1.2836,1.2836,1.0391,1.0043,0.9607,0.9345,0.899,0.864,0.8464,0.838,0.8208,0.8204,0.8204,0.8296,0.8296,0.8296,0.8468,0.8552,0.8727,0.899,0.0,1.012,1.0722,1.0895,1.1849,1.254,1.2705,1.3222,1.373,1.4269,1.4722,1.5297,1.5963,1.6469,1.696,1.7542,1.7871,1.8198,1.859,1.9033,1.9308,1.943,1.9758,1.991,1.9918,1.9864,1.9813,1.968,1.948,1.9376,1.9279,1.9279,1.9279,1.9279,1.9279,1.9403,1.9652,2.0186,2.053,2.0638,2.0395,2.0186,1.9924,1.9345,1.8881,1.8532,1.8194,1.796,1.7645,1.769,1.7446,1.7069,1.712,1.6976,1.6659,1.6538,1.6651,1.6843,1.7445,1.7537,1.7537,1.7537,1.7605,1.7466,1.6984,1.6947,1.7001,1.7001,1.7001,1.7001,1.7001,1.7001,1.6877,1.6499,1.6234,1.5844,1.5332,1.5066,1.4931,1.4931,1.4931,1.467,1.4141,1.3906,1.3647,1.2972,1.2836,1.2836,1.2836,1.2836,1.2836,1.2836,1.2836,1.2836]},{"header":{"parameterUnit":"m.s-1","parameterCategory":1,"la1":30.6,"la2":29.2853,"lo1":-89.7004,"lo2":-87.6739,"dy":0.0162,"dx":0.0183,"nx":112,"ny":82,"refTime":"2023-07-16T00:00:00:Z","depth":0,"parameterNumber":3,"parameterNumberName":"V-component_of_WINDS"},"data":[0.0,0.0,0.0,0.0,0.0,0.0,0.0,0.0,0.0,0.0,0.0,0.0,0.0,0.0,0.0,0.0,0.0,0.0,0.0,0.0,0.0,0.0,0.0,0.0,0.0,0.0,0.0,0.0,0.0,0.0,0.0,0.0,0.0,0.0,0.0,0.0,0.0,0.0,0.0,0.0,0.0,0.0,0.0,0.0,0.0,0.0,0.0,0.0,0.0,0.0,0.0,0.0,0.0,0.0,0.0,0.0,0.0,0.0,0.0,0.0,0.0,0.0,0.0,0.0,0.0,0.0,0.0,0.0,0.0,0.0,0.0,0.0,0.0,0.0,0.0,0.0,0.0,0.0,0.0,0.0,0.0,0.0,0.0,0.0,0.0,0.0,0.0,0.0,0.0,0.0,-2.7576,-2.867,-2.9229,-2.9473,-2.935,-2.9229,-2.873,-2.7749,0.0,0.0,0.0,0.0,0.0,0.0,0.0,0.0,0.0,0.0,0.0,0.0,0.0,0.0,0.0,0.0,0.0,0.0,0.0,0.0,0.0,0.0,0.0,0.0,0.0,0.0,0.0,0.0,0.0,0.0,0.0,0.0,0.0,0.0,0.0,0.0,0.0,0.0,0.0,0.0,0.0,0.0,0.0,0.0,0.0,0.0,0.0,0.0,0.0,0.0,0.0,0.0,0.0,0.0,0.0,0.0,0.0,0.0,0.0,0.0,0.0,0.0,0.0,0.0,0.0,0.0,0.0,0.0,0.0,0.0,0.0,0.0,0.0,0.0,0.0,0.0,0.0,0.0,0.0,0.0,0.0,0.0,0.0,0.0,0.0,0.0,0.0,0.0,0.0,0.0,0.0,0.0,0.0,0.0,0.0,0.0,0.0,0.0,0.0,0.0,0.0,0.0,0.0,0.0,-2.829,-2.909,-2.9502,-2.9608,-2.9473,-2.9473,-2.8928,-2.7749,0.0,0.0,0.0,0.0,0.0,0.0,0.0,0.0,0.0,0.0,0.0,0.0,0.0,0.0,0.0,0.0,0.0,0.0,0.0,0.0,0.0,0.0,0.0,0.0,0.0,0.0,0.0,0.0,0.0,0.0,0.0,0.0,0.0,0.0,0.0,0.0,0.0,0.0,0.0,0.0,0.0,0.0,0.0,0.0,0.0,0.0,0.0,0.0,0.0,0.0,0.0,0.0,0.0,0.0,0.0,0.0,0.0,0.0,0.0,0.0,0.0,0.0,0.0,0.0,0.0,0.0,0.0,0.0,0.0,0.0,0.0,0.0,0.0,0.0,0.0,0.0,0.0,0.0,0.0,0.0,0.0,0.0,0.0,0.0,0.0,0.0,0.0,0.0,0.0,0.0,0.0,0.0,0.0,0.0,0.0,0.0,0.0,0.0,0.0,0.0,0.0,0.0,0.0,-2.8356,-2.9013,-2.9515,-2.971,-2.977,-2.9665,-2.9547,-2.9178,-2.8419,-2.7221,0.0,0.0,0.0,0.0,0.0,0.0,0.0,0.0,0.0,0.0,0.0,0.0,0.0,0.0,0.0,0.0,0.0,0.0,0.0,0.0,0.0,0.0,0.0,0.0,0.0,0.0,0.0,0.0,0.0,0.0,0.0,0.0,0.0,0.0,0.0,0.0,0.0,0.0,0.0,0.0,0.0,0.0,0.0,0.0,0.0,0.0,0.0,0.0,0.0,0.0,0.0,0.0,0.0,0.0,0.0,0.0,0.0,0.0,0.0,0.0,0.0,0.0,0.0,0.0,0.0,0.0,0.0,0.0,0.0,0.0,0.0,0.0,0.0,0.0,0.0,0.0,0.0,0.0,0.0,0.0,0.0,0.0,0.0,0.0,0.0,0.0,0.0,0.0,0.0,0.0,0.0,0.0,0.0,0.0,0.0,0.0,0.0,0.0,0.0,0.0,0.0,0.0,-2.9059,-2.947,-2.9766,-2.9886,-2.9886,-2.981,-2.9621,-2.9321,-2.892,-2.7684,0.0,0.0,0.0,0.0,0.0,0.0,0.0,0.0,0.0,0.0,0.0,0.0,0.0,0.0,0.0,0.0,0.0,0.0,0.0,0.0,0.0,0.0,0.0,0.0,0.0,0.0,0.0,0.0,0.0,0.0,0.0,0.0,0.0,0.0,0.0,0.0,0.0,0.0,0.0,0.0,0.0,0.0,0.0,0.0,0.0,0.0,0.0,0.0,0.0,0.0,0.0,0.0,0.0,0.0,0.0,0.0,0.0,0.0,0.0,0.0,0.0,0.0,0.0,0.0,0.0,0.0,0.0,0.0,0.0,0.0,0.0,0.0,0.0,0.0,0.0,0.0,0.0,0.0,0.0,0.0,0.0,0.0,0.0,0.0,0.0,0.0,0.0,0.0,0.0,0.0,0.0,0.0,0.0,0.0,0.0,0.0,0.0,0.0,0.0,0.0,0.0,0.0,-2.9152,-2.956,-2.9766,-2.9913,-2.9913,-2.981,-2.9621,-2.9321,-2.892,-2.8092,0.0,0.0,0.0,0.0,0.0,0.0,0.0,0.0,0.0,0.0,0.0,0.0,0.0,0.0,0.0,0.0,0.0,0.0,0.0,0.0,0.0,0.0,0.0,0.0,0.0,0.0,0.0,0.0,0.0,0.0,0.0,0.0,0.0,0.0,0.0,0.0,0.0,0.0,0.0,0.0,0.0,0.0,0.0,0.0,0.0,0.0,0.0,0.0,0.0,0.0,0.0,0.0,0.0,0.0,0.0,0.0,0.0,0.0,0.0,0.0,0.0,0.0,0.0,0.0,0.0,0.0,0.0,0.0,0.0,0.0,0.0,0.0,0.0,0.0,0.0,0.0,0.0,0.0,0.0,0.0,0.0,0.0,0.0,0.0,0.0,0.0,0.0,0.0,0.0,0.0,0.0,0.0,0.0,0.0,0.0,0.0,0.0,0.0,0.0,0.0,0.0,0.0,-2.935,-2.971,-3.0,-3.0103,-3.0103,-3.0044,-2.9814,-2.9502,-2.9152,0.0,0.0,0.0,0.0,0.0,0.0,0.0,0.0,0.0,0.0,0.0,0.0,0.0,0.0,0.0,0.0,0.0,0.0,0.0,0.0,0.0,0.0,0.0,0.0,0.0,0.0,0.0,0.0,0.0,0.0,0.0,0.0,0.0,0.0,0.0,0.0,0.0,0.0,0.0,0.0,0.0,0.0,0.0,0.0,0.0,0.0,0.0,0.0,0.0,0.0,0.0,0.0,0.0,0.0,0.0,0.0,0.0,0.0,0.0,0.0,0.0,0.0,0.0,0.0,0.0,0.0,0.0,0.0,0.0,0.0,0.0,0.0,0.0,0.0,0.0,0.0,0.0,0.0,0.0,0.0,0.0,0.0,0.0,0.0,0.0,0.0,0.0,0.0,0.0,0.0,0.0,0.0,0.0,0.0,0.0,0.0,0.0,0.0,0.0,0.0,0.0,0.0,-2.8887,-2.9486,-2.9939,-3.0473,-3.0592,-3.0592,-3.0549,-3.0287,-2.9862,-2.9305,0.0,0.0,0.0,0.0,0.0,0.0,0.0,0.0,0.0,0.0,0.0,0.0,0.0,0.0,0.0,0.0,0.0,0.0,0.0,0.0,0.0,0.0,0.0,0.0,0.0,0.0,0.0,0.0,0.0,0.0,0.0,0.0,0.0,0.0,0.0,0.0,0.0,0.0,0.0,0.0,0.0,0.0,0.0,0.0,0.0,0.0,0.0,0.0,0.0,0.0,0.0,0.0,0.0,0.0,0.0,0.0,0.0,0.0,0.0,0.0,0.0,0.0,0.0,0.0,0.0,0.0,0.0,0.0,0.0,0.0,0.0,0.0,0.0,0.0,0.0,0.0,0.0,0.0,0.0,0.0,0.0,0.0,0.0,0.0,0.0,0.0,0.0,0.0,0.0,0.0,0.0,0.0,0.0,0.0,0.0,0.0,0.0,0.0,0.0,0.0,0.0,0.0,-2.8996,-2.9499,-3.0173,-3.1204,-3.1419,-3.1462,-3.1347,-3.1091,-3.0451,0.0,0.0,0.0,0.0,0.0,0.0,0.0,0.0,0.0,0.0,0.0,0.0,0.0,0.0,0.0,0.0,0.0,0.0,0.0,0.0,0.0,0.0,0.0,0.0,0.0,0.0,0.0,0.0,0.0,0.0,0.0,0.0,0.0,0.0,0.0,0.0,0.0,0.0,0.0,0.0,0.0,0.0,0.0,0.0,0.0,0.0,0.0,0.0,0.0,0.0,0.0,0.0,0.0,0.0,0.0,0.0,0.0,0.0,0.0,0.0,0.0,0.0,0.0,0.0,0.0,0.0,0.0,0.0,0.0,0.0,0.0,0.0,0.0,0.0,0.0,0.0,0.0,0.0,0.0,0.0,0.0,0.0,0.0,0.0,0.0,0.0,0.0,0.0,0.0,0.0,0.0,0.0,0.0,0.0,0.0,0.0,0.0,0.0,0.0,0.0,0.0,0.0,0.0,-2.9118,-2.9649,-3.0293,-3.1204,-3.1462,-3.1748,-3.2109,-3.2023,-3.1548,-3.0483,0.0,0.0,0.0,0.0,0.0,0.0,0.0,0.0,0.0,0.0,0.0,0.0,0.0,0.0,0.0,0.0,0.0,0.0,0.0,0.0,0.0,0.0,0.0,0.0,0.0,0.0,0.0,0.0,0.0,0.0,0.0,0.0,0.0,0.0,0.0,0.0,0.0,0.0,0.0,0.0,0.0,0.0,0.0,0.0,0.0,0.0,0.0,0.0,0.0,0.0,0.0,0.0,0.0,0.0,0.0,0.0,0.0,0.0,0.0,0.0,0.0,0.0,0.0,0.0,0.0,0.0,0.0,0.0,0.0,0.0,0.0,0.0,0.0,0.0,0.0,0.0,0.0,0.0,0.0,0.0,0.0,0.0,0.0,0.0,0.0,0.0,0.0,0.0,0.0,0.0,0.0,0.0,0.0,0.0,0.0,0.0,0.0,0.0,0.0,0.0,0.0,0.0,-2.9287,-2.9996,-3.0805,-3.1659,-3.2182,-3.2618,-3.2895,-3.2915,-3.2466,-3.1502,0.0,0.0,0.0,0.0,0.0,0.0,0.0,0.0,0.0,0.0,0.0,0.0,0.0,0.0,0.0,0.0,0.0,0.0,0.0,0.0,0.0,0.0,0.0,0.0,0.0,0.0,0.0,0.0,0.0,0.0,0.0,0.0,0.0,0.0,0.0,0.0,0.0,0.0,0.0,0.0,0.0,0.0,0.0,0.0,0.0,0.0,0.0,0.0,0.0,0.0,0.0,0.0,0.0,0.0,0.0,0.0,0.0,0.0,0.0,0.0,0.0,0.0,0.0,0.0,0.0,0.0,0.0,0.0,0.0,0.0,0.0,0.0,0.0,0.0,0.0,0.0,0.0,0.0,0.0,0.0,0.0,0.0,0.0,0.0,0.0,0.0,0.0,0.0,0.0,0.0,0.0,0.0,0.0,0.0,0.0,0.0,0.0,0.0,0.0,0.0,0.0,0.0,-2.9611,-3.0535,-3.1548,-3.2517,-3.3346,-3.3822,-3.3733,-3.3749,-3.3343,-3.2436,0.0,0.0,0.0,0.0,0.0,0.0,0.0,0.0,0.0,0.0,0.0,0.0,0.0,0.0,0.0,0.0,0.0,0.0,0.0,0.0,0.0,0.0,0.0,0.0,0.0,0.0,0.0,0.0,0.0,0.0,0.0,0.0,0.0,0.0,0.0,0.0,0.0,0.0,0.0,0.0,0.0,0.0,0.0,0.0,0.0,0.0,0.0,0.0,0.0,0.0,0.0,0.0,0.0,0.0,0.0,0.0,0.0,0.0,0.0,0.0,-2.9281,-2.7736,0.0,0.0,0.0,0.0,0.0,0.0,0.0,0.0,0.0,0.0,0.0,0.0,0.0,0.0,0.0,0.0,0.0,0.0,0.0,0.0,0.0,0.0,0.0,0.0,0.0,0.0,0.0,0.0,0.0,0.0,0.0,0.0,0.0,0.0,0.0,0.0,0.0,0.0,0.0,0.0,-3.0497,-3.1139,-3.1996,-3.3363,-3.3889,-3.4313,-3.4914,-3.4964,-3.4539,-3.3653,-3.3454,0.0,0.0,0.0,0.0,0.0,0.0,0.0,0.0,0.0,0.0,0.0,0.0,0.0,0.0,0.0,0.0,0.0,0.0,0.0,0.0,0.0,0.0,0.0,0.0,0.0,0.0,0.0,0.0,0.0,0.0,0.0,0.0,0.0,0.0,0.0,0.0,0.0,0.0,0.0,0.0,0.0,0.0,0.0,0.0,0.0,0.0,0.0,0.0,0.0,0.0,0.0,0.0,0.0,0.0,0.0,0.0,0.0,0.0,0.0,-3.2101,-3.0858,0.0,0.0,0.0,0.0,0.0,0.0,0.0,0.0,0.0,0.0,0.0,0.0,0.0,0.0,0.0,0.0,0.0,0.0,0.0,0.0,0.0,0.0,0.0,0.0,0.0,0.0,0.0,0.0,0.0,0.0,0.0,0.0,0.0,0.0,0.0,0.0,0.0,0.0,0.0,0.0,-3.1116,-3.2083,-3.3079,-3.3996,-3.4471,-3.493,-3.5424,-3.5458,-3.5244,-3.4796,-3.4443,0.0,0.0,0.0,0.0,0.0,0.0,0.0,0.0,0.0,0.0,0.0,0.0,0.0,0.0,0.0,0.0,0.0,0.0,0.0,0.0,0.0,0.0,0.0,0.0,0.0,0.0,0.0,0.0,0.0,0.0,0.0,0.0,0.0,0.0,0.0,0.0,0.0,0.0,0.0,0.0,0.0,0.0,0.0,0.0,0.0,0.0,0.0,0.0,0.0,0.0,0.0,0.0,0.0,-3.5715,-3.5816,-3.59,-3.5951,-3.5933,-3.59,-3.526,-3.4655,-3.4073,-3.3779,0.0,0.0,0.0,0.0,0.0,0.0,0.0,0.0,0.0,0.0,0.0,0.0,0.0,0.0,0.0,0.0,0.0,0.0,0.0,0.0,0.0,0.0,-3.2684,-3.3448,-3.4278,-3.4644,-3.376,0.0,0.0,0.0,0.0,0.0,0.0,0.0,0.0,0.0,0.0,0.0,-3.1957,-3.3223,-3.4264,-3.4594,-3.5161,-3.556,-3.5667,-3.5667,-3.5667,-3.5667,-3.5118,-3.4779,0.0,0.0,0.0,0.0,0.0,0.0,0.0,0.0,0.0,0.0,0.0,0.0,0.0,0.0,0.0,0.0,0.0,0.0,0.0,0.0,0.0,0.0,0.0,0.0,0.0,0.0,0.0,0.0,0.0,0.0,0.0,0.0,-3.0523,-3.0902,0.0,0.0,0.0,0.0,0.0,0.0,0.0,0.0,0.0,0.0,0.0,0.0,0.0,-3.535,-3.6167,-3.636,-3.6822,-3.7625,-3.7778,-3.7929,-3.8008,-3.8054,-3.8086,-3.8123,-3.8715,0.0,-3.4907,-3.4711,0.0,0.0,0.0,0.0,0.0,0.0,0.0,0.0,0.0,0.0,0.0,0.0,0.0,0.0,0.0,0.0,0.0,0.0,0.0,0.0,0.0,0.0,-3.4389,-3.4545,-3.548,-3.6318,-3.6278,-3.5415,-3.4346,-3.3499,-3.3195,-3.2959,0.0,0.0,0.0,0.0,0.0,0.0,-3.39,-3.4344,-3.4847,-3.5552,-3.5793,-3.5932,-3.5932,-3.5932,-3.5932,-3.5932,-3.5847,-3.5778,-3.5778,-3.5562,0.0,0.0,0.0,0.0,0.0,0.0,0.0,0.0,0.0,0.0,0.0,0.0,0.0,0.0,0.0,0.0,0.0,0.0,0.0,0.0,0.0,0.0,0.0,0.0,0.0,0.0,0.0,0.0,0.0,-3.0269,-3.137,-3.1834,-3.2158,-3.2559,0.0,0.0,0.0,0.0,0.0,0.0,0.0,0.0,0.0,-3.5829,-3.6397,-3.6998,-3.751,-3.7627,-3.8158,-3.9122,-3.9205,-3.9557,-4.0092,-4.0167,-4.0197,-4.0216,-4.0579,-4.0007,-3.8679,-3.7747,-3.7326,-3.7077,0.0,0.0,0.0,0.0,-3.3955,-3.4271,-3.4359,-3.4463,-3.4512,-3.4457,0.0,0.0,0.0,0.0,0.0,0.0,0.0,-3.4445,-3.4076,-3.5036,-3.6093,-3.6068,-3.6816,-3.7637,-3.7972,-3.7777,-3.7073,-3.549,-3.4758,-3.4343,-3.4033,-3.3626,0.0,0.0,0.0,-3.4253,-3.4678,-3.5232,-3.5728,-3.6156,-3.6251,-3.6335,-3.6395,-3.6377,-3.6377,-3.6377,-3.6377,-3.6377,-3.6377,-3.6251,-3.6036,0.0,0.0,0.0,0.0,0.0,0.0,0.0,0.0,0.0,0.0,0.0,0.0,0.0,0.0,0.0,0.0,0.0,0.0,0.0,0.0,0.0,0.0,0.0,0.0,0.0,0.0,0.0,0.0,-3.1121,-3.2152,-3.2762,-3.3306,-3.3894,0.0,0.0,0.0,0.0,0.0,0.0,-3.581,-3.6503,-3.6964,-3.7117,-3.7778,-3.8361,-3.8757,-3.8789,-3.9318,-4.0363,-4.0363,-4.0757,-4.1447,-4.1501,-4.156,-4.1579,-4.1853,-4.1957,-4.1853,-4.0515,-3.9893,-3.9631,-3.8047,-3.7194,-3.6859,-3.659,-3.65,-3.6572,-3.7214,-3.7428,-3.7394,-3.7272,-3.6684,-3.6042,-3.5968,0.0,0.0,0.0,0.0,-3.612,-3.6344,-3.7128,-3.7919,-3.804,-3.8327,-3.8681,-3.921,-3.9658,-3.943,-3.7656,-3.6754,-3.6232,-3.6074,-3.5542,0.0,-3.5156,-3.5663,-3.6074,-3.6091,-3.6693,-3.7099,-3.72,-3.72,-3.7241,-3.7359,-3.7184,-3.7021,-3.7021,-3.6806,-3.6771,-3.6963,-3.688,-3.6925,-3.7134,0.0,0.0,0.0,0.0,0.0,0.0,0.0,0.0,0.0,0.0,0.0,0.0,0.0,0.0,0.0,0.0,0.0,0.0,0.0,0.0,0.0,0.0,0.0,0.0,0.0,0.0,0.0,0.0,0.0,-3.3441,-3.4306,0.0,0.0,0.0,0.0,-3.6292,-3.6502,-3.6946,-3.7702,-3.805,-3.8201,-3.8201,-3.8382,-3.8925,-3.9827,-3.9902,-4.04,-4.1311,-4.1373,-4.1471,-4.1508,-4.1649,-4.1688,-4.1725,-4.2576,-4.2922,-4.2837,-4.182,-4.1366,-4.1292,-4.032,-4.0312,-4.0909,-4.0832,-4.0799,-4.0891,-4.1632,-4.1364,-4.065,-4.0568,-4.0307,-3.9987,-3.9913,-3.9875,0.0,0.0,-3.9526,-3.9455,-3.8968,-3.9256,-3.9911,-4.0771,-4.005,-3.9328,-4.0073,-4.0525,-4.0538,-3.9557,-3.9329,-3.9194,-3.8933,0.0,-3.8839,-3.8839,-3.8874,-3.8933,-3.9052,-3.9129,-3.9164,-3.9164,-3.9164,-3.9164,-3.9164,-3.8415,-3.793,-3.793,-3.7184,-3.6998,-3.7735,-3.7728,-3.8077,-3.8842,-3.886,0.0,0.0,0.0,0.0,0.0,0.0,0.0,0.0,0.0,0.0,0.0,0.0,0.0,0.0,0.0,0.0,0.0,0.0,0.0,0.0,0.0,0.0,0.0,0.0,0.0,0.0,0.0,0.0,-3.5226,-3.5792,0.0,-3.6912,-3.7034,-3.7228,-3.7602,-3.7688,-3.7881,-3.8186,-3.8944,-3.9333,-3.9333,-3.9987,-4.0535,-4.0942,-4.0954,-4.1422,-4.2279,-4.2328,-4.2619,-4.312,-4.326,-4.3319,-4.3378,-4.3745,-4.3933,-4.3943,-4.3577,-4.3013,-4.227,-4.1048,-4.1186,-4.2099,-4.2069,-4.2099,-4.2092,-4.1943,-4.169,-4.1396,-4.1311,-4.1167,-4.1052,-4.0854,-4.0753,-4.0684,-4.0456,-4.0384,-4.0329,-4.0112,-4.0165,-4.0473,-4.107,-4.0796,-4.0686,-4.1591,-4.1913,-4.1962,-4.16,-4.0646,-3.9854,-3.9678,-3.9678,-3.9678,-3.9678,-3.9678,-3.9696,-3.9736,-3.9736,-3.9696,-3.9615,-3.9615,-3.9615,-3.9499,-3.9211,-3.9012,-3.9012,-3.8725,-3.869,-3.8954,-3.8954,-3.9095,-3.9376,-3.9394,-3.9236,0.0,0.0,0.0,0.0,0.0,0.0,0.0,0.0,0.0,0.0,0.0,0.0,0.0,0.0,0.0,0.0,0.0,0.0,0.0,0.0,0.0,0.0,0.0,0.0,0.0,-3.414,-3.4968,-3.6463,-3.7012,-3.7492,-3.8065,-3.8422,-3.8619,-3.8722,-3.9028,-3.9239,-3.9301,-3.996,-4.0368,-4.0399,-4.1058,-4.1576,-4.1897,-4.1927,-4.2347,-4.3206,-4.3206,-4.3485,-4.4005,-4.4135,-4.4214,-4.4255,-4.4373,-4.4411,-4.4487,-4.4487,-4.4093,-4.3351,-4.2408,-4.2548,-4.3278,-4.3278,-4.3306,-4.3315,-4.2866,-4.2688,-4.266,-4.2555,-4.2497,-4.2437,-4.2186,-4.2092,-4.2028,-4.1797,-4.1695,-4.1661,-4.154,-4.1523,-4.156,-4.1833,-4.1796,-4.192,-4.2627,-4.2786,-4.2763,-4.2763,-4.1782,-4.093,-4.0891,-4.0853,-4.0853,-4.0853,-4.0853,-4.0853,-4.0853,-4.0853,-4.0853,-4.0774,-4.0717,-4.0677,-4.0597,-4.0308,-4.0108,-4.0068,-3.978,-3.9744,-3.9969,-3.9987,-4.0111,-4.0377,-4.021,-4.0068,-4.0091,0.0,0.0,0.0,0.0,0.0,0.0,0.0,0.0,0.0,0.0,0.0,0.0,0.0,0.0,0.0,0.0,0.0,0.0,0.0,0.0,0.0,0.0,0.0,-3.4384,-3.5083,-3.6023,-3.7035,-3.7853,-3.8391,-3.8469,-3.9181,-3.9674,-3.9674,-4.0489,-4.1046,-4.1107,-4.119,-4.1291,-4.1422,-4.1533,-4.1934,-4.2724,-4.2804,-4.3225,-4.4005,-4.4005,-4.4005,-4.4005,-4.4135,-4.4184,-4.4214,-4.4344,-4.4401,-4.4449,-4.4524,-4.4505,-4.4487,-4.4515,-4.4524,-4.4605,-4.4643,-4.4716,-4.4787,-4.4787,-4.4734,-4.4681,-4.4617,-4.4533,-4.4458,-4.4244,-4.4153,-4.4029,-4.38,-4.3682,-4.3582,-4.3373,-4.3321,-4.3322,-4.3269,-4.3105,-4.2995,-4.3123,-4.3066,-4.3029,-4.2973,-4.282,-4.2645,-4.2609,-4.2609,-4.2609,-4.2609,-4.2609,0.0,-4.2645,-4.2645,-4.2645,-4.2645,-4.2645,-4.2624,-4.2503,-4.1689,-4.1105,-4.1042,-4.0175,-4.0046,-4.0784,-4.0861,-4.1209,-4.1987,-4.1369,-4.1083,-4.1145,0.0,0.0,0.0,0.0,0.0,0.0,0.0,0.0,0.0,0.0,0.0,0.0,0.0,0.0,0.0,0.0,0.0,0.0,0.0,0.0,0.0,-3.4182,-3.5089,-3.5484,-3.6261,-3.7204,-3.82,-3.9038,-3.9564,-3.9639,-4.0394,-4.0909,-4.0909,-4.1061,-4.114,-4.1172,-4.1839,-4.2234,-4.2284,-4.2965,-4.3417,-4.3639,-4.367,-4.3782,-4.4005,-4.4005,-4.4005,-4.4005,-4.4036,-4.4104,-4.4184,-4.4244,-4.4651,-4.5263,-4.5292,-4.4982,-4.4504,-4.4496,-4.4524,-4.47,-4.5536,-4.6137,-4.6584,-4.6584,-4.6584,-4.6558,-4.6477,-4.6393,-4.6337,-4.6221,-4.6151,-4.5917,-4.5101,-4.4837,-4.4656,-4.3867,-4.4023,-4.4377,-4.4289,-4.4401,-4.4435,-4.4287,-4.4945,-4.5364,-4.494,-4.446,-4.3857,-4.2969,-4.2824,-4.2824,-4.2824,-4.2824,-4.3023,-4.362,-4.3692,-4.3671,-4.361,-4.361,-4.3336,-4.2624,-4.2271,-4.2123,-4.2083,-4.177,-4.1652,-4.1866,-4.1884,-4.205,-4.2382,-4.2167,-4.2105,0.0,0.0,0.0,0.0,0.0,0.0,0.0,0.0,0.0,0.0,0.0,0.0,0.0,0.0,0.0,0.0,0.0,0.0,0.0,0.0,0.0,0.0,-3.5145,-3.6065,-3.674,-3.7256,-3.8022,-3.9309,-3.9815,-4.024,-4.0651,-4.1416,-4.1915,-4.1915,-4.2115,-4.2216,-4.23,-4.2742,-4.3033,-4.3084,-4.3656,-4.3961,-4.3961,-4.4345,-4.4544,-4.4544,-4.4896,-4.5045,-4.5045,-4.5045,-4.5095,-4.5177,-4.519,-4.5513,-4.6034,-4.6076,-4.587,-4.5552,0.0,0.0,0.0,0.0,-4.6973,-4.7292,-4.7318,-4.7345,-4.7318,-4.7238,-4.7155,-4.7099,-4.7022,-4.6952,-4.6768,-4.6128,-4.5935,-4.5709,-4.5097,-4.5167,-4.5397,-4.5329,-4.5352,-4.5461,-4.5533,-4.6026,-4.6558,-4.6702,-4.6059,0.0,-4.4211,-4.3751,-4.364,-4.386,-4.3896,-4.4059,-4.453,-4.4603,-4.4603,-4.456,-4.4542,-4.4321,-4.375,-4.3634,0.0,0.0,0.0,-4.3453,-4.3453,-4.3453,0.0,0.0,0.0,-4.3674,-4.3718,-4.3914,0.0,0.0,-4.2467,-4.2699,0.0,0.0,0.0,0.0,0.0,0.0,0.0,0.0,0.0,0.0,0.0,0.0,0.0,0.0,0.0,0.0,-3.6378,-3.7249,-3.8077,-3.8204,-3.8784,-4.0244,-4.041,-4.0722,-4.1586,-4.2329,-4.2778,-4.2778,-4.3295,-4.3667,-4.3804,-4.3667,0.0,0.0,0.0,-4.4045,-4.4045,-4.4944,-4.5435,-4.5435,-4.616,-4.6494,-4.6494,-4.6494,-4.6494,-4.6494,-4.6541,-4.6661,-4.6736,-4.6856,-4.7049,-4.7248,-4.7274,-4.7239,-4.7165,-4.7362,-4.7492,-4.7567,-4.7629,0.0,0.0,-4.7521,-4.7466,-4.7457,-4.7333,-4.7234,-4.7154,-4.7061,-4.6881,-4.6717,-4.6545,-4.6465,-4.6419,-4.6282,-4.6231,-4.6305,-4.6801,-4.6818,-4.7036,-4.8104,-4.7459,-4.6537,-4.5981,-4.5167,-4.4777,-4.5309,-4.5327,-4.5327,-4.5417,-4.5436,-4.5436,-4.5436,-4.5436,0.0,-4.5224,-4.5183,-4.5142,-4.5042,-4.5,-4.5,-4.5,-4.5,-4.5,-4.5,-4.5142,-4.5247,-4.533,-4.5446,-4.5659,-4.592,-4.5203,-4.4959,0.0,0.0,0.0,0.0,0.0,0.0,0.0,0.0,0.0,0.0,0.0,0.0,0.0,0.0,0.0,-3.7399,-3.7847,-3.8362,-3.9188,-3.9877,-4.039,-4.0522,-4.1111,-4.1791,-4.2552,-4.3379,-4.385,-4.3751,-4.3758,-4.3753,-4.3804,-4.3667,-4.3615,-4.3634,-4.438,-4.4813,-4.4879,-4.5675,-4.6168,-4.6271,-4.642,0.0,-4.6494,-4.6494,-4.6494,-4.6494,-4.6527,-4.6913,-4.7574,-4.7607,-4.8082,-4.8795,-4.8953,-4.8616,-4.805,-4.8136,-4.8645,-4.9249,-4.923,-4.9278,-4.923,-4.923,-4.9192,-4.9133,-4.9104,-4.9063,0.0,-4.8084,-4.7804,-4.754,-4.6773,-4.6977,-4.7342,-4.7326,-4.7665,-4.8034,-4.8126,-4.805,-4.8029,-4.8265,-4.8117,-4.7874,-4.7645,-4.6324,-4.5464,-4.586,-4.5584,-4.5526,-4.6178,-4.6269,-4.6269,-4.6269,-4.6269,-4.6015,-4.5323,-4.5224,-4.5183,-4.5142,-4.5042,-4.5,-4.5,-4.5,-4.5042,-4.5142,-4.5201,-4.5305,-4.5446,-4.5544,-4.5772,-4.6047,-4.5917,-4.5983,0.0,0.0,0.0,0.0,0.0,0.0,0.0,0.0,0.0,0.0,0.0,-3.6894,-3.6894,0.0,-3.7319,-3.8126,-3.8352,-3.8874,-4.0137,-4.0634,-4.1017,-4.1308,-4.2042,-4.2782,-4.3546,-4.3953,-4.4135,-4.4005,-4.3897,-4.3837,-4.3804,-4.3667,-4.3766,-4.4154,-4.4628,-4.5137,-4.5595,-4.6511,-4.6987,-4.7058,-4.7482,-4.7701,-4.7701,-4.7701,-4.7701,-4.7701,-4.7701,-4.7958,-4.8345,-4.8342,-4.8669,-4.9211,-4.9184,-4.9039,-4.8814,-4.8964,-4.9276,-4.9634,-4.9692,-4.9692,-4.9692,-4.9663,-4.9623,-4.9593,-4.9563,-4.9521,-4.9384,-4.8852,-4.8627,-4.8488,-4.7998,-4.8051,-4.8245,-4.8229,-4.8383,-4.855,-4.8513,-4.8401,-4.8286,-4.8284,-4.8302,-4.8263,-4.8203,-4.743,-4.6877,-4.6993,-4.6708,-4.6649,-4.7065,-4.7161,-4.7202,-4.7202,-4.7225,-4.7084,-4.664,-4.6522,-4.6458,-4.6458,-4.6398,-4.6356,-4.6356,-4.6356,-4.6398,-4.6458,-4.6499,-4.6622,-4.6746,-4.6885,-4.7113,-4.7333,-4.7441,-4.7411,0.0,0.0,0.0,0.0,0.0,0.0,0.0,-3.8089,-3.8089,-3.8089,-3.8089,-3.8089,-3.8089,-3.8154,-3.8407,-3.9044,-3.9203,-3.9739,-4.1076,-4.1343,-4.1651,-4.2272,-4.2881,-4.3521,-4.424,-4.4244,-4.4165,-4.4005,-4.3929,-4.3925,-4.4026,-4.3907,-4.4173,-4.4911,-4.5147,-4.5587,-4.6322,-4.7276,-4.7789,-4.7824,-4.8542,-4.8874,-4.8909,-4.8909,-4.8909,-4.8909,-4.8909,-4.8909,-4.889,-4.8903,-4.912,-4.9463,-4.9407,-4.9548,-4.9706,-4.9565,-4.9626,-4.9758,-4.9819,-4.9943,-5.0075,-5.0033,-4.9984,-4.9972,-4.9928,-4.9896,-4.9896,-4.9795,-4.9697,-4.9631,-4.9567,-4.948,-4.9357,-4.9304,-4.9214,-4.9086,-4.9011,-4.8879,-4.8802,-4.8802,-4.8802,-4.8781,-4.8815,-4.8626,-4.84,-4.7961,-4.7842,-4.7741,-4.7723,-4.7824,-4.7943,-4.7943,-4.797,-4.797,-4.7902,-4.7777,-4.7717,-4.7717,-4.7717,-4.7717,-4.7717,-4.7717,-4.7717,-4.7717,-4.7819,-4.7925,-4.7992,-4.819,-4.8402,-4.8587,-4.882,-4.8658,-4.0156,-3.9966,-3.9994,-4.0526,-4.0673,-4.0839,0.0,-4.1612,-4.1612,-4.1612,-4.1612,-4.1612,-4.1612,-4.1685,-4.177,-4.1865,-4.1907,-4.2029,-4.2219,-4.2799,-4.3234,-4.3328,-4.3318,-4.3558,-4.424,-4.4285,-4.4226,-4.4005,-4.3883,-4.4118,-4.4838,-4.4685,-4.4929,-4.5736,-4.6471,-4.693,-4.715,-4.7997,-4.8477,-4.8657,-4.875,-4.8839,-4.8909,-4.8909,-4.8909,-4.8909,-4.8909,-4.8909,-4.8909,-4.889,-4.952,-5.0484,-5.0925,-5.1183,-5.1092,-4.972,-4.9711,-5.0295,-5.0328,-5.0796,-5.1379,-5.1379,-5.1379,-5.1361,-5.1379,-5.1379,-5.1379,-5.1345,-5.1276,-5.1244,-5.1244,-5.1191,-5.1119,-5.1119,-5.0972,-5.0822,-5.0822,-5.0685,-5.0527,-5.0527,-5.0527,-5.0527,-5.0545,-5.0131,-4.9387,-4.8174,-4.7951,-4.7933,-4.7897,-4.7915,-4.801,-4.801,-4.7992,-4.797,-4.7902,-4.7777,-4.7717,-4.7717,-4.7717,-4.7717,-4.7717,-4.7717,-4.7717,-4.7717,-4.7819,-4.7925,-4.7992,-4.819,-4.8402,-4.8587,-4.8872,-4.9023,-4.0748,-4.0798,-4.0924,-4.167,-4.1855,-4.193,-4.2248,-4.2323,-4.2323,-4.2323,-4.2323,-4.2323,-4.2323,-4.2347,-4.2347,-4.2347,-4.237,-4.256,-4.3047,-4.3328,-4.3667,-4.4094,-4.4016,-4.4037,-4.4277,-4.4255,-4.437,-4.4711,-4.4619,-4.4905,-4.5651,-4.5567,-4.5864,-4.6581,-4.6929,-4.7333,-4.7886,-4.8291,-4.8532,-4.8624,-4.866,-4.8714,-4.8714,-4.8714,-4.8714,-4.8732,-4.9214,-4.9177,-4.8827,-4.9473,-4.9991,-5.0509,-5.1324,-5.1473,-5.1232,-5.0757,-5.0804,-5.1102,-5.1102,-5.1327,-5.1607,-5.1607,-5.1607,-5.1607,-5.1607,-5.1607,-5.1572,-5.1556,-5.1504,-5.1487,-5.1452,-5.1434,-5.1398,-5.1398,-5.125,-5.1099,-5.1099,-5.0943,-5.0802,-5.0802,-5.0802,-5.0802,-5.0802,-5.0633,-5.0391,-5.0134,-4.9702,-4.9378,-4.9359,-4.9163,-4.9149,-4.96,-4.9537,-4.9455,-4.9349,-4.9283,-4.9198,-4.9094,-4.9094,-4.9094,-4.9094,-4.9094,-4.9137,-4.9198,-4.9325,-4.9391,-4.9537,-4.9777,-4.9712,-4.9307,-4.9666,-4.9594,-4.1095,-4.1393,-4.173,-4.2541,-4.273,-4.2787,-4.3038,-4.3095,-4.3095,-4.3095,-4.3095,-4.3095,-4.3095,-4.3095,-4.3095,-4.3095,-4.3071,-4.3275,-4.385,-4.3869,-4.3973,-4.4522,-4.444,-4.4344,-4.4285,-4.4214,-4.4488,-4.518,-4.5119,-4.5497,-4.6447,-4.6414,-4.6709,-4.7425,-4.7443,-4.7719,-4.8306,-4.8419,-4.8457,-4.8513,-4.855,-4.8569,-4.8605,-4.8827,-4.8919,-4.8975,-4.9621,-4.9712,-4.9398,-5.0191,-5.0765,-5.1171,-5.1931,-5.2024,-5.1784,-5.2048,-5.1971,-5.1785,-5.1785,-5.197,-5.2175,-5.2175,-5.2192,-5.2228,-5.2228,-5.2228,-5.2192,-5.2139,-5.2121,-5.2121,-5.2048,-5.2067,-5.2067,-5.2048,-5.1879,-5.1763,-5.1706,-5.1566,-5.1463,-5.1463,-5.1463,-5.1463,-5.1463,-5.1463,-5.1573,-5.1963,-5.1564,-5.1091,-5.0762,-5.0305,-5.02,-5.0765,-5.0703,-5.0542,-5.0459,-5.0368,-5.0239,-5.0134,-5.0134,-5.009,-5.009,-5.0134,-5.0196,-5.0301,-5.0393,-5.0501,-5.0602,-5.0943,-5.0785,-5.0175,-5.0557,-5.0411,-4.1108,-4.1623,-4.2391,-4.3334,-4.3567,-4.378,-4.4624,-4.4819,-4.4819,-4.4819,-4.4819,-4.4819,-4.4819,-4.4819,-4.4819,-4.4819,-4.477,-4.4739,-4.4758,-4.4648,-4.456,-4.4515,-4.4373,-4.4304,-4.4214,-4.4184,-4.4457,-4.5045,-4.5053,-4.5672,-4.7187,-4.7132,-4.7443,-4.8251,-4.8269,-4.8288,-4.8306,-4.8306,-4.8363,-4.8513,-4.8513,-4.855,-4.8624,-4.9418,-4.9769,-4.9806,-5.0118,-5.058,-5.1043,-5.1062,-5.1876,-5.3117,-5.3304,-5.3394,-5.3425,-5.3465,-5.2966,-5.2301,-5.2301,-5.2858,-5.3639,-5.3639,-5.368,-5.372,-5.372,-5.372,-5.372,-5.3738,-5.3738,-5.3738,-5.3738,-5.3738,-5.37,-5.366,-5.3524,-5.3367,-5.3285,-5.3198,-5.3133,-5.3133,-5.3133,-5.3133,-5.3133,-5.3133,-5.3133,-5.3151,-5.3151,-5.2729,-5.1709,-5.1118,-5.0784,-5.0802,-5.0703,-5.0602,-5.0584,-5.0411,-5.0301,-5.0282,-5.0177,-5.009,-5.009,-5.0239,-5.0301,-5.0301,-5.0477,-5.0602,-5.0602,-5.0943,-5.1099,-5.1062,-5.1413,-5.1551,-4.2397,-4.2863,-4.3278,-4.4134,-4.4322,-4.4424,-4.4764,-4.4821,-4.4846,-4.4895,-4.4895,-4.4895,-4.4895,-4.4846,-4.4821,-4.4821,-4.4789,-4.4738,-4.4685,-4.4632,-4.4551,-4.444,-4.4811,-4.5058,-4.4985,-4.4891,-4.5111,-4.5842,-4.6297,-4.7002,-4.8053,-4.7958,-4.8031,-4.8306,-4.8306,-4.8306,-4.8306,-4.8306,-4.8306,-4.8363,-4.8363,-4.8695,-4.9266,-4.9542,-4.9761,-4.9979,-5.0787,-5.0431,-4.9413,-5.1614,-5.278,-5.3185,-5.324,-5.3277,-5.3314,-5.3314,-5.3148,-5.2927,-5.3053,-5.3318,-5.3558,-5.3558,-5.3579,-5.3619,-5.3619,-5.3619,-5.3619,-5.3619,-5.3619,-5.3619,-5.3619,-5.3619,-5.3579,-5.3579,-5.344,-5.3341,-5.3318,-5.3272,-5.3206,-5.3206,-5.3206,-5.3206,-5.3206,-5.3206,-5.3206,-5.3206,-5.3206,-5.3078,-5.2692,-5.2491,-5.2399,-5.2399,-5.2357,-5.2297,-5.2194,-5.2065,-5.1934,-5.1827,-5.1756,-5.1683,-5.1683,-5.1782,-5.1871,-5.1978,-5.2108,-5.2236,-5.2339,-5.2567,-5.241,-5.1893,-5.2288,-5.2148,-4.2998,-4.3581,-4.3966,-4.4527,-4.4659,-4.4685,-4.4764,-4.4745,-4.4789,-4.4821,-4.4821,-4.4821,-4.4821,-4.4796,-4.4745,-4.4745,-4.4712,-4.4632,-4.4578,-4.4551,-4.458,-4.4736,-4.5182,-4.5569,-4.5773,-4.5871,-4.616,-4.666,-4.7057,-4.7629,-4.8364,-4.8363,-4.8306,-4.8306,-4.8306,-4.8306,-4.8306,-4.8306,-4.8306,-4.8306,-4.8618,-4.9058,-4.9609,-5.0178,-5.0527,-5.0629,-5.1715,-5.1357,-5.0185,-5.2333,-5.3206,-5.3206,-5.3206,-5.3206,-5.3206,-5.3206,-5.3206,-5.3206,-5.3355,-5.3418,-5.344,-5.344,-5.344,-5.3499,-5.3499,-5.3499,-5.3499,-5.3499,-5.3499,-5.3499,-5.3499,-5.3499,-5.3499,-5.344,-5.3359,-5.33,-5.3295,-5.323,-5.3206,-5.3206,-5.3206,-5.3206,-5.3206,-5.3206,-5.3316,-5.3592,-5.3366,-5.3201,-5.3206,-5.3206,-5.3206,-5.3206,-5.3463,-5.3586,-5.3524,-5.3394,-5.3288,-5.318,-5.2808,-5.2618,-5.2618,-5.2672,-5.2787,-5.285,-5.2999,-5.3146,-5.323,-5.3418,-5.3262,-5.2841,-5.3181,-5.3026,-4.2988,-4.3802,-4.4411,-4.4551,-4.4578,-4.4605,-4.4685,-4.4693,-4.4712,-4.4712,-4.4712,-4.4712,-4.4712,-4.4712,-4.4693,-4.4685,-4.4632,-4.4551,-4.4515,-4.444,-4.4624,-4.5333,-4.5432,-4.5754,-4.6494,-4.7104,-4.746,-4.746,-4.7389,-4.761,-4.8269,-4.8306,-4.8306,-4.8306,-4.8306,-4.8306,-4.8306,-4.8306,-4.8306,-4.8324,-4.9169,-4.9609,-4.9701,-5.1261,-5.1885,-5.1734,-5.2784,-5.3206,-5.3206,-5.3206,-5.3206,-5.3206,-5.3206,-5.3206,-5.3206,-5.3206,-5.3206,-5.3206,-5.3206,-5.323,-5.33,-5.33,-5.3359,-5.3499,-5.3499,-5.3499,-5.3499,-5.3499,-5.3499,-5.3499,-5.3555,-5.3555,-5.3514,-5.3429,-5.3429,-5.3405,-5.3335,-5.3298,-5.328,-5.328,-5.3243,-5.3225,-5.3261,-5.328,-5.3537,-5.4308,-5.3799,-5.336,-5.3353,-5.3335,-5.3335,-5.3335,-5.4014,-5.4454,-5.4454,-5.4323,-5.4279,-5.4279,-5.3415,-5.2915,-5.2878,-5.301,-5.3035,-5.2999,-5.3103,-5.323,-5.33,-5.344,-5.36,-5.3794,-5.4018,-5.4181,-4.3623,-4.4165,-4.4344,-4.444,-4.444,-4.4468,-4.4605,-4.4632,-4.4632,-4.4685,-4.4712,-4.4712,-4.4712,-4.4659,-4.4605,-4.4551,-4.4496,-4.4411,-4.4373,-4.4344,-4.4584,-4.5333,-4.5935,-4.6559,-4.7262,-4.7901,-4.8255,-4.8218,-4.8088,-4.8104,-4.8288,-4.8306,-4.8306,-4.8306,-4.8306,-4.8306,-4.8306,-4.8306,-4.8306,-4.8324,-4.9169,-4.9903,-5.0508,-5.1353,-5.2082,-5.2821,-5.3096,-5.3206,-5.3206,-5.3206,-5.3206,-5.3206,-5.3206,-5.3206,-5.3206,-5.3206,-5.3206,-5.3206,-5.3206,-5.3206,-5.323,-5.323,-5.323,-5.329,-5.329,-5.329,-5.329,-5.329,-5.329,-5.3419,-5.4007,-5.4173,-5.432,-5.4865,-5.5012,-5.5012,-5.4987,-5.4528,-5.4087,-5.4087,-5.361,-5.339,-5.3995,-5.4087,-5.4252,-5.4649,-5.5207,-5.5453,-5.5023,-5.4987,-5.4987,-5.4987,-5.517,-5.528,-5.528,-5.5192,-5.5084,-5.5084,-5.4766,-5.4319,-5.3717,-5.3833,-5.3621,-5.2999,-5.3103,-5.323,-5.33,-5.344,-5.36,-5.3794,-5.4018,-5.4181,-4.3778,-4.4274,-4.4255,-4.4344,-4.4373,-4.4373,-4.444,-4.4468,-4.4468,-4.4524,-4.4524,-4.4524,-4.4524,-4.4496,-4.4458,-4.443,-4.4373,-4.4344,-4.4274,-4.4226,-4.4575,-4.5672,-4.6145,-4.6873,-4.7937,-4.8347,-4.855,-4.8513,-4.8363,-4.8306,-4.8306,-4.8306,-4.8306,-4.8306,-4.8306,-4.8306,-4.8306,-4.8306,-4.8489,-4.8875,-4.9719,-5.0545,-5.1353,-5.2013,-5.2656,-5.3206,-5.3206,-5.3206,-5.3206,-5.3206,-5.3206,-5.3206,-5.3206,-5.3206,-5.3206,-5.3206,-5.3206,-5.3206,-5.3206,-5.3206,-5.3206,-5.3206,-5.3206,-5.3206,-5.3206,-5.3206,-5.328,-5.3628,-5.3739,-5.3922,-5.4711,-5.4932,-5.5042,-5.5482,-5.5592,-5.5592,-5.5592,-5.5244,-5.4932,-5.4932,-5.4564,-5.4399,-5.484,-5.4932,-5.5078,-5.5456,-5.6014,-5.6481,-5.662,-5.6242,-5.5857,-5.5611,-5.5904,-5.6124,-5.6124,-5.608,-5.6016,-5.6016,-5.5596,-5.5194,-5.4737,-5.4763,-5.4441,-5.3634,-5.3677,-5.3621,-5.34,-5.344,-5.3639,-5.3944,-5.4055,-5.4198,-4.3546,-4.4079,-4.4184,-4.4255,-4.4285,-4.4285,-4.4285,-4.4285,-4.4285,-4.4285,-4.4285,-4.4285,-4.4285,-4.4285,-4.4285,-4.4255,-4.4255,-4.4226,-4.4153,-4.4042,-4.4554,-4.612,-4.6221,-4.6833,-4.8439,-4.8513,-4.8494,-4.8457,-4.8363,-4.8306,-4.8306,-4.8306,-4.8306,-4.8306,-4.8306,-4.8306,-4.8306,-4.8306,-4.8728,-4.9591,-5.0417,-5.1224,-5.2013,-5.2839,-5.3206,-5.3206,-5.3206,-5.3206,-5.3206,-5.3206,-5.3206,-5.3206,-5.3206,-5.3206,-5.3206,-5.3206,-5.3206,-5.3206,-5.3206,-5.3206,-5.3206,-5.3206,-5.3206,-5.3206,-5.3206,-5.328,-5.35,-5.4197,-5.4473,-5.473,-5.5537,-5.5757,-5.5776,-5.5886,-5.5904,-5.5904,-5.5904,-5.5812,-5.5721,-5.5611,-5.5592,-5.5611,-5.5739,-5.5757,-5.5959,-5.652,-5.6612,-5.6942,-5.7886,-5.7179,-5.6452,-5.5959,-5.6547,-5.6969,-5.6969,-5.6969,-5.6969,-5.6969,-5.629,-5.5868,-5.5757,-5.5757,-5.5372,-5.4564,-5.4454,-5.4178,-5.3665,-5.3536,-5.3717,-5.4091,-5.4091,-5.4249,-4.2593,-4.3397,-4.3979,-4.4055,-4.4135,-4.4244,-4.4285,-4.4285,-4.4285,-4.4285,-4.4285,-4.4285,-4.4285,-4.4285,-4.4255,-4.4067,-4.4036,-4.4023,-4.3902,-4.3869,-4.4428,-4.6036,-4.6205,-4.6797,-4.8384,-4.8513,-4.8457,-4.8344,-4.8306,-4.8306,-4.8306,-4.8306,-4.8306,-4.8306,-4.8306,-4.8306,-4.8306,-4.8306,-4.8728,-4.9591,-5.0417,-5.1224,-5.2013,-5.2839,-5.3206,-5.3206,-5.3206,-5.3206,-5.3206,-5.3206,-5.3206,-5.3206,-5.3206,-5.3206,-5.3206,-5.3206,-5.3206,-5.3206,-5.3206,-5.3206,-5.3206,-5.3206,-5.3206,-5.3206,-5.3206,-5.3665,-5.4216,-5.4363,-5.4876,-5.5574,-5.6381,-5.6602,-5.6767,-5.7428,-5.7574,-5.7574,-5.7574,-5.706,-5.64,-5.5721,-5.5592,-5.5794,-5.6492,-5.6602,-5.6859,-5.7611,-5.7721,-5.7795,-5.7978,-5.7831,-5.7666,-5.7574,-5.7703,-5.7795,-5.7795,-5.7795,-5.7795,-5.7795,-5.7666,-5.7281,-5.662,-5.6602,-5.6216,-5.5409,-5.473,-5.4454,-5.4496,-5.3832,-5.3717,-5.4091,-5.4091,-5.4249,-4.1748,-4.258,-4.3254,-4.3267,-4.3632,-4.4029,-4.4073,0.0,0.0,-4.4147,-4.4147,-4.4147,-4.4147,-4.4116,0.0,-4.3961,-4.3929,-4.3883,-4.3804,-4.3753,-4.4162,-4.5342,-4.5823,-4.6488,-4.7665,-4.8162,-4.8363,-4.8306,-4.8306,-4.8306,-4.8306,-4.8306,-4.8306,-4.8306,-4.8306,-4.8306,-4.8306,-4.8306,-4.8948,-5.0215,-5.0618,-5.1444,-5.2637,-5.3023,-5.3206,-5.3206,-5.3206,-5.3206,-5.3206,-5.3206,-5.3206,-5.3206,-5.3206,-5.3206,-5.3206,-5.3206,-5.3206,-5.3206,-5.3206,-5.3206,-5.3206,-5.3206,-5.3206,-5.3298,-5.3702,-5.4087,-5.4564,-5.5409,-5.5923,-5.6418,-5.7226,-5.7428,-5.7519,-5.7905,-5.7997,-5.7997,-5.7997,-5.7703,-5.7317,-5.6914,-5.684,-5.6969,-5.7354,-5.7428,-5.7556,-5.7941,-5.7997,-5.7997,-5.7997,-5.7997,-5.7997,-5.7997,-5.7997,-5.7997,-5.7997,-5.7997,-5.7997,-5.7997,-5.7997,-5.7831,-5.7446,-5.7428,-5.706,-5.6235,-5.5893,-5.5417,-5.4718,-5.4433,-5.4203,-5.4091,-5.4181,-5.4356,-4.088,-4.1636,-4.2276,-4.2276,-4.2885,-4.3527,-4.3606,-4.3754,-4.3897,-4.3961,-4.3961,-4.3961,-4.3961,0.0,-4.3883,0.0,-4.3786,-4.3753,-4.3738,-4.3634,-4.3894,-4.4685,-4.5442,-4.6195,-4.7002,-4.7771,-4.8229,-4.8229,-4.8229,-4.8267,-4.8306,-4.8306,-4.8306,-4.8306,-4.8306,-4.8306,-4.8306,-4.8306,-4.915,-5.0802,-5.0802,-5.1646,-5.3206,-5.3206,-5.3206,-5.3206,-5.3206,-5.3206,-5.3206,-5.3206,-5.3206,-5.3206,-5.3206,-5.3206,-5.3206,-5.3206,-5.3206,-5.3206,-5.3206,-5.3316,-5.3463,-5.3463,-5.3463,-5.3592,-5.4216,-5.4638,-5.5188,-5.6455,-5.6932,-5.7207,-5.7831,-5.7997,-5.7997,-5.7997,-5.7997,-5.7997,-5.7997,-5.7997,-5.7997,-5.7997,-5.7997,-5.7997,-5.8042,-5.8042,-5.8024,-5.7987,-5.8033,-5.8051,-5.8015,-5.8051,-5.8051,-5.8051,-5.8024,-5.7997,-5.7997,-5.7997,-5.7997,-5.7997,-5.7997,-5.7997,-5.7997,-5.7997,-5.7703,-5.7124,-5.703,-5.6399,-5.5277,-5.5294,-5.5061,-5.4633,-5.4778,-5.4987,-3.9946,-4.0565,-4.1236,-4.1236,-4.1889,-4.2544,-4.2678,0.0,-4.3804,-4.3837,-4.3837,-4.3837,-4.3837,-4.3804,0.0,0.0,0.0,-4.36,-4.3532,-4.3532,-4.3826,-4.4599,-4.537,-4.612,-4.6925,-4.7633,-4.8032,-4.8032,-4.8032,-4.8111,-4.8306,-4.8306,-4.8306,-4.8306,-4.8306,-4.8306,-4.8306,-4.8306,-4.915,-5.0802,-5.0802,-5.1646,-5.3206,-5.3206,-5.3206,-5.3206,-5.3206,-5.3206,-5.3206,-5.3206,-5.3206,-5.3206,-5.3206,-5.3206,-5.3206,-5.3206,-5.3206,-5.3206,-5.3206,-5.3683,-5.4289,-5.4289,-5.4289,-5.4308,-5.4381,-5.5427,-5.662,-5.6767,-5.7336,-5.7905,-5.7978,-5.7997,-5.7997,-5.7997,-5.7997,-5.7997,-5.7997,-5.7997,-5.7997,-5.7997,-5.7997,-5.8042,-5.8152,-5.8197,-5.8123,-5.801,-5.8109,-5.8146,-5.8035,-5.8128,-5.8183,-5.8183,-5.8078,-5.7997,-5.7997,-5.7997,-5.7997,-5.7997,-5.7997,-5.7997,-5.7997,-5.7997,-5.8006,-5.8086,-5.7368,-5.6996,-5.7043,-5.6466,-5.6253,-5.637,-5.6554,-5.6748,-3.9022,-3.9607,-4.0211,-4.0211,-4.0899,-4.157,-4.1668,0.0,-4.2982,-4.3065,-4.3453,-4.3804,-4.3804,-4.3719,-4.3667,0.0,0.0,0.0,-4.3479,-4.3481,-4.3574,-4.3886,-4.451,-4.5277,-4.6099,-4.6864,-4.7481,-4.7955,-4.7992,-4.8032,-4.8111,-4.8208,-4.8247,-4.8306,-4.8306,-4.8306,-4.8306,-4.8306,-4.915,-5.0802,-5.0802,-5.1646,-5.3206,-5.3206,-5.3201,-5.3195,-5.3085,-5.3103,-5.3195,-5.3121,-5.3121,-5.3206,-5.3206,-5.3206,-5.3206,-5.3206,-5.3206,-5.328,-5.3757,-5.4124,-5.4473,-5.495,-5.5445,-5.5849,-5.5849,-5.629,-5.6914,-5.7391,-5.7758,-5.7997,-5.7997,-5.7997,-5.7997,-5.7997,-5.7997,-5.7997,-5.7997,-5.8042,-5.8106,-5.8106,-5.8197,-5.826,-5.8305,-5.8305,-5.8331,-5.8319,-5.8245,-5.8227,-5.8245,-5.8301,-5.8319,-5.8319,-5.8268,-5.8242,-5.8242,-5.8242,-5.8242,-5.8242,-5.8242,-5.8242,-5.8242,-5.8242,-5.826,-5.8305,-5.8061,-5.7722,-5.7307,-5.7237,-5.7003,-5.6594,-5.6851,-5.699,-3.851,-3.8866,-3.9239,-3.9225,-3.9878,-4.058,-4.0679,0.0,-4.2036,-4.212,-4.2816,-4.3369,-4.3369,-4.3468,-4.3548,0.0,0.0,-4.3497,-4.3497,-4.3446,-4.3394,-4.3394,-4.3962,-4.469,-4.5492,-4.6433,-4.7229,-4.7733,-4.7829,-4.787,-4.7929,-4.805,-4.8169,-4.8286,-4.8267,-4.8306,-4.8306,-4.8306,-4.915,-5.0802,-5.0802,-5.1646,-5.3206,-5.3206,-5.3201,-5.3213,-5.3042,-5.3023,-5.306,-5.306,-5.3103,-5.3206,-5.3206,-5.3206,-5.3206,-5.3206,-5.3353,-5.3647,-5.4197,-5.4711,-5.5207,-5.5776,-5.6492,-5.7152,-5.7152,-5.7152,-5.7281,-5.7831,-5.7997,-5.7997,-5.7997,-5.7997,-5.7997,-5.7997,-5.7997,-5.7997,-5.8042,-5.8152,-5.8197,-5.8242,-5.8349,-5.8393,-5.8437,-5.8418,-5.8437,-5.8536,-5.8425,-5.8369,-5.8462,-5.848,-5.848,-5.848,-5.848,-5.848,-5.8411,-5.8411,-5.8393,-5.8393,-5.8393,-5.8393,-5.8393,-5.8393,-5.8393,-5.8418,-5.8486,-5.8275,-5.7761,-5.8045,-5.7864,-5.7398,-5.7618,-5.7827,-3.8478,-3.8401,-3.8419,-3.834,-3.8907,-3.9574,0.0,0.0,-4.1031,-4.1097,-4.1772,-4.2323,-4.2323,-4.2965,-4.3497,-4.3497,-4.3497,0.0,-4.3497,-4.3446,-4.3394,-4.3394,-4.3944,-4.4613,-4.5412,-4.6698,-4.745,-4.7302,-4.7407,-4.7554,-4.7717,-4.7888,-4.8032,-4.8187,-4.8286,-4.8306,-4.8306,-4.8306,-4.915,-5.0802,-5.0802,-5.1646,-5.3206,-5.3206,-5.3206,-5.3206,-5.3206,-5.3036,-5.2834,-5.3072,-5.3206,-5.3206,-5.3206,-5.3206,-5.3206,-5.3206,-5.3702,-5.4399,-5.4399,-5.5445,-5.6785,-5.6785,-5.7336,-5.7997,-5.7997,-5.7997,-5.7997,-5.7997,-5.7997,-5.7997,-5.7997,-5.7997,-5.7997,-5.7997,-5.7997,-5.8042,-5.8152,-5.8197,-5.8242,-5.8349,-5.8393,-5.8418,-5.8468,-5.8511,-5.8553,-5.8675,-5.8716,-5.8716,-5.8716,-5.8716,-5.8716,-5.8716,-5.8716,-5.8651,-5.8529,-5.843,-5.8393,-5.8393,-5.8393,-5.8393,-5.8393,-5.8393,-5.8418,-5.8511,-5.8511,-5.8614,-5.8899,-5.8964,-5.9063,-5.9158,-5.9436,-5.9681,-3.8627,-3.8483,-3.8322,-3.8307,-3.8554,-3.8765,-3.8816,0.0,-4.0253,-4.0286,-4.0928,-4.1497,-4.1497,-4.1699,-4.1864,-4.1864,-4.2323,-4.2638,-4.264,-4.2993,-4.3269,-4.3215,-4.3737,-4.44,-4.516,-4.6062,-4.6805,-4.7284,-4.7407,-4.7511,-4.7554,-4.7783,-4.7988,-4.8187,-4.8286,-4.8306,-4.8306,-4.8306,-4.915,-5.0802,-5.0802,-5.1646,-5.3206,-5.3206,-5.3201,-5.3213,-5.3078,-5.306,-5.306,-5.306,-5.3103,-5.3206,-5.3206,-5.3206,-5.3206,-5.3206,-5.372,-5.4473,-5.5023,-5.5904,-5.6895,-5.7446,-5.7795,-5.7997,-5.7997,-5.7997,-5.7997,-5.7997,-5.7997,-5.7997,-5.7997,-5.7997,-5.8042,-5.8088,-5.8152,-5.8197,-5.8305,-5.8356,-5.8443,-5.8443,-5.8529,-5.8633,-5.8614,-5.8656,-5.8656,-5.8698,-5.8716,-5.8716,-5.8716,-5.8716,-5.8716,-5.8716,-5.8716,-5.8675,-5.8651,-5.8609,-5.859,-5.859,-5.859,-5.859,-5.859,-5.859,-5.8633,-5.8656,-5.8716,-5.8818,-5.8899,-5.908,-5.9253,-5.9474,-5.9669,-5.9839,0.0,-3.8596,-3.8437,-3.8354,-3.8368,0.0,0.0,0.0,0.0,0.0,0.0,0.0,-4.0653,-4.091,-4.1111,-4.1111,-4.1534,-4.1831,-4.1782,-4.2337,-4.2814,-4.3013,-4.3604,-4.4173,-4.4584,-4.5522,-4.628,-4.6703,-4.7114,-4.7381,-4.7407,-4.7657,-4.7902,-4.8087,-4.8226,-4.8267,-4.8306,-4.8306,-4.915,-5.0802,-5.0802,-5.1646,-5.3206,-5.3206,-5.3201,-5.3213,-5.3121,-5.314,0.0,-5.3121,-5.3103,-5.3206,-5.3206,-5.3206,-5.3243,-5.3555,-5.4161,-5.4968,-5.5776,-5.6583,-5.7336,-5.7831,-5.7997,-5.7997,-5.8042,-5.8042,-5.7997,-5.8042,-5.8106,-5.8106,-5.8152,-5.8152,-5.8197,-5.826,-5.8305,-5.8305,-5.8418,-5.8486,-5.8511,-5.8572,-5.8656,-5.8716,-5.8716,-5.8716,-5.8716,-5.8716,-5.8716,-5.8716,-5.8716,-5.8716,-5.8716,-5.8716,-5.8716,-5.8716,-5.8716,-5.8716,-5.8716,-5.8716,-5.8716,-5.8716,-5.8716,-5.8758,-5.8758,-5.8758,-5.8881,-5.8961,-5.9001,-5.9234,-5.9401,-5.9597,-5.9723,-5.9872,0.0,-3.8633,-3.8566,-3.8373,-3.8378,-3.8446,0.0,0.0,0.0,0.0,0.0,0.0,0.0,-4.0432,-4.0946,-4.0946,-4.0983,-4.102,-4.0987,-4.1551,-4.2196,-4.2757,-4.3475,-4.388,-4.3796,-4.5018,-4.5827,-4.5802,-4.6632,-4.7169,-4.7302,-4.7554,-4.7759,-4.792,-4.8087,-4.8226,-4.8306,-4.8306,-4.9114,-5.0729,-5.0765,-5.161,-5.3133,-5.3188,-5.3206,-5.3206,-5.3206,-5.3206,-5.3206,-5.3206,-5.3206,-5.3206,-5.3206,-5.3206,-5.3316,-5.4106,-5.4913,-5.5702,-5.6528,-5.7336,-5.7997,-5.7997,-5.7997,-5.8042,-5.8197,-5.8106,-5.8042,-5.8197,-5.8197,-5.8242,-5.8349,-5.8393,-5.8393,-5.8393,-5.8393,-5.8437,-5.8511,-5.8511,-5.8553,-5.8675,-5.8716,-5.8716,-5.8716,-5.8716,-5.8716,-5.8716,-5.8716,-5.8716,-5.8716,-5.8716,-5.8716,-5.8716,-5.8716,-5.8698,-5.8698,-5.8716,-5.8698,-5.8716,-5.8698,-5.8716,-5.8698,-5.884,-5.8899,-5.8899,-5.8982,-5.9081,-5.9234,-5.942,-5.9545,-5.9616,-5.9757,-5.9872,-3.7368,0.0,-3.7845,-3.7794,-3.8212,-3.8627,0.0,0.0,0.0,0.0,0.0,0.0,0.0,0.0,-3.9332,-3.9332,-3.9803,-4.0143,-4.0042,-4.1118,-4.196,-4.2105,-4.27,-4.3268,-4.3742,-4.4014,-4.4628,-4.5713,-4.6175,-4.6683,-4.7284,-4.7554,-4.7759,-4.792,-4.7943,-4.8046,-4.8226,-4.8267,-4.882,-4.9884,-5.0508,-5.1316,-5.2307,-5.2931,-5.3206,-5.3206,-5.3206,-5.3206,-5.3206,-5.3206,-5.3206,-5.3206,-5.3206,-5.3206,-5.3316,-5.4106,-5.4913,-5.5702,-5.6528,-5.7336,-5.7997,-5.8106,-5.8152,-5.8197,-5.8305,-5.8242,-5.8197,-5.8305,-5.8349,-5.8349,-5.8393,-5.8393,-5.8437,-5.8443,-5.8486,-5.8529,-5.8614,-5.8656,-5.8656,-5.8698,-5.8716,-5.8716,-5.8716,-5.8716,-5.8716,-5.8716,-5.8716,-5.8716,-5.8716,-5.8716,-5.8716,-5.8716,-5.8799,-5.8859,-5.8859,-5.8758,-5.8758,-5.8859,-5.8859,-5.8881,-5.8924,-5.8964,-5.8964,-5.8964,-5.91,-5.9253,-5.942,-5.951,-5.9634,-5.9757,-5.9904,-6.0013,-3.6029,-3.6595,-3.7219,-3.7165,-3.7432,-3.7845,0.0,0.0,0.0,0.0,0.0,0.0,0.0,0.0,0.0,-3.8851,-3.916,-3.9491,-3.9662,-4.0714,-4.1575,-4.1922,-4.2485,-4.3005,-4.3361,-4.358,-4.4014,-4.4832,-4.5688,-4.641,-4.683,-4.7313,-4.7657,-4.7801,-4.7861,-4.7984,-4.8187,-4.8226,-4.8708,-4.9591,-5.0417,-5.1224,-5.2013,-5.2839,-5.3206,-5.3206,-5.3206,-5.3206,-5.3206,-5.3206,-5.3206,-5.3206,-5.3206,-5.3206,-5.3353,-5.4528,-5.5225,-5.5757,-5.6995,-5.7784,-5.8197,-5.8242,-5.8286,-5.8286,-5.8418,-5.8418,-5.8356,-5.8418,-5.8462,-5.8462,-5.8505,-5.8548,-5.8548,-5.8572,-5.8596,-5.8614,-5.8656,-5.8716,-5.8716,-5.8716,-5.8716,-5.8716,-5.8716,-5.8716,-5.8716,-5.8716,-5.8716,-5.8716,-5.8716,-5.8758,-5.8799,-5.8799,-5.8881,-5.8961,-5.8961,-5.8902,-5.8843,-5.8905,-5.8961,-5.902,-5.9022,-5.91,-5.912,-5.914,-5.9253,-5.9383,-5.9493,-5.9634,-5.9738,-5.9857,-5.995,-6.0076,-3.487,-3.5666,-3.6496,-3.6482,-3.6552,-3.6776,0.0,0.0,0.0,0.0,0.0,0.0,0.0,-3.8847,0.0,-3.8939,-3.8881,-3.8983,-3.9507,-4.0262,-4.1034,-4.1772,-4.2414,-4.283,-4.292,-4.3379,-4.371,-4.3818,-4.5096,-4.6002,-4.6284,-4.7012,-4.7488,-4.7699,-4.7842,-4.8006,-4.8187,-4.8187,-4.8593,-4.9407,-5.0215,-5.1041,-5.183,-5.2619,-5.3059,-5.3206,-5.3206,-5.3206,-5.3206,-5.3206,-5.3206,-5.3206,-5.3206,-5.3206,-5.339,-5.5048,-5.5636,-5.5901,-5.7626,-5.8286,-5.8393,-5.8437,-5.8437,-5.8418,-5.8529,-5.8511,-5.8511,-5.8511,-5.8511,-5.8553,-5.8656,-5.8716,-5.8716,-5.8716,-5.8716,-5.8716,-5.8716,-5.8716,-5.8716,-5.8716,-5.8716,-5.8716,-5.8716,-5.8716,-5.8716,-5.8716,-5.8716,-5.8716,-5.8716,-5.8818,-5.8899,-5.8899,-5.8982,-5.908,-5.9211,-5.9229,-5.9268,-5.9268,-5.9154,-5.9098,-5.9156,-5.9214,-5.929,-5.9327,-5.9438,-5.9529,-5.9547,-5.9741,-5.9824,-5.9918,-5.9963,-6.0106,-3.5001,-3.5078,-3.5299,-3.5731,-3.6267,-3.6716,0.0,0.0,0.0,0.0,0.0,0.0,0.0,-3.8572,-3.8979,-3.8979,-3.8921,-3.8918,-3.8999,-3.9676,-4.0391,-4.117,-4.1839,-4.2449,-4.3032,-4.3139,-4.3389,-4.3866,-4.4195,-4.4975,-4.623,-4.6631,-4.7152,-4.7842,-4.7947,-4.805,-4.8187,-4.8187,-4.826,-4.8428,-4.9331,-5.0196,-5.1004,-5.1568,-5.232,-5.3206,-5.3206,-5.3206,-5.3206,-5.3206,-5.3206,-5.3206,-5.3206,-5.323,-5.3479,-5.5178,-5.581,-5.6116,-5.7777,-5.8393,-5.8393,-5.8486,-5.8468,-5.8511,-5.8614,-5.8656,-5.8656,-5.8656,-5.8656,-5.8656,-5.8698,-5.8716,-5.8716,-5.8716,-5.8716,-5.8716,-5.8716,-5.8716,-5.8716,-5.8716,-5.8716,-5.8716,-5.8716,-5.8716,-5.8716,-5.8716,-5.8716,-5.8758,-5.8859,-5.8899,-5.8921,-5.8964,-5.91,-5.9458,-6.0112,-6.0283,-6.0491,-6.083,-5.9759,-5.9215,-5.942,-5.9457,-5.9493,-5.9562,-5.9562,-5.9634,-5.9757,-5.9776,-5.9839,-6.0013,-6.0057,-6.0167,-3.5092,-3.5001,-3.5003,-3.5179,-3.5379,-3.5669,-3.6087,0.0,0.0,0.0,0.0,0.0,0.0,0.0,-3.8591,-3.8952,-3.8979,-3.8921,-3.891,-3.9582,-4.0345,-4.1112,-4.1838,-4.2564,-4.3301,-4.3268,-4.3306,-4.3578,-4.3995,-4.4538,-4.5243,-4.6233,-4.6928,-4.7292,-4.7751,-4.8032,-4.809,-4.8148,-4.8226,-4.8247,-4.9187,-5.0013,-5.0839,-5.1963,-5.2734,-5.3206,-5.3206,-5.3248,-5.3309,-5.3272,-5.3314,-5.3355,-5.3355,-5.3378,-5.3603,-5.5244,-5.6195,-5.6834,-5.8036,-5.8505,-5.8548,-5.8614,-5.8614,-5.8614,-5.8656,-5.8716,-5.8716,-5.8716,-5.8716,-5.8716,-5.8716,-5.8716,-5.8716,-5.8716,-5.8716,-5.8716,-5.8716,-5.8716,-5.8716,-5.8716,-5.8716,-5.8716,-5.8716,-5.8716,-5.8716,-5.8716,-5.8758,-5.8818,-5.8899,-5.898,-5.908,-5.9081,-5.9627,-6.0135,-6.0511,-6.1037,-6.1281,-6.1093,-6.1149,-6.0697,-5.9566,-5.9998,-6.0052,-5.9616,-5.9669,-5.9757,-5.9809,-5.9824,-5.9918,-6.0057,-6.0087,-6.0178,-3.511,-3.5075,-3.4983,-3.4849,0.0,-3.4749,-3.5292,0.0,0.0,0.0,0.0,0.0,0.0,-3.8063,-3.8503,-3.8999,-3.911,-3.9082,-3.9026,-3.9563,-4.0304,-4.1274,-4.1896,-4.2627,-4.3572,-4.3529,-4.3408,-4.3373,-4.3906,-4.4291,-4.4437,-4.5643,-4.6501,-4.6923,-4.7508,-4.7949,-4.8132,-4.8247,-4.8286,-4.8286,-4.8967,-4.9738,-5.0637,-5.2022,-5.2849,-5.3272,-5.3267,-5.3309,-5.3414,-5.3378,-5.34,-5.3499,-5.3499,-5.365,-5.3983,-5.5221,-5.6395,-5.7441,-5.8053,-5.8447,-5.8716,-5.8758,-5.8758,-5.8758,-5.8781,-5.8781,-5.8781,-5.8781,-5.8781,-5.8739,-5.8698,-5.8716,-5.8716,-5.8716,-5.8716,-5.8716,-5.8716,-5.8716,-5.8716,-5.8716,-5.8716,-5.8716,-5.8716,-5.8716,-5.8758,-5.8758,-5.884,-5.8921,-5.898,-5.9287,-5.9477,-5.9515,-6.036,-6.1037,-6.1318,-6.2146,-6.2428,-6.1901,-6.2653,-6.2387,-6.0823,-6.0877,-6.0613,-5.9968,-5.9885,-5.9824,-5.9824,-5.9904,-5.9963,-6.0099,-6.0118,-6.0226,-3.511,-3.5092,-3.5057,-3.4926,0.0,0.0,-3.4592,-3.4544,0.0,-3.4573,0.0,0.0,0.0,-3.8252,-3.9317,-3.9373,-3.9373,-3.9373,-3.9346,-3.9402,-3.9991,-4.1491,-4.1704,-4.2296,-4.3749,-4.3865,-4.3781,-4.3579,-4.3652,-4.3952,-4.4636,-4.4836,-4.5661,-4.7224,-4.7389,-4.7794,-4.855,-4.855,-4.8458,-4.8187,-4.8341,-4.8967,-5.0071,-5.0714,-5.186,-5.3385,-5.3451,-5.347,-5.3499,-5.3499,-5.3499,-5.3499,-5.3499,-5.4041,-5.4825,-5.4997,-5.6076,-5.7509,-5.7565,-5.8085,-5.8716,-5.8859,-5.8877,-5.8899,-5.8964,-5.8984,-5.8984,-5.8984,-5.8984,-5.8924,-5.8739,-5.8716,-5.8716,-5.8716,-5.8716,-5.8716,-5.8716,-5.8716,-5.8716,-5.8716,-5.8716,-5.8716,-5.8716,-5.8799,-5.8877,-5.8877,-5.8942,-5.9042,-5.9139,-5.9851,-6.0358,-6.0473,-6.1338,-6.2259,-6.3106,-6.3991,-6.448,-6.433,-6.3709,-6.3689,-6.449,-6.2246,-6.0997,-6.1003,-6.0283,-5.9885,-5.9885,-5.9982,-6.0026,-6.0099,-6.0216,-6.0323,-3.511,-3.5092,-3.5076,-3.4926,0.0,0.0,0.0,-3.4561,-3.4517,-3.4473,-3.4735,0.0,-3.6713,-3.8321,-3.9444,-3.9418,-3.9391,-3.9391,-3.9391,-3.9391,-3.9802,-4.0868,-4.1446,-4.2164,-4.3241,-4.3769,-4.3986,-4.3905,-4.3892,-4.3976,-4.4258,-4.4724,-4.5519,-4.6646,-4.7128,-4.7774,-4.8587,-4.8587,-4.8569,-4.8458,-4.8476,-4.9029,-5.0044,-4.9487,-5.078,-5.3413,-5.3595,-5.3672,-5.3598,-5.3598,-5.3676,-5.3831,-5.387,-5.4093,-5.4485,-5.5007,-5.5603,-5.6218,-5.6759,-5.7467,-5.8157,-5.8196,-5.8532,-5.8982,-5.9003,-5.8984,-5.8984,-5.8984,-5.8984,-5.8984,-5.8924,-5.8884,-5.8884,-5.8884,-5.8884,-5.8884,-5.8884,-5.8884,-5.8884,-5.8884,-5.8884,-5.8884,-5.8884,-5.8942,-5.8982,-5.8982,-5.9061,-5.9326,-5.9889,-6.0265,-6.0754,-6.1394,-6.2334,-6.3292,-6.416,-6.4592,-6.4798,-6.4779,-6.4478,-6.4495,-6.4867,-6.3413,-6.2144,-6.1117,-6.0795,-6.0397,-5.9885,-5.9982,-6.0026,-6.0099,-6.0245,-6.0352,-3.511,-3.5075,-3.5039,0.0,0.0,0.0,0.0,-3.4708,-3.4645,-3.4583,-3.4808,-3.5409,-3.6836,-3.8244,-3.9252,-3.9446,-3.9483,-3.9483,-3.9483,-3.9483,-3.9802,-4.0626,-4.1432,-4.221,-4.3007,-4.3772,-4.4199,-4.4199,-4.4128,-4.4097,-4.4097,-4.4575,-4.5342,-4.6401,-4.6928,-4.7692,-4.8767,-4.8785,-4.8785,-4.8785,-4.875,-4.9066,-4.9584,-4.8771,-4.9712,-5.2064,-5.325,-5.3623,-5.3382,-5.3662,-5.3888,-5.4055,-5.4091,-5.4091,-5.4166,-5.4707,-5.5081,-5.538,-5.5977,-5.6893,-5.7808,-5.7827,-5.8388,-5.9081,-5.9081,-5.9101,-5.9101,-5.9101,-5.9101,-5.9101,-5.9101,-5.9063,-5.8984,-5.8984,-5.8984,-5.8984,-5.8984,-5.8984,-5.8984,-5.8984,-5.8984,-5.8984,-5.8984,-5.9042,-5.9081,-5.9081,-5.9402,-5.9834,-6.0377,-6.1036,-6.1808,-6.2749,-6.3462,-6.4102,-6.4705,-6.4853,-6.4907,-6.4907,-6.4907,-6.4888,-6.4886,-6.4055,-6.3069,-6.1913,-6.1662,-6.1131,-6.0316,-6.0425,-6.0354,-6.0167,-6.0275,-6.0408,-3.5129,-3.5057,-3.4964,0.0,0.0,0.0,-3.4907,-3.4848,-3.4788,-3.4788,-3.5449,-3.6257,-3.7147,-3.7958,-3.8769,-3.9557,-3.9689,-3.9689,-3.9689,-3.9689,-4.0033,-4.0882,-4.1712,-4.2498,-4.3205,-4.4016,-4.4468,-4.4411,-4.4344,-4.4314,-4.4314,-4.4314,-4.5032,-4.6657,-4.6713,-4.7498,-4.9179,-4.9197,-4.9197,-4.9197,-4.9116,-4.8927,-4.8587,-4.8587,-4.8716,-4.9067,-5.2344,-5.331,-5.2661,-5.3609,-5.4037,-5.4091,-5.4091,-5.4091,-5.4091,-5.4091,-5.4595,-5.5286,-5.5286,-5.6388,-5.7789,-5.7885,-5.8484,-5.9215,-5.9272,-5.929,-5.929,-5.929,-5.929,-5.929,-5.929,-5.914,-5.8984,-5.8984,-5.8984,-5.8984,-5.8984,-5.8984,-5.8984,-5.8984,-5.8984,-5.8984,-5.8984,-5.9081,-5.9196,-5.9196,-5.9984,-6.0623,-6.0623,-6.2165,-6.3597,-6.4612,-6.4688,-6.4743,-6.4907,-6.4907,-6.4907,-6.4907,-6.4907,-6.4907,-6.4907,-6.4073,-6.3619,-6.36,-6.2905,-6.2121,-6.1305,-6.1454,-6.1095,-6.0313,-6.038,-6.0444,-3.5127,-3.5075,0.0,-3.4927,0.0,0.0,0.0,-3.4888,0.0,0.0,-3.5449,-3.6257,-3.7147,-3.7958,-3.8769,-3.9557,-3.9689,-3.9689,-3.9689,-3.9689,-3.9783,-4.0047,-4.1335,-4.2297,-4.2517,-4.3811,-4.4632,-4.4605,-4.4605,-4.4551,-4.4496,-4.4458,-4.518,-4.6731,-4.6725,-4.7498,-4.9179,-4.9197,-4.9197,-4.9197,-4.9164,-4.9061,-4.8816,-4.882,-4.8842,-4.9046,-5.1602,-5.2679,-5.2735,-5.3792,-5.4219,-5.4254,-5.4287,-5.4321,-5.4321,-5.4321,-5.4471,-5.4678,-5.4678,-5.5784,-5.7172,-5.7208,-5.8146,-5.9272,-5.929,-5.929,-5.929,-5.929,-5.929,-5.929,-5.929,-5.9272,-5.9215,-5.9215,-5.9215,-5.9215,-5.9215,-5.9215,-5.9215,-5.9215,-5.9215,-5.9215,-5.9215,-5.9215,-5.9478,-6.0097,-6.0397,-6.1055,-6.2278,-6.3502,-6.435,-6.4669,-6.4798,-6.4853,-6.4907,-6.4907,-6.4907,-6.4907,-6.4907,-6.4907,-6.4907,-6.4661,-6.4279,-6.3759,-6.3546,-6.3028,-6.2275,-6.238,-6.1972,-6.1152,-6.1277,-6.1054,-3.5179,-3.511,0.0,-3.4945,-3.4927,-3.4908,-3.4908,0.0,0.0,0.0,-3.5227,-3.5926,-3.7116,-3.774,-3.8439,-3.9592,-3.9781,-3.9781,-3.9781,-3.9781,-3.9781,-3.9781,-4.1255,-4.2276,-4.2276,-4.3763,-4.4738,-4.4738,-4.4712,-4.4685,-4.4632,-4.4605,-4.5303,-4.6869,-4.6866,-4.7641,-4.9295,-4.9313,-4.9313,-4.9313,-4.9262,-4.9211,-4.9127,-4.8974,-4.889,-4.9004,-5.1042,-5.2436,-5.3309,-5.3994,-5.4343,-5.4359,-5.4375,-5.4409,-5.4409,-5.4409,-5.4409,-5.4409,-5.4409,-5.5498,-5.6887,-5.6887,-5.7995,-5.929,-5.929,-5.9272,-5.9272,-5.9272,-5.9234,-5.9178,-5.9178,-5.9234,-5.9272,-5.929,-5.929,-5.929,-5.929,-5.929,-5.929,-5.929,-5.929,-5.929,-5.929,-5.929,-5.9591,-6.0473,-6.1187,-6.2165,-6.3559,-6.4331,-6.4743,-6.4779,-6.4853,-6.4907,-6.4907,-6.4907,-6.4907,-6.4907,-6.4907,-6.4907,-6.4907,-6.4907,-6.4696,-6.4286,-6.432,-6.3968,-6.3226,-6.3318,-6.2909,-6.2069,-6.2165,-6.1981,-3.5226,0.0,0.0,-3.5001,-3.4945,0.0,-3.4908,-3.4908,-3.4908,-3.4908,-3.4908,-3.5401,-3.7087,-3.739,-3.794,-3.9646,-3.9889,-3.9889,-3.9889,-3.9889,-3.9889,-3.9889,-4.1389,-4.2412,-4.2412,-4.3861,-4.4796,-4.4796,-4.4745,-4.4712,-4.4712,-4.4712,-4.544,-4.7052,-4.7109,-4.7859,-4.9471,-4.9509,-4.9509,-4.9509,-4.939,-4.9396,-4.9508,-4.9108,-4.9008,-4.9216,-5.0815,-5.2507,-5.4091,-5.4254,-5.4324,-5.4409,-5.4409,-5.4409,-5.4409,-5.4409,-5.4409,-5.4409,-5.4409,-5.5498,-5.6887,-5.6887,-5.7995,-5.9309,-5.9309,-5.9253,-5.9196,-5.9196,-5.9081,-5.8984,-5.8984,-5.9081,-5.9215,-5.9272,-5.9309,-5.929,-5.929,-5.929,-5.929,-5.929,-5.929,-5.929,-5.929,-5.929,-5.9628,-6.0567,-6.2222,-6.3634,-6.4502,-6.4689,-6.4743,-6.4907,-6.4907,-6.4907,-6.4907,-6.4907,-6.4907,-6.4907,-6.4907,-6.4907,-6.4907,-6.4907,-6.4924,-6.5008,-6.5147,-6.4864,-6.4126,-6.4256,-6.3866,-6.3025,-6.3093,-6.3138,0.0,-3.5209,0.0,0.0,-3.4945,-3.4908,-3.4908,-3.4908,-3.4908,-3.4908,-3.4908,-3.5401,-3.7087,-3.739,-3.794,-3.9646,-3.9889,-3.9889,-3.9889,-3.9889,-3.9889,-3.9889,-4.1389,-4.2412,-4.2412,-4.3886,-4.487,-4.487,-4.4889,-4.4821,-4.477,-4.4789,-4.5493,-4.7052,-4.7109,-4.7859,-4.9471,-4.9509,-4.9509,-4.9509,-4.9459,-4.9459,-4.9496,-4.9262,-4.9803,-5.0948,-5.1337,-5.2472,-5.4019,-5.4219,-5.4308,-5.4324,-5.4375,-5.4409,-5.4409,-5.4409,-5.4409,-5.4409,-5.4409,-5.5498,-5.6887,-5.6887,-5.7995,-5.9309,-5.9253,-5.9215,-5.9177,-5.9081,-5.9024,-5.8984,-5.8984,-5.9024,-5.9081,-5.9177,-5.9272,-5.929,-5.929,-5.929,-5.929,-5.929,-5.929,-5.929,-5.929,-5.929,-5.9816,-6.1318,-6.3106,-6.4351,-6.4577,-6.4745,-6.4853,-6.4907,-6.4907,-6.4907,-6.4907,-6.4907,-6.4907,-6.4907,-6.4907,-6.4907,-6.4907,-6.4907,-6.4977,-6.5147,-6.518,-6.5182,-6.5097,-6.5146,-6.4726,-6.3904,-6.4029,-6.3721,0.0,0.0,0.0,-3.5038,0.0,-3.4945,-3.4908,-3.4908,-3.4908,-3.4908,-3.4908,-3.5401,-3.7087,-3.739,-3.794,-3.9646,-3.9889,-3.9889,-3.9889,-3.9889,-3.9889,-3.9889,-4.1389,-4.2412,-4.2412,-4.3929,-4.4895,-4.4895,-4.487,-4.4821,-4.4796,-4.477,-4.5466,-4.7052,-4.7109,-4.7859,-4.9471,-4.9509,-4.9509,-4.9509,-4.9509,-4.9496,-4.9521,-5.0081,-5.0751,-5.1542,-5.1914,-5.2808,-5.4019,-5.4164,-5.4254,-5.4308,-5.4324,-5.4375,-5.4409,-5.4409,-5.4409,-5.4409,-5.4409,-5.5498,-5.6887,-5.6887,-5.7995,-5.9309,-5.9215,-5.9139,-5.91,-5.8982,-5.8902,-5.8843,-5.8843,-5.8902,-5.8982,-5.904,-5.9139,-5.9272,-5.929,-5.929,-5.929,-5.929,-5.929,-5.929,-5.929,-5.9966,-6.0792,-6.1656,-6.3408,-6.4596,-6.4558,-6.4781,-6.4907,-6.4907,-6.4907,-6.4907,-6.4907,-6.4907,-6.4907,-6.4907,-6.4907,-6.4907,-6.4907,-6.4924,-6.5027,-6.5199,-6.518,-6.5277,-6.5394,-6.5394,-6.5184,-6.4764,-6.4891,-6.4726,0.0,0.0,-3.5245,-3.5073,-3.502,0.0,-3.4927,-3.4908,-3.4908,-3.4889,-3.4908,-3.5401,-3.7087,-3.739,-3.794,-3.9646,-3.9889,-3.9889,-3.9889,-3.9889,-3.9889,-3.9889,-4.1389,-4.2412,-4.237,-4.3905,-4.487,-4.487,-4.4796,-4.477,-4.477,-4.4738,-4.5432,-4.7052,-4.7109,-4.7859,-4.9471,-4.9509,-4.9509,-4.9509,-4.9459,-4.9484,-4.9551,-5.1035,-5.17,-5.1691,-5.2398,-5.3163,-5.3982,-5.4037,-5.4164,-5.4273,-5.4254,-5.4306,-5.4375,-5.4375,-5.4409,-5.4428,-5.4559,-5.561,-5.6925,-5.7056,-5.8107,-5.9309,-5.9215,-5.91,-5.9003,-5.894,-5.8799,-5.8716,-5.8716,-5.8758,-5.8859,-5.8899,-5.902,-5.9177,-5.9272,-5.9309,-5.929,-5.929,-5.929,-5.929,-5.929,-6.0567,-6.1599,-6.1656,-6.3144,-6.4332,-6.4502,-6.4726,-6.4891,-6.4907,-6.4907,-6.4907,-6.4907,-6.4907,-6.4907,-6.4907,-6.4907,-6.4907,-6.4907,-6.4974,-6.5042,-6.5199,-6.5213,-6.5277,-6.5394,-6.5394,-6.5394,-6.5394,-6.5523,-6.5608,0.0,0.0,-3.5209,0.0,-3.5091,-3.5001,0.0,-3.4945,-3.4889,-3.4888,-3.4908,-3.5401,-3.7087,-3.739,-3.794,-3.9646,-3.9889,-3.9889,-3.9889,-3.9889,-3.9889,-3.9889,-4.1389,-4.2389,-4.2319,-4.3831,-4.477,-4.4738,-4.4738,-4.4712,-4.4712,-4.4693,-4.5432,-4.7052,-4.7109,-4.7859,-4.9471,-4.9509,-4.9509,-4.9509,-4.939,-4.937,-4.958,-5.1311,-5.219,-5.2285,-5.253,-5.3051,-5.3851,-5.3982,-5.4019,-5.4037,-5.411,-5.42,-5.4289,-5.4289,-5.4359,-5.4503,-5.5216,-5.608,-5.7,-5.7713,-5.8558,-5.9309,-5.9215,-5.91,-5.9003,-5.894,-5.8799,-5.8716,-5.8716,-5.8716,-5.8758,-5.8859,-5.8899,-5.898,-5.9177,-5.9234,-5.929,-5.929,-5.929,-5.929,-5.929,-6.0116,-6.0848,-6.1073,-6.2221,-6.3408,-6.4464,-6.4765,-6.4912,-6.4907,-6.4907,-6.4907,-6.4907,-6.4907,-6.4907,-6.4907,-6.4907,-6.4907,-6.4907,-6.4974,-6.5042,-6.5199,-6.5245,-6.5321,-6.5394,-6.5394,-6.5394,-6.5394,-6.5523,-6.5608,-3.5546,-3.5402,-3.5289,0.0,-3.5126,-3.5057,-3.5001,-3.4946,-3.4907,-3.4907,-3.5228,-3.5888,-3.7137,-3.7345,-3.7872,-3.9517,-3.9823,-3.9826,-3.9826,-3.9826,-3.9826,-3.9826,-4.1279,-4.2276,-4.2252,-4.3781,-4.4719,-4.4712,-4.4659,-4.4659,-4.4659,-4.5038,-4.582,-4.7032,-4.7484,-4.8232,-4.939,-4.939,-4.9377,-4.9345,-4.9313,-4.9309,-4.9381,-5.1001,-5.1989,-5.2436,-5.3014,-5.3478,-5.3794,-5.3851,-5.3944,-5.3982,-5.4055,-5.411,-5.42,-5.4254,-5.4324,-5.4471,-5.5313,-5.6174,-5.7018,-5.7845,-5.8652,-5.9253,-5.912,-5.9042,-5.8964,-5.884,-5.8758,-5.8716,-5.8716,-5.8716,-5.8698,-5.8758,-5.8859,-5.8899,-5.902,-5.9139,-5.9253,-5.9309,-5.929,-5.929,-5.929,-5.9609,-5.9909,-6.004,-6.2109,-6.3842,-6.437,-6.4689,-6.4893,-6.4891,-6.4907,-6.4907,-6.4907,-6.4907,-6.4907,-6.4907,-6.4907,-6.4942,-6.4939,-6.5061,-6.5161,-6.5245,-6.5277,-6.5321,-6.5394,-6.5394,-6.5394,-6.5394,-6.5494,-6.5552,0.0,0.0,-3.5398,-3.5273,-3.5176,-3.511,0.0,-3.4965,-3.4907,-3.4887,-3.5449,-3.6196,-3.7081,-3.7445,-3.8071,-3.9463,-3.9735,-3.9781,-3.9781,-3.9781,-3.9857,-4.0083,-4.134,-4.2278,-4.2498,-4.3818,-4.4659,-4.4632,-4.4578,-4.4551,-4.4524,-4.5237,-4.6034,-4.6896,-4.7721,-4.8515,-4.9276,-4.9276,-4.9244,-4.9197,-4.922,-4.9232,-4.9243,-5.0728,-5.1917,-5.2791,-5.3478,-5.3813,-5.3813,-5.3813,-5.3851,-5.3944,-5.3944,-5.4,-5.411,-5.4183,-5.4219,-5.4404,-5.5503,-5.6307,-5.702,-5.8089,-5.8784,-5.9234,-5.9081,-5.9003,-5.8924,-5.8799,-5.8716,-5.8716,-5.8716,-5.8716,-5.8716,-5.8716,-5.8758,-5.8859,-5.894,-5.908,-5.9215,-5.9309,-5.929,-5.929,-5.929,-5.9309,-5.9309,-5.929,-6.1432,-6.305,-6.3031,-6.369,-6.4384,-6.4853,-6.4891,-6.4907,-6.4888,-6.4888,-6.4907,-6.4907,-6.4942,-6.4958,-6.5008,-6.5128,-6.5245,-6.5309,-6.534,-6.5352,-6.5394,-6.5394,-6.5394,-6.5394,-6.5465,-6.5523,0.0,-3.5553,0.0,-3.5412,-3.5289,-3.5176,-3.511,-3.5001,-3.487,-3.4829,-3.5346,-3.6062,-3.6878,-3.7788,-3.8712,-3.9557,-3.9689,-3.9712,-3.9712,-3.9712,-4.0014,-4.0844,-4.1674,-4.2498,-4.3269,-4.4116,-4.4551,-4.4411,-4.4411,-4.4383,-4.4314,-4.5081,-4.5873,-4.6676,-4.7554,-4.8394,-4.9211,-4.923,-4.9179,-4.9197,-4.9123,-4.915,-4.923,-5.0713,-5.2233,-5.3738,-5.3775,-5.3813,-5.3813,-5.3813,-5.3794,-5.3813,-5.3813,-5.3888,-5.4,-5.4019,-5.4055,-5.4351,-5.6032,-5.6668,-5.7004,-5.869,-5.9215,-5.9177,-5.9177,-5.904,-5.8899,-5.8899,-5.8799,-5.8716,-5.8716,-5.8716,-5.8716,-5.8716,-5.8716,-5.8799,-5.9119,-5.9196,-5.9215,-5.9309,-5.929,-5.929,-5.929,-5.9309,-5.929,-5.929,-5.9459,-5.9553,-5.9553,-6.1112,-6.2936,-6.4718,-6.4891,-6.4891,-6.492,-6.4905,-6.4907,-6.4907,-6.4939,-6.5008,-6.5008,-6.5194,-6.5309,-6.5309,-6.5352,-6.5394,-6.5394,-6.5394,-6.5394,-6.5394,-6.5465,-6.5494,0.0,0.0,0.0,-3.5474,-3.5354,-3.5245,-3.5143,-3.4963,-3.4812,-3.4809,-3.5735,-3.6672,-3.6948,-3.7684,-3.8533,-3.9377,-3.9514,-3.9521,-3.9521,-3.9521,-3.984,-4.0703,-4.1485,-4.2256,-4.3072,-4.3915,-4.4401,-4.4344,-4.4344,-4.4314,-4.4314,-4.5555,-4.6396,-4.6694,-4.8058,-4.8884,-4.9116,-4.9064,-4.9012,-4.9012,-4.898,-4.9559,-5.0582,-5.0046,-5.1269,-5.3813,-5.3813,-5.3813,-5.3813,-5.3813,-5.3813,-5.3813,-5.3813,-5.3813,-5.3888,-5.3982,-5.4354,-5.4988,-5.622,-5.6949,-5.7566,-5.8746,-5.9081,-5.9042,-5.9001,-5.894,-5.8859,-5.8818,-5.8758,-5.8716,-5.8716,-5.8716,-5.8716,-5.8716,-5.8716,-5.8758,-5.8961,-5.91,-5.9121,-5.9159,-5.9253,-5.929,-5.929,-5.929,-5.9309,-5.929,-5.929,-5.929,-5.929,-6.0604,-6.192,-6.299,-6.344,-6.3719,-6.3792,-6.3808,-6.3865,-6.4055,-6.4162,-6.451,-6.5109,-6.5245,-6.5321,-6.5352,-6.5413,-6.5394,-6.5394,-6.5394,-6.5394,-6.5394,-6.5425,-6.5454,-3.5649,0.0,0.0,0.0,-3.5446,-3.5324,-3.5209,-3.5037,-3.4889,-3.481,-3.5979,-3.7004,-3.698,-3.7785,-3.8674,-3.9298,-3.9406,-3.9413,-3.9413,-3.9638,-4.0117,-4.0959,-4.1754,-4.2529,-4.337,-4.3949,-4.4285,-4.4274,-4.4274,-4.4255,-4.4207,-4.5693,-4.6797,-4.7303,-4.8435,-4.8978,-4.8927,-4.8839,-4.8785,-4.8785,-4.8878,-4.9489,-5.0565,-5.0417,-5.1546,-5.368,-5.3699,-5.3717,-5.3813,-5.3813,-5.3813,-5.3813,-5.3813,-5.3813,-5.3813,-5.3907,-5.4447,-5.5266,-5.6219,-5.7078,-5.7881,-5.8723,-5.9003,-5.8942,-5.8899,-5.8859,-5.8799,-5.8716,-5.8716,-5.8716,-5.8716,-5.8716,-5.8716,-5.8716,-5.8716,-5.8716,-5.8799,-5.8942,-5.9063,-5.9158,-5.9253,-5.929,-5.9309,-5.929,-5.929,-5.929,-5.929,-5.929,-5.929,-6.0041,-6.0716,-6.1128,-6.2085,-6.274,-6.2829,-6.2716,-6.2732,-6.2921,-6.3228,-6.3669,-6.4304,-6.4419,-6.4512,-6.4573,-6.4554,-6.4554,-6.4554,-6.5127,-6.5394,-6.5394,-6.5394,-6.5272,0.0,0.0,0.0,-3.5596,-3.5541,-3.5479,-3.5324,-3.5196,-3.5057,-3.4851,-3.6007,-3.7033,-3.6932,-3.8163,-3.9219,-3.9373,-3.9391,-3.9391,-3.9391,-4.0083,-4.0904,-4.168,-4.2501,-4.3322,-4.421,-4.4285,-4.4274,-4.4184,-4.4184,-4.4135,-4.4005,-4.5449,-4.7011,-4.8532,-4.8587,-4.8587,-4.8587,-4.8587,-4.8587,-4.8587,-4.8809,-4.8901,-4.8993,-5.1784,-5.323,-5.3489,-5.3391,-5.3526,-5.3813,-5.3813,-5.3813,-5.3813,-5.3813,-5.3813,-5.3813,-5.3813,-5.4314,-5.5131,-5.6085,-5.6925,-5.7744,-5.8684,-5.8942,-5.8899,-5.8899,-5.8799,-5.8716,-5.8716,-5.8716,-5.8716,-5.8716,-5.8716,-5.8716,-5.8716,-5.8716,-5.8716,-5.8716,-5.8799,-5.8958,-5.9232,-5.9271,-5.929,-5.9309,-5.9309,-5.929,-5.929,-5.929,-5.929,-5.929,-5.929,-5.9308,-5.9287,-6.094,-6.2029,-6.2019,-6.1738,-6.1549,-6.1542,-6.2178,-6.2573,-6.2611,-6.2803,-6.2911,-6.2911,-6.2911,-6.2911,-6.2911,-6.4535,-6.5337,-6.5337,-6.5337,-6.4928,-3.5766,0.0,0.0,0.0,0.0,0.0,-3.5412,-3.5258,-3.5126,-3.4964,-3.568,-3.6453,-3.6939,-3.7841,-3.8644,-3.9163,-3.9202,-3.9175,-3.9175,-3.99,-4.0756,-4.1486,-4.2284,-4.307,-4.3873,-4.3934,-4.3934,-4.3902,-4.3902,-4.3883,-4.3851,-4.5352,-4.696,-4.8532,-4.8587,-4.8587,-4.8587,-4.8587,-4.8587,-4.8587,-4.8661,-4.8698,-4.8698,-4.9362,-5.0988,-5.3248,-5.2539,-5.2742,-5.3561,-5.3561,-5.3561,-5.3561,-5.3561,-5.3561,-5.3579,-5.3676,-5.4235,-5.505,-5.6004,-5.6843,-5.7661,-5.852,-5.8781,-5.8758,-5.8758,-5.8716,-5.8716,-5.8716,-5.8716,-5.8716,-5.8716,-5.8716,-5.8716,-5.8716,-5.8716,-5.8716,-5.8716,-5.8716,-5.8781,-5.8847,-5.908,-5.929,-5.9159,-5.9253,-5.929,-5.929,-5.929,-5.929,-5.929,-5.929,-5.929,-5.9308,-5.9758,-6.0129,-6.0273,-6.0343,-6.0358,-6.0369,-6.1197,-6.1939,-6.2573,-6.2742,-6.2852,-6.2911,-6.2911,-6.2911,-6.2911,-6.3369,-6.3599,-6.3599,-6.3599,-6.3465,-3.6377,-3.629,-3.6183,-3.5746,0.0,0.0,-3.5502,-3.5379,-3.5242,-3.5126,-3.5628,-3.623,-3.6588,-3.7554,-3.8421,-3.8738,-3.9014,-3.9137,-3.9073,-4.0084,-4.0982,-4.1385,-4.2445,-4.3352,-4.3767,-4.3804,-4.3804,-4.3804,-4.3804,-4.4066,-4.4715,-4.5637,-4.6872,-4.844,-4.8476,-4.8476,-4.8476,-4.8476,-4.8476,-4.8476,-4.8476,-4.8476,-4.8494,-4.8843,-4.9802,-5.1185,-5.1661,-5.225,-5.2898,-5.3249,-5.3418,-5.3499,-5.3499,-5.3499,-5.3499,-5.3598,-5.4115,-5.497,-5.5906,-5.6763,-5.758,-5.8438,-5.8716,-5.8716,-5.8716,-5.8716,-5.8716,-5.8716,-5.8716,-5.8716,-5.8716,-5.8716,-5.8716,-5.8716,-5.8716,-5.8716,-5.8716,-5.8716,-5.8721,-5.871,-5.8924,-5.9156,-5.9121,-5.9178,-5.9272,-5.9309,-5.929,-5.929,-5.929,-5.929,-5.929,-5.929,-5.929,-5.9361,-5.9449,-5.965,-5.9828,-5.989,-6.0405,-6.0976,-6.1482,-6.1664,-6.1792,-6.1802,-6.1831,-6.186,-6.186,-6.2567,-6.2911,-6.2911,-6.2911,-6.272,-3.7356,-3.7182,-3.7007,-3.6086,-3.5814,0.0,-3.5631,-3.5515,-3.5379,-3.5258,-3.5732,-3.6159,-3.6039,-3.7338,-3.8365,-3.8252,-3.8852,-3.9245,-3.9064,-4.0359,-4.1348,-4.1292,-4.2696,-4.366,-4.3753,-4.3771,-4.3771,-4.3771,-4.3738,-4.4404,-4.5973,-4.6065,-4.6746,-4.8251,-4.8306,-4.8306,-4.8306,-4.8306,-4.8306,-4.8306,-4.8306,-4.8267,-4.8343,-4.9315,-4.9221,-4.8407,-5.0684,-5.177,-5.199,-5.2724,-5.3198,-5.3459,-5.3459,-5.3459,-5.3459,-5.3499,-5.3942,-5.4663,-5.5618,-5.6473,-5.733,-5.8248,-5.8642,-5.8716,-5.8716,-5.8716,-5.8716,-5.8716,-5.8716,-5.8716,-5.8716,-5.8716,-5.8716,-5.8716,-5.8716,-5.8716,-5.8716,-5.8716,-5.8679,-5.871,-5.8803,-5.8921,-5.9082,-5.9158,-5.9215,-5.9309,-5.929,-5.929,-5.929,-5.929,-5.929,-5.929,-5.929,-5.9307,-5.9317,-5.9502,-5.9685,-5.9885,-5.9893,-5.9937,-5.9994,-6.0186,-6.0264,-6.0313,-6.038,-6.0389,-6.0389,-6.1898,-6.2624,-6.2624,-6.2624,-6.2204,-3.8083,-3.8064,-3.788,-3.7026,-3.6823,0.0,-3.5773,-3.5581,-3.5528,-3.5379,-3.5435,-3.5646,-3.614,-3.7072,-3.7923,-3.8365,-3.9067,-3.9452,-3.9183,-3.9898,-4.0681,-4.1237,-4.2115,-4.2916,-4.3493,-4.3566,-4.355,-4.3499,-4.3376,-4.4071,-4.5773,-4.5865,-4.6598,-4.8251,-4.8306,-4.8306,-4.8306,-4.8306,-4.8306,-4.8306,-4.821,-4.8208,-4.83,-4.8312,-4.8211,-4.8129,-4.9232,-5.0501,-5.1706,-5.1871,-5.2456,-5.3248,-5.3248,-5.3248,-5.329,-5.3318,-5.3451,-5.3709,-5.4644,-5.5581,-5.6477,-5.7293,-5.8058,-5.8716,-5.8716,-5.8716,-5.8716,-5.8716,-5.8716,-5.8716,-5.8716,-5.8716,-5.8716,-5.8716,-5.8716,-5.8716,-5.8716,-5.8716,-5.8698,-5.8679,-5.8799,-5.894,-5.8984,-5.912,-5.9215,-5.9309,-5.929,-5.929,-5.929,-5.929,-5.929,-5.929,-5.929,-5.9307,-5.9317,-5.9502,-5.9685,-5.9885,-5.9918,-5.9931,-5.9994,-6.0087,-6.0197,-6.0313,-6.038,-6.0389,-6.0389,-6.0733,-6.0886,-6.0886,-6.0886,-6.079,-3.8999,-3.8916,-3.8753,-3.7919,-3.7696,0.0,0.0,-3.6914,-3.6876,-3.6774,-3.6685,-3.6746,-3.7039,-3.7771,-3.8404,-3.8605,-3.9277,-3.967,-3.9427,-3.9891,-4.0348,-4.0622,-4.1346,-4.2092,-4.2818,-4.2876,-4.299,-4.3268,-4.3251,-4.378,-4.5022,-4.5478,-4.6283,-4.751,-4.7949,-4.8151,-4.8151,-4.8151,-4.8151,-4.8151,-4.8093,-4.8072,-4.809,-4.8032,-4.797,-4.7966,-4.8384,-4.95,-5.1037,-5.1438,-5.2163,-5.3017,-5.306,-5.3164,-5.3206,-5.323,-5.3254,-5.3364,-5.4317,-5.4954,-5.5498,-5.6418,-5.7274,-5.8002,-5.8103,-5.8382,-5.8716,-5.8716,-5.8716,-5.8716,-5.8716,-5.8716,-5.8716,-5.8716,-5.8716,-5.8716,-5.8716,-5.8716,-5.8716,-5.8716,-5.8818,-5.8921,-5.9003,-5.9081,-5.9215,-5.9309,-5.929,-5.929,-5.929,-5.929,-5.929,-5.929,-5.929,-5.9326,-5.9392,-5.954,-5.9685,-5.9885,-5.9885,-5.9918,-5.995,-6.0057,-6.0178,-6.0352,-6.0389,-6.0389,-6.0389,-6.0389,-6.0389,-6.0389,-6.0389,-6.0389,-3.9876,-3.9751,-3.9614,-3.8743,-3.8549,-3.85,0.0,0.0,0.0,-3.8125,-3.8092,-3.8022,-3.7932,-3.8575,-3.9063,-3.8861,-3.9467,-3.9892,-3.967,-3.9956,-4.016,-4.008,-4.0609,-4.1264,-4.2026,-4.213,-4.2391,-4.2923,-4.3087,-4.3506,-4.4345,-4.5128,-4.5947,-4.6788,-4.7572,-4.7992,-4.7992,-4.7992,-4.7992,-4.7992,-4.801,-4.7933,-4.7897,-4.7988,-4.797,-4.7856,-4.7866,-4.872,-5.015,-5.0787,-5.1668,-5.2561,-5.2839,-5.306,-5.3103,-5.3103,-5.3164,-5.3256,-5.4044,-5.4417,-5.4741,-5.5558,-5.6399,-5.7108,-5.7227,-5.7843,-5.8475,-5.8475,-5.8586,-5.8758,-5.8758,-5.8758,-5.8739,-5.8758,-5.8758,-5.8716,-5.8716,-5.8716,-5.8716,-5.8716,-5.884,-5.8921,-5.9003,-5.9081,-5.9215,-5.9309,-5.929,-5.929,-5.929,-5.929,-5.929,-5.929,-5.929,-5.9345,-5.9486,-5.9578,-5.9685,-5.9885,-5.9885,-5.9885,-5.9885,-6.0026,-6.0207,-6.0389,-6.0389,-6.0389,-6.0389,-6.0389,-6.0389,-6.0389,-6.0389,-6.0389,-4.0491,-4.052,-4.0389,-3.9561,-3.9409,-3.9226,-3.8399,0.0,-3.8202,-3.8201,0.0,-3.8138,-3.8022,0.0,0.0,-3.901,-3.9662,-4.0058,-3.9804,-3.9717,-3.9813,-4.0224,-4.0203,-4.0467,-4.1227,-4.1748,-4.2047,-4.212,-4.2632,-4.3338,-4.4269,-4.5087,-4.5927,-4.6788,-4.7572,-4.7992,-4.7992,-4.7992,-4.7992,-4.7992,-4.7966,-4.7902,-4.7902,-4.7801,-4.7759,-4.7741,-4.7699,-4.8224,-4.91,-4.9191,-5.0159,-5.1744,-5.2506,-5.2806,-5.2868,-5.2868,-5.2912,-5.306,-5.3152,-5.3794,-5.463,-5.481,-5.5566,-5.6432,-5.6432,-5.7008,-5.7639,-5.7639,-5.826,-5.8859,-5.8859,-5.8902,-5.8964,-5.8899,-5.8859,-5.8859,-5.8716,-5.8716,-5.8758,-5.8859,-5.8942,-5.9003,-5.8984,-5.9081,-5.9215,-5.9309,-5.929,-5.929,-5.929,-5.929,-5.929,-5.929,-5.929,-5.9345,-5.9486,-5.9634,-5.9741,-5.9885,-5.9885,-5.9885,-5.9885,-6.0026,-6.0207,-6.0389,-6.0389,-6.0389,-6.0389,-6.0389,-6.0389,-6.0389,-6.0389,-6.0389,-4.0492,-4.0569,-4.0557,-4.0217,-4.0198,-4.0133,-3.9734,-3.9656,-3.9644,-3.9605,0.0,0.0,0.0,0.0,0.0,0.0,-4.006,-4.0177,-3.9954,-3.9804,-3.9707,-3.9667,-3.9536,-3.9723,-4.0386,-4.1013,-4.1535,-4.1904,-4.2196,-4.2649,-4.3447,-4.4245,-4.4844,-4.521,-4.6444,-4.7116,-4.7116,-4.757,-4.7824,-4.7824,-4.7801,-4.7759,-4.7759,-4.7717,-4.7717,-4.7717,-4.7717,-4.817,-4.8912,-4.8912,-4.9626,-5.0722,-5.1092,-5.1871,-5.2806,-5.2806,-5.2868,-5.2912,-5.2999,-5.3305,-5.3799,-5.4469,-5.5081,-5.5591,-5.6113,-5.6543,-5.6896,-5.7379,-5.7813,-5.8266,-5.8788,-5.8942,-5.8984,-5.8964,-5.8942,-5.8942,-5.8859,-5.8818,-5.8818,-5.8899,-5.8942,-5.9024,-5.9081,-5.9196,-5.9272,-5.9309,-5.929,-5.929,-5.929,-5.929,-5.929,-5.929,-5.9365,-5.9455,-5.9543,-5.965,-5.9772,-5.9885,-5.9885,-5.988,-5.9899,-6.0049,-6.0207,-6.0389,-6.0389,-6.0389,-6.0389,-6.0389,-6.0389,-6.0389,-6.0389,-6.0389,-4.0326,-4.043,-4.0543,-4.0534,-4.0598,-4.066,-4.0673,-4.0673,-4.066,-4.0621,-4.0598,0.0,0.0,0.0,-4.0441,-4.0379,0.0,-4.0234,-4.0038,-3.9933,-3.9693,-3.9324,-3.9165,-3.9229,-3.9577,-4.0203,-4.0818,-4.1249,-4.1668,-4.2105,-4.2594,-4.3572,-4.4095,-4.4095,-4.5454,-4.6287,-4.6504,-4.7083,-4.7482,-4.7717,-4.7717,-4.7717,-4.7717,-4.7717,-4.7717,-4.7717,-4.7717,-4.8043,-4.8586,-4.8586,-4.9057,-4.9764,-4.9764,-5.0685,-5.2098,-5.2316,-5.2535,-5.2761,-5.285,-5.2937,-5.3176,-5.4041,-5.4426,-5.4695,-5.5368,-5.5742,-5.6079,-5.6655,-5.7199,-5.7803,-5.8436,-5.8854,-5.9063,-5.9081,-5.9042,-5.9022,-5.894,-5.8899,-5.8899,-5.8921,-5.8982,-5.9042,-5.9215,-5.9272,-5.929,-5.929,-5.929,-5.929,-5.929,-5.929,-5.929,-5.929,-5.9401,-5.9529,-5.9597,-5.9666,-5.9786,-5.9885,-5.9885,-5.9912,-5.9973,-6.0061,-6.0207,-6.0389,-6.0389,-6.0389,-6.0389,-6.0389,-6.0389,-6.0389,-6.0389,-6.0389,-4.0117,-4.0253,-4.0413,-4.0413,-4.046,-4.0523,-4.0588,-4.0588,-4.0603,-4.0607,-4.0598,-4.0573,-4.0523,-4.0457,-4.0372,-4.0306,-4.0307,0.0,0.0,-4.0036,-3.987,-3.9526,-3.9272,-3.9036,-3.884,-3.9491,-3.9891,-3.9758,-4.1101,-4.1905,-4.1923,-4.33,-4.4095,-4.4095,-4.491,-4.5707,-4.6504,-4.654,-4.6939,-4.7717,-4.7717,-4.7717,-4.7717,-4.7717,-4.7717,-4.7717,-4.7717,-4.7717,-4.7753,-4.7753,-4.8224,-4.8949,-4.8949,-4.9456,-5.0297,-5.1031,-5.1883,-5.259,-5.259,-5.2893,-5.323,-5.3295,-5.3496,-5.3751,-5.3769,-5.4385,-5.5057,-5.5076,-5.6385,-5.7789,-5.7808,-5.8559,-5.9272,-5.9215,-5.9177,-5.9157,-5.894,-5.8899,-5.894,-5.9003,-5.8984,-5.9063,-5.9253,-5.9309,-5.929,-5.929,-5.929,-5.929,-5.929,-5.929,-5.929,-5.929,-5.9401,-5.9529,-5.9597,-5.9704,-5.9824,-5.9904,-5.9885,-6.0001,-6.0194,-6.0137,-6.0207,-6.0389,-6.0389,-6.0389,-6.0389,-6.0389,-6.0389,-6.0389,-6.0389,-6.0389,-3.9973,-4.0078,-4.0215,-4.0272,-4.0307,-4.0358,-4.0394,-4.0447,-4.0463,-4.0479,-4.0463,-4.0447,-4.0447,-4.043,-4.0377,-4.0325,-4.0252,-4.0196,0.0,-3.9933,-3.9739,-3.9575,-3.9298,-3.9073,-3.9007,-3.9091,-3.9344,-3.98,-4.0148,-4.083,-4.1851,-4.2285,-4.2736,-4.324,-4.4035,-4.4538,-4.4728,-4.5773,-4.6458,-4.6729,-4.7216,-4.7468,-4.745,-4.7644,-4.7626,-4.7554,-4.7657,-4.7717,-4.7717,-4.7717,-4.788,-4.8116,-4.8116,-4.8605,-4.9474,-5.0796,-5.1493,-5.1828,-5.249,-5.2893,-5.3085,-5.3235,-5.34,-5.3598,-5.3656,-5.3958,-5.4333,-5.4853,-5.5546,-5.6276,-5.6855,-5.7754,-5.852,-5.8484,-5.8896,-5.9065,-5.8331,-5.818,-5.818,-5.8181,-5.82,-5.8445,-5.9159,-5.929,-5.929,-5.929,-5.929,-5.929,-5.929,-5.929,-5.9346,-5.9401,-5.951,-5.9616,-5.9723,-5.9805,-5.9872,-5.9885,-5.9885,-5.9982,-6.0137,-6.0232,-6.0341,-6.0389,-6.0389,-6.0389,-6.0389,-6.0389,-6.0389,-6.0389,-6.0389,-6.0389,-3.9819,-3.9908,-4.0015,-4.0077,-4.0138,-4.0215,-4.0252,-4.029,-4.0345,-4.0326,-4.0326,-4.0327,-4.0327,-4.0327,-4.0272,-4.0234,-4.0196,-4.0138,0.0,-3.9848,-3.967,-3.9623,-3.9369,-3.9175,-3.9101,-3.895,-3.9043,-3.9473,-3.9639,-4.0112,-4.1048,-4.1542,-4.1977,-4.235,-4.3144,-4.3664,-4.3796,-4.4839,-4.5486,-4.5773,-4.6547,-4.6906,-4.6924,-4.7371,-4.754,-4.7511,-4.7615,-4.7657,-4.7717,-4.7717,-4.7717,-4.7717,-4.7717,-4.8025,-4.8641,-4.9963,-5.0814,-5.1402,-5.2108,-5.2587,-5.2937,-5.3151,-5.3318,-5.344,-5.3598,-5.3676,-5.3904,-5.4444,-5.4912,-5.5399,-5.5996,-5.6855,-5.7621,-5.7676,-5.807,-5.8259,-5.751,-5.7359,-5.7359,-5.7359,-5.7584,-5.8034,-5.8746,-5.9102,-5.929,-5.929,-5.929,-5.929,-5.929,-5.929,-5.9346,-5.9493,-5.9545,-5.965,-5.9824,-5.9872,-5.9885,-5.9885,-5.9885,-5.995,-6.0057,-6.0232,-6.0311,-6.038,-6.0389,-6.0389,-6.0389,-6.0389,-6.0389,-6.0389,-6.0389,-6.0389]}]]